<?xml version="1.0" encoding="UTF-8" standalone="no" ?>
<gpx xmlns="http://www.topografix.com/GPX/1/1" xmlns:xsi="http://www.w3.org/2001/XMLSchema-instance" xsi:schemaLocation="http://www.topografix.com/GPX/1/1 http://www.topografix.com/GPX/1/1/gpx.xsd" version="1.1" creator="VisuGPX - https://www.visugpx.com">
  <metadata>
    <name>Seillons - Saint Martin de Pallières</name>
    <desc><![CDATA[Au départ de Seillons par le vallon des abeilles, parcours sans difficulté jusqu'à St Martin de Pallières]]></desc>
  </metadata>
  <trk>
    <name><![CDATA[20180421071541-aAZj4]]></name>
    <trkseg>
      <trkpt lat="43.5037" lon="5.88679">
        <ele>309</ele>
        <time>2016-07-17T04:35:13Z</time>
      </trkpt>
      <trkpt lat="43.50366" lon="5.8868">
        <ele>309</ele>
        <time>2016-07-17T04:35:16Z</time>
      </trkpt>
      <trkpt lat="43.50361" lon="5.88677">
        <ele>309</ele>
        <time>2016-07-17T04:35:35Z</time>
      </trkpt>
      <trkpt lat="43.50358" lon="5.8867">
        <ele>308</ele>
        <time>2016-07-17T04:35:47Z</time>
      </trkpt>
      <trkpt lat="43.50359" lon="5.88662">
        <ele>310</ele>
        <time>2016-07-17T04:35:52Z</time>
      </trkpt>
      <trkpt lat="43.50366" lon="5.88658">
        <ele>311</ele>
        <time>2016-07-17T04:36:04Z</time>
      </trkpt>
      <trkpt lat="43.50371" lon="5.88655">
        <ele>311</ele>
        <time>2016-07-17T04:36:27Z</time>
      </trkpt>
      <trkpt lat="43.50376" lon="5.88652">
        <ele>311</ele>
        <time>2016-07-17T04:36:32Z</time>
      </trkpt>
      <trkpt lat="43.5038" lon="5.88647">
        <ele>312</ele>
        <time>2016-07-17T04:36:36Z</time>
      </trkpt>
      <trkpt lat="43.50384" lon="5.88643">
        <ele>312</ele>
        <time>2016-07-17T04:36:39Z</time>
      </trkpt>
      <trkpt lat="43.50389" lon="5.88639">
        <ele>312</ele>
        <time>2016-07-17T04:36:42Z</time>
      </trkpt>
      <trkpt lat="43.50393" lon="5.88634">
        <ele>312</ele>
        <time>2016-07-17T04:36:45Z</time>
      </trkpt>
      <trkpt lat="43.50399" lon="5.8863">
        <ele>313</ele>
        <time>2016-07-17T04:36:48Z</time>
      </trkpt>
      <trkpt lat="43.50404" lon="5.88627">
        <ele>313</ele>
        <time>2016-07-17T04:36:51Z</time>
      </trkpt>
      <trkpt lat="43.5041" lon="5.88623">
        <ele>313</ele>
        <time>2016-07-17T04:36:54Z</time>
      </trkpt>
      <trkpt lat="43.50414" lon="5.8862">
        <ele>313</ele>
        <time>2016-07-17T04:36:56Z</time>
      </trkpt>
      <trkpt lat="43.5042" lon="5.88616">
        <ele>317</ele>
        <time>2016-07-17T04:36:59Z</time>
      </trkpt>
      <trkpt lat="43.50425" lon="5.88613">
        <ele>317</ele>
        <time>2016-07-17T04:37:02Z</time>
      </trkpt>
      <trkpt lat="43.50429" lon="5.8861">
        <ele>317</ele>
        <time>2016-07-17T04:37:04Z</time>
      </trkpt>
      <trkpt lat="43.50434" lon="5.88607">
        <ele>317</ele>
        <time>2016-07-17T04:37:07Z</time>
      </trkpt>
      <trkpt lat="43.50438" lon="5.88604">
        <ele>317</ele>
        <time>2016-07-17T04:37:09Z</time>
      </trkpt>
      <trkpt lat="43.50443" lon="5.88601">
        <ele>317</ele>
        <time>2016-07-17T04:37:12Z</time>
      </trkpt>
      <trkpt lat="43.50448" lon="5.88598">
        <ele>317</ele>
        <time>2016-07-17T04:37:15Z</time>
      </trkpt>
      <trkpt lat="43.50453" lon="5.88593">
        <ele>317</ele>
        <time>2016-07-17T04:37:18Z</time>
      </trkpt>
      <trkpt lat="43.50459" lon="5.8859">
        <ele>317</ele>
        <time>2016-07-17T04:37:21Z</time>
      </trkpt>
      <trkpt lat="43.50464" lon="5.88585">
        <ele>317</ele>
        <time>2016-07-17T04:37:24Z</time>
      </trkpt>
      <trkpt lat="43.50468" lon="5.88582">
        <ele>319</ele>
        <time>2016-07-17T04:37:26Z</time>
      </trkpt>
      <trkpt lat="43.50473" lon="5.8858">
        <ele>319</ele>
        <time>2016-07-17T04:37:28Z</time>
      </trkpt>
      <trkpt lat="43.50478" lon="5.88576">
        <ele>319</ele>
        <time>2016-07-17T04:37:31Z</time>
      </trkpt>
      <trkpt lat="43.50484" lon="5.88572">
        <ele>318</ele>
        <time>2016-07-17T04:37:34Z</time>
      </trkpt>
      <trkpt lat="43.50488" lon="5.88569">
        <ele>318</ele>
        <time>2016-07-17T04:37:36Z</time>
      </trkpt>
      <trkpt lat="43.50494" lon="5.88565">
        <ele>318</ele>
        <time>2016-07-17T04:37:39Z</time>
      </trkpt>
      <trkpt lat="43.50499" lon="5.88562">
        <ele>319</ele>
        <time>2016-07-17T04:37:41Z</time>
      </trkpt>
      <trkpt lat="43.50504" lon="5.88558">
        <ele>320</ele>
        <time>2016-07-17T04:37:44Z</time>
      </trkpt>
      <trkpt lat="43.5051" lon="5.88552">
        <ele>321</ele>
        <time>2016-07-17T04:37:47Z</time>
      </trkpt>
      <trkpt lat="43.50514" lon="5.88547">
        <ele>321</ele>
        <time>2016-07-17T04:37:50Z</time>
      </trkpt>
      <trkpt lat="43.50519" lon="5.88542">
        <ele>322</ele>
        <time>2016-07-17T04:37:53Z</time>
      </trkpt>
      <trkpt lat="43.50522" lon="5.88537">
        <ele>322</ele>
        <time>2016-07-17T04:37:55Z</time>
      </trkpt>
      <trkpt lat="43.50526" lon="5.88532">
        <ele>322</ele>
        <time>2016-07-17T04:37:57Z</time>
      </trkpt>
      <trkpt lat="43.50529" lon="5.88528">
        <ele>322</ele>
        <time>2016-07-17T04:37:59Z</time>
      </trkpt>
      <trkpt lat="43.50533" lon="5.88524">
        <ele>322</ele>
        <time>2016-07-17T04:38:01Z</time>
      </trkpt>
      <trkpt lat="43.50538" lon="5.88518">
        <ele>322</ele>
        <time>2016-07-17T04:38:04Z</time>
      </trkpt>
      <trkpt lat="43.50543" lon="5.88512">
        <ele>322</ele>
        <time>2016-07-17T04:38:07Z</time>
      </trkpt>
      <trkpt lat="43.50547" lon="5.88506">
        <ele>322</ele>
        <time>2016-07-17T04:38:09Z</time>
      </trkpt>
      <trkpt lat="43.5055" lon="5.88501">
        <ele>322</ele>
        <time>2016-07-17T04:38:11Z</time>
      </trkpt>
      <trkpt lat="43.50554" lon="5.88496">
        <ele>325</ele>
        <time>2016-07-17T04:38:13Z</time>
      </trkpt>
      <trkpt lat="43.50558" lon="5.88489">
        <ele>325</ele>
        <time>2016-07-17T04:38:16Z</time>
      </trkpt>
      <trkpt lat="43.50561" lon="5.88486">
        <ele>325</ele>
        <time>2016-07-17T04:38:18Z</time>
      </trkpt>
      <trkpt lat="43.50566" lon="5.88482">
        <ele>325</ele>
        <time>2016-07-17T04:38:20Z</time>
      </trkpt>
      <trkpt lat="43.5057" lon="5.88478">
        <ele>325</ele>
        <time>2016-07-17T04:38:22Z</time>
      </trkpt>
      <trkpt lat="43.50574" lon="5.88474">
        <ele>326</ele>
        <time>2016-07-17T04:38:24Z</time>
      </trkpt>
      <trkpt lat="43.50578" lon="5.8847">
        <ele>326</ele>
        <time>2016-07-17T04:38:26Z</time>
      </trkpt>
      <trkpt lat="43.50582" lon="5.88466">
        <ele>326</ele>
        <time>2016-07-17T04:38:28Z</time>
      </trkpt>
      <trkpt lat="43.50587" lon="5.88463">
        <ele>324</ele>
        <time>2016-07-17T04:38:30Z</time>
      </trkpt>
      <trkpt lat="43.50591" lon="5.8846">
        <ele>324</ele>
        <time>2016-07-17T04:38:32Z</time>
      </trkpt>
      <trkpt lat="43.50596" lon="5.88456">
        <ele>324</ele>
        <time>2016-07-17T04:38:35Z</time>
      </trkpt>
      <trkpt lat="43.50601" lon="5.88456">
        <ele>324</ele>
        <time>2016-07-17T04:38:38Z</time>
      </trkpt>
      <trkpt lat="43.50608" lon="5.88457">
        <ele>324</ele>
        <time>2016-07-17T04:38:41Z</time>
      </trkpt>
      <trkpt lat="43.50613" lon="5.88457">
        <ele>324</ele>
        <time>2016-07-17T04:38:43Z</time>
      </trkpt>
      <trkpt lat="43.50618" lon="5.88456">
        <ele>324</ele>
        <time>2016-07-17T04:38:45Z</time>
      </trkpt>
      <trkpt lat="43.50623" lon="5.88454">
        <ele>324</ele>
        <time>2016-07-17T04:38:47Z</time>
      </trkpt>
      <trkpt lat="43.50628" lon="5.8845">
        <ele>324</ele>
        <time>2016-07-17T04:38:49Z</time>
      </trkpt>
      <trkpt lat="43.50632" lon="5.88448">
        <ele>324</ele>
        <time>2016-07-17T04:38:51Z</time>
      </trkpt>
      <trkpt lat="43.50636" lon="5.88446">
        <ele>324</ele>
        <time>2016-07-17T04:38:53Z</time>
      </trkpt>
      <trkpt lat="43.50642" lon="5.88443">
        <ele>324</ele>
        <time>2016-07-17T04:38:56Z</time>
      </trkpt>
      <trkpt lat="43.50648" lon="5.88439">
        <ele>323</ele>
        <time>2016-07-17T04:38:59Z</time>
      </trkpt>
      <trkpt lat="43.50655" lon="5.88438">
        <ele>323</ele>
        <time>2016-07-17T04:39:01Z</time>
      </trkpt>
      <trkpt lat="43.5066" lon="5.88435">
        <ele>323</ele>
        <time>2016-07-17T04:39:03Z</time>
      </trkpt>
      <trkpt lat="43.50665" lon="5.88432">
        <ele>323</ele>
        <time>2016-07-17T04:39:05Z</time>
      </trkpt>
      <trkpt lat="43.5067" lon="5.88429">
        <ele>324</ele>
        <time>2016-07-17T04:39:07Z</time>
      </trkpt>
      <trkpt lat="43.50674" lon="5.88424">
        <ele>324</ele>
        <time>2016-07-17T04:39:09Z</time>
      </trkpt>
      <trkpt lat="43.50678" lon="5.88419">
        <ele>324</ele>
        <time>2016-07-17T04:39:11Z</time>
      </trkpt>
      <trkpt lat="43.50681" lon="5.88413">
        <ele>325</ele>
        <time>2016-07-17T04:39:13Z</time>
      </trkpt>
      <trkpt lat="43.50684" lon="5.88408">
        <ele>325</ele>
        <time>2016-07-17T04:39:15Z</time>
      </trkpt>
      <trkpt lat="43.50687" lon="5.88402">
        <ele>326</ele>
        <time>2016-07-17T04:39:17Z</time>
      </trkpt>
      <trkpt lat="43.5069" lon="5.88397">
        <ele>327</ele>
        <time>2016-07-17T04:39:19Z</time>
      </trkpt>
      <trkpt lat="43.50694" lon="5.88391">
        <ele>328</ele>
        <time>2016-07-17T04:39:21Z</time>
      </trkpt>
      <trkpt lat="43.50698" lon="5.88387">
        <ele>328</ele>
        <time>2016-07-17T04:39:23Z</time>
      </trkpt>
      <trkpt lat="43.50702" lon="5.88382">
        <ele>328</ele>
        <time>2016-07-17T04:39:25Z</time>
      </trkpt>
      <trkpt lat="43.50706" lon="5.88377">
        <ele>328</ele>
        <time>2016-07-17T04:39:27Z</time>
      </trkpt>
      <trkpt lat="43.50711" lon="5.88371">
        <ele>329</ele>
        <time>2016-07-17T04:39:29Z</time>
      </trkpt>
      <trkpt lat="43.50714" lon="5.88365">
        <ele>329</ele>
        <time>2016-07-17T04:39:31Z</time>
      </trkpt>
      <trkpt lat="43.50718" lon="5.8836">
        <ele>329</ele>
        <time>2016-07-17T04:39:33Z</time>
      </trkpt>
      <trkpt lat="43.50721" lon="5.88354">
        <ele>328</ele>
        <time>2016-07-17T04:39:35Z</time>
      </trkpt>
      <trkpt lat="43.50724" lon="5.88348">
        <ele>328</ele>
        <time>2016-07-17T04:39:37Z</time>
      </trkpt>
      <trkpt lat="43.50726" lon="5.88341">
        <ele>328</ele>
        <time>2016-07-17T04:39:39Z</time>
      </trkpt>
      <trkpt lat="43.50729" lon="5.88334">
        <ele>328</ele>
        <time>2016-07-17T04:39:41Z</time>
      </trkpt>
      <trkpt lat="43.50732" lon="5.88327">
        <ele>332</ele>
        <time>2016-07-17T04:39:43Z</time>
      </trkpt>
      <trkpt lat="43.50735" lon="5.88321">
        <ele>333</ele>
        <time>2016-07-17T04:39:45Z</time>
      </trkpt>
      <trkpt lat="43.50739" lon="5.88316">
        <ele>333</ele>
        <time>2016-07-17T04:39:47Z</time>
      </trkpt>
      <trkpt lat="43.50744" lon="5.88311">
        <ele>334</ele>
        <time>2016-07-17T04:39:49Z</time>
      </trkpt>
      <trkpt lat="43.50748" lon="5.88306">
        <ele>334</ele>
        <time>2016-07-17T04:39:51Z</time>
      </trkpt>
      <trkpt lat="43.50753" lon="5.88301">
        <ele>333</ele>
        <time>2016-07-17T04:39:53Z</time>
      </trkpt>
      <trkpt lat="43.50758" lon="5.88297">
        <ele>334</ele>
        <time>2016-07-17T04:39:55Z</time>
      </trkpt>
      <trkpt lat="43.50763" lon="5.88294">
        <ele>334</ele>
        <time>2016-07-17T04:39:57Z</time>
      </trkpt>
      <trkpt lat="43.50768" lon="5.88293">
        <ele>335</ele>
        <time>2016-07-17T04:39:59Z</time>
      </trkpt>
      <trkpt lat="43.50773" lon="5.88292">
        <ele>335</ele>
        <time>2016-07-17T04:40:01Z</time>
      </trkpt>
      <trkpt lat="43.50778" lon="5.88291">
        <ele>335</ele>
        <time>2016-07-17T04:40:03Z</time>
      </trkpt>
      <trkpt lat="43.50783" lon="5.88291">
        <ele>335</ele>
        <time>2016-07-17T04:40:05Z</time>
      </trkpt>
      <trkpt lat="43.50788" lon="5.88293">
        <ele>335</ele>
        <time>2016-07-17T04:40:07Z</time>
      </trkpt>
      <trkpt lat="43.50794" lon="5.88296">
        <ele>335</ele>
        <time>2016-07-17T04:40:09Z</time>
      </trkpt>
      <trkpt lat="43.508" lon="5.88299">
        <ele>335</ele>
        <time>2016-07-17T04:40:11Z</time>
      </trkpt>
      <trkpt lat="43.50805" lon="5.88304">
        <ele>335</ele>
        <time>2016-07-17T04:40:13Z</time>
      </trkpt>
      <trkpt lat="43.5081" lon="5.8831">
        <ele>334</ele>
        <time>2016-07-17T04:40:15Z</time>
      </trkpt>
      <trkpt lat="43.50814" lon="5.88315">
        <ele>334</ele>
        <time>2016-07-17T04:40:17Z</time>
      </trkpt>
      <trkpt lat="43.50816" lon="5.88322">
        <ele>333</ele>
        <time>2016-07-17T04:40:19Z</time>
      </trkpt>
      <trkpt lat="43.50818" lon="5.8833">
        <ele>333</ele>
        <time>2016-07-17T04:40:21Z</time>
      </trkpt>
      <trkpt lat="43.50819" lon="5.88337">
        <ele>330</ele>
        <time>2016-07-17T04:40:23Z</time>
      </trkpt>
      <trkpt lat="43.5082" lon="5.88344">
        <ele>330</ele>
        <time>2016-07-17T04:40:25Z</time>
      </trkpt>
      <trkpt lat="43.5082" lon="5.88351">
        <ele>329</ele>
        <time>2016-07-17T04:40:27Z</time>
      </trkpt>
      <trkpt lat="43.5082" lon="5.88358">
        <ele>329</ele>
        <time>2016-07-17T04:40:29Z</time>
      </trkpt>
      <trkpt lat="43.50819" lon="5.88365">
        <ele>329</ele>
        <time>2016-07-17T04:40:31Z</time>
      </trkpt>
      <trkpt lat="43.50818" lon="5.88372">
        <ele>329</ele>
        <time>2016-07-17T04:40:33Z</time>
      </trkpt>
      <trkpt lat="43.50818" lon="5.8838">
        <ele>329</ele>
        <time>2016-07-17T04:40:35Z</time>
      </trkpt>
      <trkpt lat="43.50818" lon="5.88387">
        <ele>329</ele>
        <time>2016-07-17T04:40:37Z</time>
      </trkpt>
      <trkpt lat="43.50821" lon="5.88395">
        <ele>329</ele>
        <time>2016-07-17T04:40:39Z</time>
      </trkpt>
      <trkpt lat="43.50824" lon="5.884">
        <ele>329</ele>
        <time>2016-07-17T04:40:41Z</time>
      </trkpt>
      <trkpt lat="43.50828" lon="5.88406">
        <ele>329</ele>
        <time>2016-07-17T04:40:44Z</time>
      </trkpt>
      <trkpt lat="43.50831" lon="5.8841">
        <ele>329</ele>
        <time>2016-07-17T04:40:46Z</time>
      </trkpt>
      <trkpt lat="43.50836" lon="5.88412">
        <ele>330</ele>
        <time>2016-07-17T04:40:48Z</time>
      </trkpt>
      <trkpt lat="43.50841" lon="5.88412">
        <ele>330</ele>
        <time>2016-07-17T04:40:50Z</time>
      </trkpt>
      <trkpt lat="43.50846" lon="5.88411">
        <ele>331</ele>
        <time>2016-07-17T04:40:52Z</time>
      </trkpt>
      <trkpt lat="43.50851" lon="5.88409">
        <ele>332</ele>
        <time>2016-07-17T04:40:54Z</time>
      </trkpt>
      <trkpt lat="43.50856" lon="5.88406">
        <ele>332</ele>
        <time>2016-07-17T04:40:56Z</time>
      </trkpt>
      <trkpt lat="43.50861" lon="5.88404">
        <ele>332</ele>
        <time>2016-07-17T04:40:58Z</time>
      </trkpt>
      <trkpt lat="43.50866" lon="5.88402">
        <ele>333</ele>
        <time>2016-07-17T04:41:00Z</time>
      </trkpt>
      <trkpt lat="43.50871" lon="5.88399">
        <ele>333</ele>
        <time>2016-07-17T04:41:02Z</time>
      </trkpt>
      <trkpt lat="43.50876" lon="5.88398">
        <ele>333</ele>
        <time>2016-07-17T04:41:04Z</time>
      </trkpt>
      <trkpt lat="43.50881" lon="5.88397">
        <ele>333</ele>
        <time>2016-07-17T04:41:06Z</time>
      </trkpt>
      <trkpt lat="43.50886" lon="5.88397">
        <ele>334</ele>
        <time>2016-07-17T04:41:08Z</time>
      </trkpt>
      <trkpt lat="43.50891" lon="5.88396">
        <ele>334</ele>
        <time>2016-07-17T04:41:10Z</time>
      </trkpt>
      <trkpt lat="43.50896" lon="5.88394">
        <ele>334</ele>
        <time>2016-07-17T04:41:12Z</time>
      </trkpt>
      <trkpt lat="43.50901" lon="5.88393">
        <ele>334</ele>
        <time>2016-07-17T04:41:14Z</time>
      </trkpt>
      <trkpt lat="43.50907" lon="5.88392">
        <ele>334</ele>
        <time>2016-07-17T04:41:16Z</time>
      </trkpt>
      <trkpt lat="43.50912" lon="5.88391">
        <ele>334</ele>
        <time>2016-07-17T04:41:18Z</time>
      </trkpt>
      <trkpt lat="43.50917" lon="5.8839">
        <ele>339</ele>
        <time>2016-07-17T04:41:20Z</time>
      </trkpt>
      <trkpt lat="43.50922" lon="5.88389">
        <ele>339</ele>
        <time>2016-07-17T04:41:22Z</time>
      </trkpt>
      <trkpt lat="43.50927" lon="5.88388">
        <ele>339</ele>
        <time>2016-07-17T04:41:24Z</time>
      </trkpt>
      <trkpt lat="43.50932" lon="5.88386">
        <ele>339</ele>
        <time>2016-07-17T04:41:26Z</time>
      </trkpt>
      <trkpt lat="43.50937" lon="5.88384">
        <ele>340</ele>
        <time>2016-07-17T04:41:28Z</time>
      </trkpt>
      <trkpt lat="43.50941" lon="5.88382">
        <ele>340</ele>
        <time>2016-07-17T04:41:30Z</time>
      </trkpt>
      <trkpt lat="43.50947" lon="5.88379">
        <ele>341</ele>
        <time>2016-07-17T04:41:32Z</time>
      </trkpt>
      <trkpt lat="43.50952" lon="5.88377">
        <ele>341</ele>
        <time>2016-07-17T04:41:34Z</time>
      </trkpt>
      <trkpt lat="43.50956" lon="5.88374">
        <ele>341</ele>
        <time>2016-07-17T04:41:36Z</time>
      </trkpt>
      <trkpt lat="43.5096" lon="5.88371">
        <ele>341</ele>
        <time>2016-07-17T04:41:38Z</time>
      </trkpt>
      <trkpt lat="43.50965" lon="5.88368">
        <ele>342</ele>
        <time>2016-07-17T04:41:40Z</time>
      </trkpt>
      <trkpt lat="43.50969" lon="5.88365">
        <ele>342</ele>
        <time>2016-07-17T04:41:42Z</time>
      </trkpt>
      <trkpt lat="43.50975" lon="5.88364">
        <ele>342</ele>
        <time>2016-07-17T04:41:45Z</time>
      </trkpt>
      <trkpt lat="43.5098" lon="5.88362">
        <ele>342</ele>
        <time>2016-07-17T04:41:48Z</time>
      </trkpt>
      <trkpt lat="43.50986" lon="5.8836">
        <ele>343</ele>
        <time>2016-07-17T04:41:51Z</time>
      </trkpt>
      <trkpt lat="43.50992" lon="5.88358">
        <ele>343</ele>
        <time>2016-07-17T04:41:54Z</time>
      </trkpt>
      <trkpt lat="43.50998" lon="5.88356">
        <ele>343</ele>
        <time>2016-07-17T04:41:57Z</time>
      </trkpt>
      <trkpt lat="43.51004" lon="5.88354">
        <ele>345</ele>
        <time>2016-07-17T04:42:00Z</time>
      </trkpt>
      <trkpt lat="43.5101" lon="5.88353">
        <ele>345</ele>
        <time>2016-07-17T04:42:03Z</time>
      </trkpt>
      <trkpt lat="43.51016" lon="5.88351">
        <ele>344</ele>
        <time>2016-07-17T04:42:06Z</time>
      </trkpt>
      <trkpt lat="43.51022" lon="5.88349">
        <ele>344</ele>
        <time>2016-07-17T04:42:09Z</time>
      </trkpt>
      <trkpt lat="43.51028" lon="5.88348">
        <ele>344</ele>
        <time>2016-07-17T04:42:12Z</time>
      </trkpt>
      <trkpt lat="43.51033" lon="5.88347">
        <ele>344</ele>
        <time>2016-07-17T04:42:14Z</time>
      </trkpt>
      <trkpt lat="43.51038" lon="5.88347">
        <ele>344</ele>
        <time>2016-07-17T04:42:16Z</time>
      </trkpt>
      <trkpt lat="43.51043" lon="5.88345">
        <ele>344</ele>
        <time>2016-07-17T04:42:18Z</time>
      </trkpt>
      <trkpt lat="43.51049" lon="5.88343">
        <ele>344</ele>
        <time>2016-07-17T04:42:21Z</time>
      </trkpt>
      <trkpt lat="43.51054" lon="5.88341">
        <ele>343</ele>
        <time>2016-07-17T04:42:23Z</time>
      </trkpt>
      <trkpt lat="43.51059" lon="5.88339">
        <ele>343</ele>
        <time>2016-07-17T04:42:25Z</time>
      </trkpt>
      <trkpt lat="43.51064" lon="5.88339">
        <ele>343</ele>
        <time>2016-07-17T04:42:27Z</time>
      </trkpt>
      <trkpt lat="43.51068" lon="5.88337">
        <ele>342</ele>
        <time>2016-07-17T04:42:29Z</time>
      </trkpt>
      <trkpt lat="43.51073" lon="5.88334">
        <ele>342</ele>
        <time>2016-07-17T04:42:31Z</time>
      </trkpt>
      <trkpt lat="43.5108" lon="5.88332">
        <ele>342</ele>
        <time>2016-07-17T04:42:34Z</time>
      </trkpt>
      <trkpt lat="43.51085" lon="5.8833">
        <ele>342</ele>
        <time>2016-07-17T04:42:36Z</time>
      </trkpt>
      <trkpt lat="43.5109" lon="5.88328">
        <ele>344</ele>
        <time>2016-07-17T04:42:38Z</time>
      </trkpt>
      <trkpt lat="43.51095" lon="5.88325">
        <ele>346</ele>
        <time>2016-07-17T04:42:40Z</time>
      </trkpt>
      <trkpt lat="43.51099" lon="5.88323">
        <ele>347</ele>
        <time>2016-07-17T04:42:42Z</time>
      </trkpt>
      <trkpt lat="43.51104" lon="5.88321">
        <ele>348</ele>
        <time>2016-07-17T04:42:44Z</time>
      </trkpt>
      <trkpt lat="43.51109" lon="5.88319">
        <ele>349</ele>
        <time>2016-07-17T04:42:46Z</time>
      </trkpt>
      <trkpt lat="43.51116" lon="5.88319">
        <ele>350</ele>
        <time>2016-07-17T04:42:48Z</time>
      </trkpt>
      <trkpt lat="43.51122" lon="5.88322">
        <ele>350</ele>
        <time>2016-07-17T04:42:50Z</time>
      </trkpt>
      <trkpt lat="43.51128" lon="5.88326">
        <ele>350</ele>
        <time>2016-07-17T04:42:52Z</time>
      </trkpt>
      <trkpt lat="43.51133" lon="5.8833">
        <ele>350</ele>
        <time>2016-07-17T04:42:54Z</time>
      </trkpt>
      <trkpt lat="43.51137" lon="5.88333">
        <ele>350</ele>
        <time>2016-07-17T04:42:56Z</time>
      </trkpt>
      <trkpt lat="43.51142" lon="5.88339">
        <ele>344</ele>
        <time>2016-07-17T04:42:58Z</time>
      </trkpt>
      <trkpt lat="43.51144" lon="5.88345">
        <ele>344</ele>
        <time>2016-07-17T04:43:00Z</time>
      </trkpt>
      <trkpt lat="43.51147" lon="5.88352">
        <ele>344</ele>
        <time>2016-07-17T04:43:02Z</time>
      </trkpt>
      <trkpt lat="43.51149" lon="5.88359">
        <ele>344</ele>
        <time>2016-07-17T04:43:04Z</time>
      </trkpt>
      <trkpt lat="43.5115" lon="5.88367">
        <ele>343</ele>
        <time>2016-07-17T04:43:06Z</time>
      </trkpt>
      <trkpt lat="43.51151" lon="5.88374">
        <ele>343</ele>
        <time>2016-07-17T04:43:08Z</time>
      </trkpt>
      <trkpt lat="43.51152" lon="5.88381">
        <ele>343</ele>
        <time>2016-07-17T04:43:10Z</time>
      </trkpt>
      <trkpt lat="43.51153" lon="5.88388">
        <ele>343</ele>
        <time>2016-07-17T04:43:12Z</time>
      </trkpt>
      <trkpt lat="43.51154" lon="5.88395">
        <ele>342</ele>
        <time>2016-07-17T04:43:14Z</time>
      </trkpt>
      <trkpt lat="43.51155" lon="5.88403">
        <ele>342</ele>
        <time>2016-07-17T04:43:16Z</time>
      </trkpt>
      <trkpt lat="43.51156" lon="5.88412">
        <ele>341</ele>
        <time>2016-07-17T04:43:18Z</time>
      </trkpt>
      <trkpt lat="43.5116" lon="5.8842">
        <ele>341</ele>
        <time>2016-07-17T04:43:20Z</time>
      </trkpt>
      <trkpt lat="43.51164" lon="5.88426">
        <ele>342</ele>
        <time>2016-07-17T04:43:22Z</time>
      </trkpt>
      <trkpt lat="43.51169" lon="5.88424">
        <ele>341</ele>
        <time>2016-07-17T04:43:25Z</time>
      </trkpt>
      <trkpt lat="43.51174" lon="5.88422">
        <ele>342</ele>
        <time>2016-07-17T04:43:27Z</time>
      </trkpt>
      <trkpt lat="43.5118" lon="5.88418">
        <ele>342</ele>
        <time>2016-07-17T04:43:30Z</time>
      </trkpt>
      <trkpt lat="43.51185" lon="5.88414">
        <ele>343</ele>
        <time>2016-07-17T04:43:33Z</time>
      </trkpt>
      <trkpt lat="43.51191" lon="5.88412">
        <ele>343</ele>
        <time>2016-07-17T04:43:36Z</time>
      </trkpt>
      <trkpt lat="43.51196" lon="5.8841">
        <ele>344</ele>
        <time>2016-07-17T04:43:39Z</time>
      </trkpt>
      <trkpt lat="43.51201" lon="5.8841">
        <ele>344</ele>
        <time>2016-07-17T04:43:41Z</time>
      </trkpt>
      <trkpt lat="43.51205" lon="5.8841">
        <ele>345</ele>
        <time>2016-07-17T04:43:43Z</time>
      </trkpt>
      <trkpt lat="43.5121" lon="5.88412">
        <ele>345</ele>
        <time>2016-07-17T04:43:45Z</time>
      </trkpt>
      <trkpt lat="43.51214" lon="5.88415">
        <ele>345</ele>
        <time>2016-07-17T04:43:47Z</time>
      </trkpt>
      <trkpt lat="43.51218" lon="5.88418">
        <ele>345</ele>
        <time>2016-07-17T04:43:49Z</time>
      </trkpt>
      <trkpt lat="43.51223" lon="5.8842">
        <ele>345</ele>
        <time>2016-07-17T04:43:51Z</time>
      </trkpt>
      <trkpt lat="43.51227" lon="5.88424">
        <ele>345</ele>
        <time>2016-07-17T04:43:53Z</time>
      </trkpt>
      <trkpt lat="43.51231" lon="5.88427">
        <ele>345</ele>
        <time>2016-07-17T04:43:55Z</time>
      </trkpt>
      <trkpt lat="43.51236" lon="5.88432">
        <ele>346</ele>
        <time>2016-07-17T04:43:58Z</time>
      </trkpt>
      <trkpt lat="43.51242" lon="5.88435">
        <ele>346</ele>
        <time>2016-07-17T04:44:01Z</time>
      </trkpt>
      <trkpt lat="43.51248" lon="5.88435">
        <ele>346</ele>
        <time>2016-07-17T04:44:04Z</time>
      </trkpt>
      <trkpt lat="43.51252" lon="5.88431">
        <ele>349</ele>
        <time>2016-07-17T04:44:07Z</time>
      </trkpt>
      <trkpt lat="43.51256" lon="5.88424">
        <ele>348</ele>
        <time>2016-07-17T04:44:10Z</time>
      </trkpt>
      <trkpt lat="43.51259" lon="5.88419">
        <ele>348</ele>
        <time>2016-07-17T04:44:12Z</time>
      </trkpt>
      <trkpt lat="43.51263" lon="5.88413">
        <ele>349</ele>
        <time>2016-07-17T04:44:14Z</time>
      </trkpt>
      <trkpt lat="43.51267" lon="5.88406">
        <ele>350</ele>
        <time>2016-07-17T04:44:16Z</time>
      </trkpt>
      <trkpt lat="43.51273" lon="5.88398">
        <ele>352</ele>
        <time>2016-07-17T04:44:18Z</time>
      </trkpt>
      <trkpt lat="43.51278" lon="5.88392">
        <ele>353</ele>
        <time>2016-07-17T04:44:20Z</time>
      </trkpt>
      <trkpt lat="43.51281" lon="5.88386">
        <ele>353</ele>
        <time>2016-07-17T04:44:22Z</time>
      </trkpt>
      <trkpt lat="43.51283" lon="5.8838">
        <ele>354</ele>
        <time>2016-07-17T04:44:24Z</time>
      </trkpt>
      <trkpt lat="43.51284" lon="5.88372">
        <ele>354</ele>
        <time>2016-07-17T04:44:26Z</time>
      </trkpt>
      <trkpt lat="43.51285" lon="5.88365">
        <ele>354</ele>
        <time>2016-07-17T04:44:28Z</time>
      </trkpt>
      <trkpt lat="43.51288" lon="5.88357">
        <ele>354</ele>
        <time>2016-07-17T04:44:31Z</time>
      </trkpt>
      <trkpt lat="43.51291" lon="5.8835">
        <ele>355</ele>
        <time>2016-07-17T04:44:33Z</time>
      </trkpt>
      <trkpt lat="43.51294" lon="5.88343">
        <ele>355</ele>
        <time>2016-07-17T04:44:35Z</time>
      </trkpt>
      <trkpt lat="43.51298" lon="5.88335">
        <ele>355</ele>
        <time>2016-07-17T04:44:37Z</time>
      </trkpt>
      <trkpt lat="43.513" lon="5.88328">
        <ele>359</ele>
        <time>2016-07-17T04:44:39Z</time>
      </trkpt>
      <trkpt lat="43.51302" lon="5.88322">
        <ele>359</ele>
        <time>2016-07-17T04:44:41Z</time>
      </trkpt>
      <trkpt lat="43.51306" lon="5.88315">
        <ele>359</ele>
        <time>2016-07-17T04:44:44Z</time>
      </trkpt>
      <trkpt lat="43.5131" lon="5.88311">
        <ele>360</ele>
        <time>2016-07-17T04:44:46Z</time>
      </trkpt>
      <trkpt lat="43.51314" lon="5.88308">
        <ele>360</ele>
        <time>2016-07-17T04:44:48Z</time>
      </trkpt>
      <trkpt lat="43.51319" lon="5.88303">
        <ele>360</ele>
        <time>2016-07-17T04:44:51Z</time>
      </trkpt>
      <trkpt lat="43.51323" lon="5.88299">
        <ele>360</ele>
        <time>2016-07-17T04:44:53Z</time>
      </trkpt>
      <trkpt lat="43.51328" lon="5.88297">
        <ele>360</ele>
        <time>2016-07-17T04:44:55Z</time>
      </trkpt>
      <trkpt lat="43.51334" lon="5.88293">
        <ele>359</ele>
        <time>2016-07-17T04:44:58Z</time>
      </trkpt>
      <trkpt lat="43.51339" lon="5.88292">
        <ele>359</ele>
        <time>2016-07-17T04:45:00Z</time>
      </trkpt>
      <trkpt lat="43.51346" lon="5.88291">
        <ele>359</ele>
        <time>2016-07-17T04:45:03Z</time>
      </trkpt>
      <trkpt lat="43.5135" lon="5.88289">
        <ele>360</ele>
        <time>2016-07-17T04:45:05Z</time>
      </trkpt>
      <trkpt lat="43.51355" lon="5.88289">
        <ele>360</ele>
        <time>2016-07-17T04:45:07Z</time>
      </trkpt>
      <trkpt lat="43.5136" lon="5.8829">
        <ele>360</ele>
        <time>2016-07-17T04:45:09Z</time>
      </trkpt>
      <trkpt lat="43.51366" lon="5.88293">
        <ele>360</ele>
        <time>2016-07-17T04:45:11Z</time>
      </trkpt>
      <trkpt lat="43.51372" lon="5.88297">
        <ele>359</ele>
        <time>2016-07-17T04:45:13Z</time>
      </trkpt>
      <trkpt lat="43.51377" lon="5.88301">
        <ele>359</ele>
        <time>2016-07-17T04:45:15Z</time>
      </trkpt>
      <trkpt lat="43.51382" lon="5.88306">
        <ele>359</ele>
        <time>2016-07-17T04:45:17Z</time>
      </trkpt>
      <trkpt lat="43.51386" lon="5.88311">
        <ele>359</ele>
        <time>2016-07-17T04:45:19Z</time>
      </trkpt>
      <trkpt lat="43.51391" lon="5.88317">
        <ele>358</ele>
        <time>2016-07-17T04:45:21Z</time>
      </trkpt>
      <trkpt lat="43.51396" lon="5.88322">
        <ele>358</ele>
        <time>2016-07-17T04:45:23Z</time>
      </trkpt>
      <trkpt lat="43.514" lon="5.88328">
        <ele>357</ele>
        <time>2016-07-17T04:45:25Z</time>
      </trkpt>
      <trkpt lat="43.51404" lon="5.88332">
        <ele>357</ele>
        <time>2016-07-17T04:45:27Z</time>
      </trkpt>
      <trkpt lat="43.51409" lon="5.88338">
        <ele>357</ele>
        <time>2016-07-17T04:45:29Z</time>
      </trkpt>
      <trkpt lat="43.51413" lon="5.88344">
        <ele>357</ele>
        <time>2016-07-17T04:45:31Z</time>
      </trkpt>
      <trkpt lat="43.51417" lon="5.88348">
        <ele>360</ele>
        <time>2016-07-17T04:45:33Z</time>
      </trkpt>
      <trkpt lat="43.51422" lon="5.88353">
        <ele>361</ele>
        <time>2016-07-17T04:45:35Z</time>
      </trkpt>
      <trkpt lat="43.51427" lon="5.88356">
        <ele>362</ele>
        <time>2016-07-17T04:45:37Z</time>
      </trkpt>
      <trkpt lat="43.51432" lon="5.8836">
        <ele>363</ele>
        <time>2016-07-17T04:45:39Z</time>
      </trkpt>
      <trkpt lat="43.51437" lon="5.88362">
        <ele>363</ele>
        <time>2016-07-17T04:45:41Z</time>
      </trkpt>
      <trkpt lat="43.51442" lon="5.88362">
        <ele>363</ele>
        <time>2016-07-17T04:45:43Z</time>
      </trkpt>
      <trkpt lat="43.51448" lon="5.88361">
        <ele>364</ele>
        <time>2016-07-17T04:45:45Z</time>
      </trkpt>
      <trkpt lat="43.51453" lon="5.88358">
        <ele>363</ele>
        <time>2016-07-17T04:45:47Z</time>
      </trkpt>
      <trkpt lat="43.51458" lon="5.88355">
        <ele>363</ele>
        <time>2016-07-17T04:45:49Z</time>
      </trkpt>
      <trkpt lat="43.51463" lon="5.88351">
        <ele>363</ele>
        <time>2016-07-17T04:45:51Z</time>
      </trkpt>
      <trkpt lat="43.51467" lon="5.88347">
        <ele>363</ele>
        <time>2016-07-17T04:45:53Z</time>
      </trkpt>
      <trkpt lat="43.51471" lon="5.88343">
        <ele>363</ele>
        <time>2016-07-17T04:45:55Z</time>
      </trkpt>
      <trkpt lat="43.51475" lon="5.88338">
        <ele>362</ele>
        <time>2016-07-17T04:45:57Z</time>
      </trkpt>
      <trkpt lat="43.51479" lon="5.88334">
        <ele>362</ele>
        <time>2016-07-17T04:45:59Z</time>
      </trkpt>
      <trkpt lat="43.51483" lon="5.88328">
        <ele>361</ele>
        <time>2016-07-17T04:46:01Z</time>
      </trkpt>
      <trkpt lat="43.51486" lon="5.88323">
        <ele>361</ele>
        <time>2016-07-17T04:46:03Z</time>
      </trkpt>
      <trkpt lat="43.5149" lon="5.88317">
        <ele>361</ele>
        <time>2016-07-17T04:46:05Z</time>
      </trkpt>
      <trkpt lat="43.51493" lon="5.88313">
        <ele>362</ele>
        <time>2016-07-17T04:46:07Z</time>
      </trkpt>
      <trkpt lat="43.51497" lon="5.88308">
        <ele>362</ele>
        <time>2016-07-17T04:46:09Z</time>
      </trkpt>
      <trkpt lat="43.515" lon="5.88303">
        <ele>363</ele>
        <time>2016-07-17T04:46:11Z</time>
      </trkpt>
      <trkpt lat="43.51504" lon="5.88298">
        <ele>364</ele>
        <time>2016-07-17T04:46:13Z</time>
      </trkpt>
      <trkpt lat="43.51508" lon="5.88293">
        <ele>364</ele>
        <time>2016-07-17T04:46:15Z</time>
      </trkpt>
      <trkpt lat="43.51513" lon="5.88289">
        <ele>365</ele>
        <time>2016-07-17T04:46:17Z</time>
      </trkpt>
      <trkpt lat="43.51517" lon="5.88286">
        <ele>365</ele>
        <time>2016-07-17T04:46:19Z</time>
      </trkpt>
      <trkpt lat="43.51521" lon="5.88282">
        <ele>365</ele>
        <time>2016-07-17T04:46:21Z</time>
      </trkpt>
      <trkpt lat="43.51525" lon="5.88278">
        <ele>365</ele>
        <time>2016-07-17T04:46:23Z</time>
      </trkpt>
      <trkpt lat="43.51528" lon="5.88273">
        <ele>366</ele>
        <time>2016-07-17T04:46:25Z</time>
      </trkpt>
      <trkpt lat="43.51532" lon="5.88269">
        <ele>366</ele>
        <time>2016-07-17T04:46:27Z</time>
      </trkpt>
      <trkpt lat="43.51536" lon="5.88265">
        <ele>366</ele>
        <time>2016-07-17T04:46:29Z</time>
      </trkpt>
      <trkpt lat="43.51541" lon="5.8826">
        <ele>366</ele>
        <time>2016-07-17T04:46:32Z</time>
      </trkpt>
      <trkpt lat="43.51547" lon="5.88258">
        <ele>365</ele>
        <time>2016-07-17T04:46:35Z</time>
      </trkpt>
      <trkpt lat="43.51552" lon="5.88259">
        <ele>365</ele>
        <time>2016-07-17T04:46:37Z</time>
      </trkpt>
      <trkpt lat="43.51556" lon="5.88261">
        <ele>365</ele>
        <time>2016-07-17T04:46:39Z</time>
      </trkpt>
      <trkpt lat="43.51561" lon="5.88264">
        <ele>365</ele>
        <time>2016-07-17T04:46:41Z</time>
      </trkpt>
      <trkpt lat="43.51566" lon="5.88267">
        <ele>365</ele>
        <time>2016-07-17T04:46:43Z</time>
      </trkpt>
      <trkpt lat="43.5157" lon="5.88273">
        <ele>365</ele>
        <time>2016-07-17T04:46:45Z</time>
      </trkpt>
      <trkpt lat="43.51573" lon="5.88278">
        <ele>364</ele>
        <time>2016-07-17T04:46:47Z</time>
      </trkpt>
      <trkpt lat="43.51577" lon="5.88285">
        <ele>364</ele>
        <time>2016-07-17T04:46:49Z</time>
      </trkpt>
      <trkpt lat="43.5158" lon="5.88291">
        <ele>364</ele>
        <time>2016-07-17T04:46:51Z</time>
      </trkpt>
      <trkpt lat="43.51583" lon="5.88297">
        <ele>364</ele>
        <time>2016-07-17T04:46:53Z</time>
      </trkpt>
      <trkpt lat="43.51587" lon="5.88303">
        <ele>364</ele>
        <time>2016-07-17T04:46:55Z</time>
      </trkpt>
      <trkpt lat="43.51589" lon="5.88309">
        <ele>364</ele>
        <time>2016-07-17T04:46:57Z</time>
      </trkpt>
      <trkpt lat="43.51592" lon="5.88316">
        <ele>363</ele>
        <time>2016-07-17T04:46:59Z</time>
      </trkpt>
      <trkpt lat="43.51595" lon="5.88322">
        <ele>363</ele>
        <time>2016-07-17T04:47:01Z</time>
      </trkpt>
      <trkpt lat="43.51598" lon="5.88328">
        <ele>363</ele>
        <time>2016-07-17T04:47:03Z</time>
      </trkpt>
      <trkpt lat="43.51601" lon="5.88334">
        <ele>367</ele>
        <time>2016-07-17T04:47:05Z</time>
      </trkpt>
      <trkpt lat="43.51604" lon="5.8834">
        <ele>368</ele>
        <time>2016-07-17T04:47:07Z</time>
      </trkpt>
      <trkpt lat="43.51608" lon="5.88344">
        <ele>368</ele>
        <time>2016-07-17T04:47:09Z</time>
      </trkpt>
      <trkpt lat="43.51613" lon="5.88349">
        <ele>369</ele>
        <time>2016-07-17T04:47:11Z</time>
      </trkpt>
      <trkpt lat="43.51618" lon="5.8835">
        <ele>369</ele>
        <time>2016-07-17T04:47:13Z</time>
      </trkpt>
      <trkpt lat="43.51622" lon="5.8835">
        <ele>370</ele>
        <time>2016-07-17T04:47:15Z</time>
      </trkpt>
      <trkpt lat="43.51627" lon="5.88348">
        <ele>370</ele>
        <time>2016-07-17T04:47:17Z</time>
      </trkpt>
      <trkpt lat="43.51632" lon="5.88344">
        <ele>369</ele>
        <time>2016-07-17T04:47:19Z</time>
      </trkpt>
      <trkpt lat="43.51636" lon="5.88341">
        <ele>369</ele>
        <time>2016-07-17T04:47:21Z</time>
      </trkpt>
      <trkpt lat="43.51641" lon="5.88338">
        <ele>369</ele>
        <time>2016-07-17T04:47:23Z</time>
      </trkpt>
      <trkpt lat="43.51644" lon="5.88333">
        <ele>365</ele>
        <time>2016-07-17T04:47:25Z</time>
      </trkpt>
      <trkpt lat="43.51648" lon="5.88328">
        <ele>365</ele>
        <time>2016-07-17T04:47:27Z</time>
      </trkpt>
      <trkpt lat="43.51651" lon="5.88322">
        <ele>365</ele>
        <time>2016-07-17T04:47:29Z</time>
      </trkpt>
      <trkpt lat="43.51653" lon="5.88316">
        <ele>365</ele>
        <time>2016-07-17T04:47:31Z</time>
      </trkpt>
      <trkpt lat="43.51656" lon="5.8831">
        <ele>365</ele>
        <time>2016-07-17T04:47:33Z</time>
      </trkpt>
      <trkpt lat="43.51658" lon="5.88304">
        <ele>365</ele>
        <time>2016-07-17T04:47:35Z</time>
      </trkpt>
      <trkpt lat="43.51661" lon="5.88299">
        <ele>365</ele>
        <time>2016-07-17T04:47:37Z</time>
      </trkpt>
      <trkpt lat="43.51664" lon="5.88293">
        <ele>365</ele>
        <time>2016-07-17T04:47:39Z</time>
      </trkpt>
      <trkpt lat="43.51668" lon="5.88288">
        <ele>367</ele>
        <time>2016-07-17T04:47:41Z</time>
      </trkpt>
      <trkpt lat="43.51672" lon="5.88283">
        <ele>368</ele>
        <time>2016-07-17T04:47:43Z</time>
      </trkpt>
      <trkpt lat="43.51676" lon="5.88278">
        <ele>368</ele>
        <time>2016-07-17T04:47:45Z</time>
      </trkpt>
      <trkpt lat="43.5168" lon="5.88274">
        <ele>368</ele>
        <time>2016-07-17T04:47:47Z</time>
      </trkpt>
      <trkpt lat="43.51684" lon="5.88269">
        <ele>368</ele>
        <time>2016-07-17T04:47:49Z</time>
      </trkpt>
      <trkpt lat="43.51688" lon="5.88266">
        <ele>368</ele>
        <time>2016-07-17T04:47:51Z</time>
      </trkpt>
      <trkpt lat="43.51694" lon="5.88263">
        <ele>368</ele>
        <time>2016-07-17T04:47:54Z</time>
      </trkpt>
      <trkpt lat="43.51701" lon="5.88264">
        <ele>368</ele>
        <time>2016-07-17T04:47:57Z</time>
      </trkpt>
      <trkpt lat="43.51706" lon="5.88267">
        <ele>368</ele>
        <time>2016-07-17T04:47:59Z</time>
      </trkpt>
      <trkpt lat="43.5171" lon="5.88271">
        <ele>368</ele>
        <time>2016-07-17T04:48:01Z</time>
      </trkpt>
      <trkpt lat="43.51715" lon="5.88275">
        <ele>368</ele>
        <time>2016-07-17T04:48:03Z</time>
      </trkpt>
      <trkpt lat="43.51719" lon="5.88279">
        <ele>368</ele>
        <time>2016-07-17T04:48:05Z</time>
      </trkpt>
      <trkpt lat="43.51724" lon="5.88284">
        <ele>369</ele>
        <time>2016-07-17T04:48:07Z</time>
      </trkpt>
      <trkpt lat="43.51729" lon="5.88289">
        <ele>369</ele>
        <time>2016-07-17T04:48:09Z</time>
      </trkpt>
      <trkpt lat="43.51733" lon="5.88294">
        <ele>369</ele>
        <time>2016-07-17T04:48:11Z</time>
      </trkpt>
      <trkpt lat="43.51738" lon="5.88299">
        <ele>369</ele>
        <time>2016-07-17T04:48:13Z</time>
      </trkpt>
      <trkpt lat="43.51743" lon="5.88303">
        <ele>369</ele>
        <time>2016-07-17T04:48:15Z</time>
      </trkpt>
      <trkpt lat="43.51748" lon="5.88305">
        <ele>370</ele>
        <time>2016-07-17T04:48:17Z</time>
      </trkpt>
      <trkpt lat="43.51752" lon="5.88302">
        <ele>373</ele>
        <time>2016-07-17T04:48:19Z</time>
      </trkpt>
      <trkpt lat="43.51756" lon="5.88296">
        <ele>373</ele>
        <time>2016-07-17T04:48:21Z</time>
      </trkpt>
      <trkpt lat="43.5176" lon="5.88291">
        <ele>373</ele>
        <time>2016-07-17T04:48:23Z</time>
      </trkpt>
      <trkpt lat="43.51764" lon="5.88287">
        <ele>373</ele>
        <time>2016-07-17T04:48:25Z</time>
      </trkpt>
      <trkpt lat="43.51767" lon="5.88283">
        <ele>373</ele>
        <time>2016-07-17T04:48:27Z</time>
      </trkpt>
      <trkpt lat="43.51772" lon="5.88276">
        <ele>373</ele>
        <time>2016-07-17T04:48:30Z</time>
      </trkpt>
      <trkpt lat="43.51775" lon="5.88271">
        <ele>373</ele>
        <time>2016-07-17T04:48:32Z</time>
      </trkpt>
      <trkpt lat="43.51778" lon="5.88266">
        <ele>373</ele>
        <time>2016-07-17T04:48:34Z</time>
      </trkpt>
      <trkpt lat="43.51781" lon="5.88261">
        <ele>373</ele>
        <time>2016-07-17T04:48:36Z</time>
      </trkpt>
      <trkpt lat="43.51785" lon="5.88256">
        <ele>373</ele>
        <time>2016-07-17T04:48:38Z</time>
      </trkpt>
      <trkpt lat="43.51789" lon="5.88251">
        <ele>373</ele>
        <time>2016-07-17T04:48:40Z</time>
      </trkpt>
      <trkpt lat="43.51794" lon="5.88245">
        <ele>373</ele>
        <time>2016-07-17T04:48:43Z</time>
      </trkpt>
      <trkpt lat="43.51798" lon="5.88242">
        <ele>373</ele>
        <time>2016-07-17T04:48:45Z</time>
      </trkpt>
      <trkpt lat="43.51804" lon="5.88236">
        <ele>373</ele>
        <time>2016-07-17T04:48:48Z</time>
      </trkpt>
      <trkpt lat="43.51808" lon="5.8823">
        <ele>373</ele>
        <time>2016-07-17T04:48:51Z</time>
      </trkpt>
      <trkpt lat="43.51812" lon="5.88225">
        <ele>373</ele>
        <time>2016-07-17T04:48:53Z</time>
      </trkpt>
      <trkpt lat="43.51817" lon="5.88222">
        <ele>374</ele>
        <time>2016-07-17T04:48:55Z</time>
      </trkpt>
      <trkpt lat="43.51821" lon="5.88218">
        <ele>374</ele>
        <time>2016-07-17T04:48:57Z</time>
      </trkpt>
      <trkpt lat="43.51824" lon="5.88214">
        <ele>374</ele>
        <time>2016-07-17T04:48:59Z</time>
      </trkpt>
      <trkpt lat="43.51828" lon="5.8821">
        <ele>375</ele>
        <time>2016-07-17T04:49:01Z</time>
      </trkpt>
      <trkpt lat="43.51834" lon="5.88207">
        <ele>377</ele>
        <time>2016-07-17T04:49:03Z</time>
      </trkpt>
      <trkpt lat="43.51838" lon="5.88204">
        <ele>377</ele>
        <time>2016-07-17T04:49:05Z</time>
      </trkpt>
      <trkpt lat="43.51845" lon="5.88202">
        <ele>377</ele>
        <time>2016-07-17T04:49:08Z</time>
      </trkpt>
      <trkpt lat="43.5185" lon="5.88201">
        <ele>377</ele>
        <time>2016-07-17T04:49:10Z</time>
      </trkpt>
      <trkpt lat="43.51858" lon="5.882">
        <ele>377</ele>
        <time>2016-07-17T04:49:13Z</time>
      </trkpt>
      <trkpt lat="43.51863" lon="5.88199">
        <ele>377</ele>
        <time>2016-07-17T04:49:15Z</time>
      </trkpt>
      <trkpt lat="43.51869" lon="5.88198">
        <ele>377</ele>
        <time>2016-07-17T04:49:17Z</time>
      </trkpt>
      <trkpt lat="43.51874" lon="5.88197">
        <ele>377</ele>
        <time>2016-07-17T04:49:19Z</time>
      </trkpt>
      <trkpt lat="43.51879" lon="5.88196">
        <ele>377</ele>
        <time>2016-07-17T04:49:21Z</time>
      </trkpt>
      <trkpt lat="43.51884" lon="5.88196">
        <ele>378</ele>
        <time>2016-07-17T04:49:23Z</time>
      </trkpt>
      <trkpt lat="43.51889" lon="5.88196">
        <ele>378</ele>
        <time>2016-07-17T04:49:25Z</time>
      </trkpt>
      <trkpt lat="43.51894" lon="5.88195">
        <ele>378</ele>
        <time>2016-07-17T04:49:27Z</time>
      </trkpt>
      <trkpt lat="43.51901" lon="5.88192">
        <ele>378</ele>
        <time>2016-07-17T04:49:30Z</time>
      </trkpt>
      <trkpt lat="43.51907" lon="5.8819">
        <ele>378</ele>
        <time>2016-07-17T04:49:33Z</time>
      </trkpt>
      <trkpt lat="43.51913" lon="5.88187">
        <ele>378</ele>
        <time>2016-07-17T04:49:36Z</time>
      </trkpt>
      <trkpt lat="43.51918" lon="5.88185">
        <ele>379</ele>
        <time>2016-07-17T04:49:38Z</time>
      </trkpt>
      <trkpt lat="43.51923" lon="5.88184">
        <ele>379</ele>
        <time>2016-07-17T04:49:40Z</time>
      </trkpt>
      <trkpt lat="43.51929" lon="5.88183">
        <ele>379</ele>
        <time>2016-07-17T04:49:42Z</time>
      </trkpt>
      <trkpt lat="43.51935" lon="5.88185">
        <ele>380</ele>
        <time>2016-07-17T04:49:44Z</time>
      </trkpt>
      <trkpt lat="43.51941" lon="5.88187">
        <ele>380</ele>
        <time>2016-07-17T04:49:46Z</time>
      </trkpt>
      <trkpt lat="43.51947" lon="5.8819">
        <ele>380</ele>
        <time>2016-07-17T04:49:48Z</time>
      </trkpt>
      <trkpt lat="43.51953" lon="5.88194">
        <ele>381</ele>
        <time>2016-07-17T04:49:50Z</time>
      </trkpt>
      <trkpt lat="43.51958" lon="5.88199">
        <ele>381</ele>
        <time>2016-07-17T04:49:52Z</time>
      </trkpt>
      <trkpt lat="43.51963" lon="5.88204">
        <ele>381</ele>
        <time>2016-07-17T04:49:54Z</time>
      </trkpt>
      <trkpt lat="43.51968" lon="5.88209">
        <ele>381</ele>
        <time>2016-07-17T04:49:56Z</time>
      </trkpt>
      <trkpt lat="43.51972" lon="5.88215">
        <ele>381</ele>
        <time>2016-07-17T04:49:58Z</time>
      </trkpt>
      <trkpt lat="43.51977" lon="5.8822">
        <ele>381</ele>
        <time>2016-07-17T04:50:00Z</time>
      </trkpt>
      <trkpt lat="43.51981" lon="5.88226">
        <ele>381</ele>
        <time>2016-07-17T04:50:02Z</time>
      </trkpt>
      <trkpt lat="43.51986" lon="5.8823">
        <ele>382</ele>
        <time>2016-07-17T04:50:04Z</time>
      </trkpt>
      <trkpt lat="43.51991" lon="5.88232">
        <ele>382</ele>
        <time>2016-07-17T04:50:06Z</time>
      </trkpt>
      <trkpt lat="43.51997" lon="5.88231">
        <ele>382</ele>
        <time>2016-07-17T04:50:08Z</time>
      </trkpt>
      <trkpt lat="43.52002" lon="5.88229">
        <ele>384</ele>
        <time>2016-07-17T04:50:10Z</time>
      </trkpt>
      <trkpt lat="43.52007" lon="5.88226">
        <ele>384</ele>
        <time>2016-07-17T04:50:12Z</time>
      </trkpt>
      <trkpt lat="43.52013" lon="5.88223">
        <ele>384</ele>
        <time>2016-07-17T04:50:14Z</time>
      </trkpt>
      <trkpt lat="43.52017" lon="5.88221">
        <ele>385</ele>
        <time>2016-07-17T04:50:16Z</time>
      </trkpt>
      <trkpt lat="43.52022" lon="5.88219">
        <ele>385</ele>
        <time>2016-07-17T04:50:18Z</time>
      </trkpt>
      <trkpt lat="43.52027" lon="5.88217">
        <ele>385</ele>
        <time>2016-07-17T04:50:20Z</time>
      </trkpt>
      <trkpt lat="43.52031" lon="5.88215">
        <ele>385</ele>
        <time>2016-07-17T04:50:22Z</time>
      </trkpt>
      <trkpt lat="43.52037" lon="5.88212">
        <ele>385</ele>
        <time>2016-07-17T04:50:24Z</time>
      </trkpt>
      <trkpt lat="43.52042" lon="5.88209">
        <ele>386</ele>
        <time>2016-07-17T04:50:26Z</time>
      </trkpt>
      <trkpt lat="43.52047" lon="5.88206">
        <ele>386</ele>
        <time>2016-07-17T04:50:28Z</time>
      </trkpt>
      <trkpt lat="43.52051" lon="5.88203">
        <ele>386</ele>
        <time>2016-07-17T04:50:30Z</time>
      </trkpt>
      <trkpt lat="43.52057" lon="5.88199">
        <ele>386</ele>
        <time>2016-07-17T04:50:32Z</time>
      </trkpt>
      <trkpt lat="43.52061" lon="5.88195">
        <ele>386</ele>
        <time>2016-07-17T04:50:34Z</time>
      </trkpt>
      <trkpt lat="43.52067" lon="5.88192">
        <ele>386</ele>
        <time>2016-07-17T04:50:36Z</time>
      </trkpt>
      <trkpt lat="43.52072" lon="5.88188">
        <ele>386</ele>
        <time>2016-07-17T04:50:38Z</time>
      </trkpt>
      <trkpt lat="43.52077" lon="5.88184">
        <ele>386</ele>
        <time>2016-07-17T04:50:40Z</time>
      </trkpt>
      <trkpt lat="43.52081" lon="5.88181">
        <ele>387</ele>
        <time>2016-07-17T04:50:42Z</time>
      </trkpt>
      <trkpt lat="43.52086" lon="5.88177">
        <ele>388</ele>
        <time>2016-07-17T04:50:44Z</time>
      </trkpt>
      <trkpt lat="43.52092" lon="5.88173">
        <ele>388</ele>
        <time>2016-07-17T04:50:46Z</time>
      </trkpt>
      <trkpt lat="43.52097" lon="5.88169">
        <ele>388</ele>
        <time>2016-07-17T04:50:48Z</time>
      </trkpt>
      <trkpt lat="43.52101" lon="5.88167">
        <ele>388</ele>
        <time>2016-07-17T04:50:50Z</time>
      </trkpt>
      <trkpt lat="43.52105" lon="5.88164">
        <ele>389</ele>
        <time>2016-07-17T04:50:52Z</time>
      </trkpt>
      <trkpt lat="43.5211" lon="5.88161">
        <ele>389</ele>
        <time>2016-07-17T04:50:54Z</time>
      </trkpt>
      <trkpt lat="43.52115" lon="5.88158">
        <ele>389</ele>
        <time>2016-07-17T04:50:56Z</time>
      </trkpt>
      <trkpt lat="43.5212" lon="5.88157">
        <ele>389</ele>
        <time>2016-07-17T04:50:58Z</time>
      </trkpt>
      <trkpt lat="43.52127" lon="5.88158">
        <ele>389</ele>
        <time>2016-07-17T04:51:00Z</time>
      </trkpt>
      <trkpt lat="43.52133" lon="5.88159">
        <ele>389</ele>
        <time>2016-07-17T04:51:01Z</time>
      </trkpt>
      <trkpt lat="43.52139" lon="5.88162">
        <ele>388</ele>
        <time>2016-07-17T04:51:03Z</time>
      </trkpt>
      <trkpt lat="43.52146" lon="5.88165">
        <ele>387</ele>
        <time>2016-07-17T04:51:05Z</time>
      </trkpt>
      <trkpt lat="43.52153" lon="5.88169">
        <ele>386</ele>
        <time>2016-07-17T04:51:07Z</time>
      </trkpt>
      <trkpt lat="43.52159" lon="5.88172">
        <ele>386</ele>
        <time>2016-07-17T04:51:09Z</time>
      </trkpt>
      <trkpt lat="43.52166" lon="5.88173">
        <ele>385</ele>
        <time>2016-07-17T04:51:11Z</time>
      </trkpt>
      <trkpt lat="43.52172" lon="5.88172">
        <ele>387</ele>
        <time>2016-07-17T04:51:13Z</time>
      </trkpt>
      <trkpt lat="43.52178" lon="5.8817">
        <ele>389</ele>
        <time>2016-07-17T04:51:15Z</time>
      </trkpt>
      <trkpt lat="43.52183" lon="5.88166">
        <ele>387</ele>
        <time>2016-07-17T04:51:17Z</time>
      </trkpt>
      <trkpt lat="43.52188" lon="5.88163">
        <ele>388</ele>
        <time>2016-07-17T04:51:19Z</time>
      </trkpt>
      <trkpt lat="43.52193" lon="5.88159">
        <ele>389</ele>
        <time>2016-07-17T04:51:21Z</time>
      </trkpt>
      <trkpt lat="43.52198" lon="5.88155">
        <ele>389</ele>
        <time>2016-07-17T04:51:23Z</time>
      </trkpt>
      <trkpt lat="43.52204" lon="5.88151">
        <ele>390</ele>
        <time>2016-07-17T04:51:25Z</time>
      </trkpt>
      <trkpt lat="43.52209" lon="5.88147">
        <ele>391</ele>
        <time>2016-07-17T04:51:27Z</time>
      </trkpt>
      <trkpt lat="43.52214" lon="5.88142">
        <ele>391</ele>
        <time>2016-07-17T04:51:29Z</time>
      </trkpt>
      <trkpt lat="43.52219" lon="5.88136">
        <ele>391</ele>
        <time>2016-07-17T04:51:31Z</time>
      </trkpt>
      <trkpt lat="43.52223" lon="5.8813">
        <ele>391</ele>
        <time>2016-07-17T04:51:33Z</time>
      </trkpt>
      <trkpt lat="43.52226" lon="5.88124">
        <ele>391</ele>
        <time>2016-07-17T04:51:35Z</time>
      </trkpt>
      <trkpt lat="43.52229" lon="5.88117">
        <ele>391</ele>
        <time>2016-07-17T04:51:37Z</time>
      </trkpt>
      <trkpt lat="43.52232" lon="5.88109">
        <ele>391</ele>
        <time>2016-07-17T04:51:39Z</time>
      </trkpt>
      <trkpt lat="43.52234" lon="5.88102">
        <ele>390</ele>
        <time>2016-07-17T04:51:41Z</time>
      </trkpt>
      <trkpt lat="43.52237" lon="5.88095">
        <ele>390</ele>
        <time>2016-07-17T04:51:43Z</time>
      </trkpt>
      <trkpt lat="43.52238" lon="5.88087">
        <ele>389</ele>
        <time>2016-07-17T04:51:45Z</time>
      </trkpt>
      <trkpt lat="43.5224" lon="5.8808">
        <ele>391</ele>
        <time>2016-07-17T04:51:47Z</time>
      </trkpt>
      <trkpt lat="43.52242" lon="5.88074">
        <ele>391</ele>
        <time>2016-07-17T04:51:49Z</time>
      </trkpt>
      <trkpt lat="43.52245" lon="5.88066">
        <ele>392</ele>
        <time>2016-07-17T04:51:51Z</time>
      </trkpt>
      <trkpt lat="43.52247" lon="5.88059">
        <ele>393</ele>
        <time>2016-07-17T04:51:53Z</time>
      </trkpt>
      <trkpt lat="43.5225" lon="5.88052">
        <ele>392</ele>
        <time>2016-07-17T04:51:55Z</time>
      </trkpt>
      <trkpt lat="43.52253" lon="5.88046">
        <ele>392</ele>
        <time>2016-07-17T04:51:57Z</time>
      </trkpt>
      <trkpt lat="43.52256" lon="5.8804">
        <ele>392</ele>
        <time>2016-07-17T04:51:59Z</time>
      </trkpt>
      <trkpt lat="43.52259" lon="5.88035">
        <ele>393</ele>
        <time>2016-07-17T04:52:01Z</time>
      </trkpt>
      <trkpt lat="43.52263" lon="5.8803">
        <ele>393</ele>
        <time>2016-07-17T04:52:03Z</time>
      </trkpt>
      <trkpt lat="43.52265" lon="5.88025">
        <ele>393</ele>
        <time>2016-07-17T04:52:05Z</time>
      </trkpt>
      <trkpt lat="43.52269" lon="5.88022">
        <ele>393</ele>
        <time>2016-07-17T04:52:07Z</time>
      </trkpt>
      <trkpt lat="43.52274" lon="5.88019">
        <ele>393</ele>
        <time>2016-07-17T04:52:09Z</time>
      </trkpt>
      <trkpt lat="43.5228" lon="5.88018">
        <ele>393</ele>
        <time>2016-07-17T04:52:11Z</time>
      </trkpt>
      <trkpt lat="43.52285" lon="5.88017">
        <ele>393</ele>
        <time>2016-07-17T04:52:13Z</time>
      </trkpt>
      <trkpt lat="43.5229" lon="5.88016">
        <ele>393</ele>
        <time>2016-07-17T04:52:15Z</time>
      </trkpt>
      <trkpt lat="43.52296" lon="5.88015">
        <ele>393</ele>
        <time>2016-07-17T04:52:17Z</time>
      </trkpt>
      <trkpt lat="43.52302" lon="5.88015">
        <ele>392</ele>
        <time>2016-07-17T04:52:19Z</time>
      </trkpt>
      <trkpt lat="43.52307" lon="5.88015">
        <ele>392</ele>
        <time>2016-07-17T04:52:21Z</time>
      </trkpt>
      <trkpt lat="43.52312" lon="5.88016">
        <ele>392</ele>
        <time>2016-07-17T04:52:23Z</time>
      </trkpt>
      <trkpt lat="43.52318" lon="5.88018">
        <ele>392</ele>
        <time>2016-07-17T04:52:25Z</time>
      </trkpt>
      <trkpt lat="43.52324" lon="5.88022">
        <ele>392</ele>
        <time>2016-07-17T04:52:27Z</time>
      </trkpt>
      <trkpt lat="43.5233" lon="5.88026">
        <ele>392</ele>
        <time>2016-07-17T04:52:29Z</time>
      </trkpt>
      <trkpt lat="43.52335" lon="5.88029">
        <ele>393</ele>
        <time>2016-07-17T04:52:31Z</time>
      </trkpt>
      <trkpt lat="43.5234" lon="5.88033">
        <ele>393</ele>
        <time>2016-07-17T04:52:33Z</time>
      </trkpt>
      <trkpt lat="43.52345" lon="5.88037">
        <ele>393</ele>
        <time>2016-07-17T04:52:35Z</time>
      </trkpt>
      <trkpt lat="43.52351" lon="5.88039">
        <ele>393</ele>
        <time>2016-07-17T04:52:37Z</time>
      </trkpt>
      <trkpt lat="43.52356" lon="5.88041">
        <ele>393</ele>
        <time>2016-07-17T04:52:39Z</time>
      </trkpt>
      <trkpt lat="43.52362" lon="5.88043">
        <ele>393</ele>
        <time>2016-07-17T04:52:41Z</time>
      </trkpt>
      <trkpt lat="43.52366" lon="5.88045">
        <ele>394</ele>
        <time>2016-07-17T04:52:43Z</time>
      </trkpt>
      <trkpt lat="43.52371" lon="5.88045">
        <ele>394</ele>
        <time>2016-07-17T04:52:45Z</time>
      </trkpt>
      <trkpt lat="43.52376" lon="5.88045">
        <ele>394</ele>
        <time>2016-07-17T04:52:47Z</time>
      </trkpt>
      <trkpt lat="43.52382" lon="5.88044">
        <ele>394</ele>
        <time>2016-07-17T04:52:50Z</time>
      </trkpt>
      <trkpt lat="43.52388" lon="5.88041">
        <ele>394</ele>
        <time>2016-07-17T04:52:52Z</time>
      </trkpt>
      <trkpt lat="43.52394" lon="5.88039">
        <ele>394</ele>
        <time>2016-07-17T04:52:54Z</time>
      </trkpt>
      <trkpt lat="43.52399" lon="5.88034">
        <ele>393</ele>
        <time>2016-07-17T04:52:56Z</time>
      </trkpt>
      <trkpt lat="43.52402" lon="5.88028">
        <ele>393</ele>
        <time>2016-07-17T04:52:58Z</time>
      </trkpt>
      <trkpt lat="43.52404" lon="5.88021">
        <ele>393</ele>
        <time>2016-07-17T04:53:00Z</time>
      </trkpt>
      <trkpt lat="43.52405" lon="5.88014">
        <ele>393</ele>
        <time>2016-07-17T04:53:02Z</time>
      </trkpt>
      <trkpt lat="43.52405" lon="5.88007">
        <ele>393</ele>
        <time>2016-07-17T04:53:04Z</time>
      </trkpt>
      <trkpt lat="43.52405" lon="5.88001">
        <ele>392</ele>
        <time>2016-07-17T04:53:06Z</time>
      </trkpt>
      <trkpt lat="43.52405" lon="5.87993">
        <ele>394</ele>
        <time>2016-07-17T04:53:08Z</time>
      </trkpt>
      <trkpt lat="43.52405" lon="5.87986">
        <ele>394</ele>
        <time>2016-07-17T04:53:10Z</time>
      </trkpt>
      <trkpt lat="43.52405" lon="5.87978">
        <ele>395</ele>
        <time>2016-07-17T04:53:12Z</time>
      </trkpt>
      <trkpt lat="43.52405" lon="5.87972">
        <ele>395</ele>
        <time>2016-07-17T04:53:14Z</time>
      </trkpt>
      <trkpt lat="43.52405" lon="5.87965">
        <ele>396</ele>
        <time>2016-07-17T04:53:16Z</time>
      </trkpt>
      <trkpt lat="43.52407" lon="5.87958">
        <ele>396</ele>
        <time>2016-07-17T04:53:18Z</time>
      </trkpt>
      <trkpt lat="43.52408" lon="5.8795">
        <ele>396</ele>
        <time>2016-07-17T04:53:20Z</time>
      </trkpt>
      <trkpt lat="43.5241" lon="5.87943">
        <ele>396</ele>
        <time>2016-07-17T04:53:22Z</time>
      </trkpt>
      <trkpt lat="43.52412" lon="5.87936">
        <ele>396</ele>
        <time>2016-07-17T04:53:24Z</time>
      </trkpt>
      <trkpt lat="43.52413" lon="5.87929">
        <ele>396</ele>
        <time>2016-07-17T04:53:26Z</time>
      </trkpt>
      <trkpt lat="43.52416" lon="5.87922">
        <ele>396</ele>
        <time>2016-07-17T04:53:28Z</time>
      </trkpt>
      <trkpt lat="43.5242" lon="5.87917">
        <ele>395</ele>
        <time>2016-07-17T04:53:30Z</time>
      </trkpt>
      <trkpt lat="43.52424" lon="5.87913">
        <ele>398</ele>
        <time>2016-07-17T04:53:32Z</time>
      </trkpt>
      <trkpt lat="43.52429" lon="5.87908">
        <ele>400</ele>
        <time>2016-07-17T04:53:35Z</time>
      </trkpt>
      <trkpt lat="43.52434" lon="5.87905">
        <ele>401</ele>
        <time>2016-07-17T04:53:38Z</time>
      </trkpt>
      <trkpt lat="43.52439" lon="5.87906">
        <ele>401</ele>
        <time>2016-07-17T04:53:40Z</time>
      </trkpt>
      <trkpt lat="43.52445" lon="5.87906">
        <ele>401</ele>
        <time>2016-07-17T04:53:43Z</time>
      </trkpt>
      <trkpt lat="43.5245" lon="5.87906">
        <ele>401</ele>
        <time>2016-07-17T04:53:45Z</time>
      </trkpt>
      <trkpt lat="43.52455" lon="5.87907">
        <ele>401</ele>
        <time>2016-07-17T04:53:47Z</time>
      </trkpt>
      <trkpt lat="43.5246" lon="5.8791">
        <ele>401</ele>
        <time>2016-07-17T04:53:49Z</time>
      </trkpt>
      <trkpt lat="43.52466" lon="5.87915">
        <ele>400</ele>
        <time>2016-07-17T04:53:51Z</time>
      </trkpt>
      <trkpt lat="43.52471" lon="5.8792">
        <ele>395</ele>
        <time>2016-07-17T04:53:53Z</time>
      </trkpt>
      <trkpt lat="43.52476" lon="5.87926">
        <ele>395</ele>
        <time>2016-07-17T04:53:55Z</time>
      </trkpt>
      <trkpt lat="43.5248" lon="5.87931">
        <ele>395</ele>
        <time>2016-07-17T04:53:57Z</time>
      </trkpt>
      <trkpt lat="43.52484" lon="5.87936">
        <ele>395</ele>
        <time>2016-07-17T04:53:59Z</time>
      </trkpt>
      <trkpt lat="43.52488" lon="5.87941">
        <ele>395</ele>
        <time>2016-07-17T04:54:01Z</time>
      </trkpt>
      <trkpt lat="43.52493" lon="5.87945">
        <ele>396</ele>
        <time>2016-07-17T04:54:03Z</time>
      </trkpt>
      <trkpt lat="43.52498" lon="5.87946">
        <ele>396</ele>
        <time>2016-07-17T04:54:05Z</time>
      </trkpt>
      <trkpt lat="43.52503" lon="5.87945">
        <ele>403</ele>
        <time>2016-07-17T04:54:07Z</time>
      </trkpt>
      <trkpt lat="43.52508" lon="5.87942">
        <ele>403</ele>
        <time>2016-07-17T04:54:09Z</time>
      </trkpt>
      <trkpt lat="43.52513" lon="5.87938">
        <ele>403</ele>
        <time>2016-07-17T04:54:12Z</time>
      </trkpt>
      <trkpt lat="43.52517" lon="5.87935">
        <ele>403</ele>
        <time>2016-07-17T04:54:14Z</time>
      </trkpt>
      <trkpt lat="43.52521" lon="5.87931">
        <ele>403</ele>
        <time>2016-07-17T04:54:16Z</time>
      </trkpt>
      <trkpt lat="43.52525" lon="5.87927">
        <ele>404</ele>
        <time>2016-07-17T04:54:18Z</time>
      </trkpt>
      <trkpt lat="43.5253" lon="5.87922">
        <ele>404</ele>
        <time>2016-07-17T04:54:20Z</time>
      </trkpt>
      <trkpt lat="43.52534" lon="5.87917">
        <ele>405</ele>
        <time>2016-07-17T04:54:22Z</time>
      </trkpt>
      <trkpt lat="43.52538" lon="5.87912">
        <ele>405</ele>
        <time>2016-07-17T04:54:24Z</time>
      </trkpt>
      <trkpt lat="43.52541" lon="5.87907">
        <ele>405</ele>
        <time>2016-07-17T04:54:26Z</time>
      </trkpt>
      <trkpt lat="43.52544" lon="5.87901">
        <ele>406</ele>
        <time>2016-07-17T04:54:28Z</time>
      </trkpt>
      <trkpt lat="43.52547" lon="5.87895">
        <ele>406</ele>
        <time>2016-07-17T04:54:30Z</time>
      </trkpt>
      <trkpt lat="43.52549" lon="5.87888">
        <ele>407</ele>
        <time>2016-07-17T04:54:32Z</time>
      </trkpt>
      <trkpt lat="43.52552" lon="5.87882">
        <ele>407</ele>
        <time>2016-07-17T04:54:34Z</time>
      </trkpt>
      <trkpt lat="43.52556" lon="5.87876">
        <ele>407</ele>
        <time>2016-07-17T04:54:36Z</time>
      </trkpt>
      <trkpt lat="43.52559" lon="5.8787">
        <ele>408</ele>
        <time>2016-07-17T04:54:38Z</time>
      </trkpt>
      <trkpt lat="43.5256" lon="5.87862">
        <ele>408</ele>
        <time>2016-07-17T04:54:40Z</time>
      </trkpt>
      <trkpt lat="43.52559" lon="5.87854">
        <ele>408</ele>
        <time>2016-07-17T04:54:42Z</time>
      </trkpt>
      <trkpt lat="43.52557" lon="5.87847">
        <ele>408</ele>
        <time>2016-07-17T04:54:44Z</time>
      </trkpt>
      <trkpt lat="43.52555" lon="5.8784">
        <ele>408</ele>
        <time>2016-07-17T04:54:46Z</time>
      </trkpt>
      <trkpt lat="43.52553" lon="5.87835">
        <ele>408</ele>
        <time>2016-07-17T04:54:48Z</time>
      </trkpt>
      <trkpt lat="43.52551" lon="5.87827">
        <ele>412</ele>
        <time>2016-07-17T04:54:50Z</time>
      </trkpt>
      <trkpt lat="43.52551" lon="5.8782">
        <ele>412</ele>
        <time>2016-07-17T04:54:52Z</time>
      </trkpt>
      <trkpt lat="43.52551" lon="5.87811">
        <ele>412</ele>
        <time>2016-07-17T04:54:55Z</time>
      </trkpt>
      <trkpt lat="43.52552" lon="5.87804">
        <ele>413</ele>
        <time>2016-07-17T04:54:57Z</time>
      </trkpt>
      <trkpt lat="43.52554" lon="5.87796">
        <ele>413</ele>
        <time>2016-07-17T04:54:59Z</time>
      </trkpt>
      <trkpt lat="43.52557" lon="5.87789">
        <ele>413</ele>
        <time>2016-07-17T04:55:01Z</time>
      </trkpt>
      <trkpt lat="43.52559" lon="5.87782">
        <ele>413</ele>
        <time>2016-07-17T04:55:03Z</time>
      </trkpt>
      <trkpt lat="43.52561" lon="5.87775">
        <ele>413</ele>
        <time>2016-07-17T04:55:05Z</time>
      </trkpt>
      <trkpt lat="43.52562" lon="5.87767">
        <ele>413</ele>
        <time>2016-07-17T04:55:07Z</time>
      </trkpt>
      <trkpt lat="43.52562" lon="5.87758">
        <ele>413</ele>
        <time>2016-07-17T04:55:09Z</time>
      </trkpt>
      <trkpt lat="43.52561" lon="5.87748">
        <ele>417</ele>
        <time>2016-07-17T04:55:11Z</time>
      </trkpt>
      <trkpt lat="43.52561" lon="5.87739">
        <ele>417</ele>
        <time>2016-07-17T04:55:13Z</time>
      </trkpt>
      <trkpt lat="43.52561" lon="5.87731">
        <ele>418</ele>
        <time>2016-07-17T04:55:15Z</time>
      </trkpt>
      <trkpt lat="43.5256" lon="5.87722">
        <ele>418</ele>
        <time>2016-07-17T04:55:17Z</time>
      </trkpt>
      <trkpt lat="43.52559" lon="5.87714">
        <ele>419</ele>
        <time>2016-07-17T04:55:19Z</time>
      </trkpt>
      <trkpt lat="43.52558" lon="5.87706">
        <ele>419</ele>
        <time>2016-07-17T04:55:21Z</time>
      </trkpt>
      <trkpt lat="43.52555" lon="5.87699">
        <ele>420</ele>
        <time>2016-07-17T04:55:23Z</time>
      </trkpt>
      <trkpt lat="43.52553" lon="5.87691">
        <ele>420</ele>
        <time>2016-07-17T04:55:25Z</time>
      </trkpt>
      <trkpt lat="43.52551" lon="5.87683">
        <ele>420</ele>
        <time>2016-07-17T04:55:27Z</time>
      </trkpt>
      <trkpt lat="43.52549" lon="5.87675">
        <ele>421</ele>
        <time>2016-07-17T04:55:29Z</time>
      </trkpt>
      <trkpt lat="43.52546" lon="5.87667">
        <ele>421</ele>
        <time>2016-07-17T04:55:31Z</time>
      </trkpt>
      <trkpt lat="43.52544" lon="5.87659">
        <ele>424</ele>
        <time>2016-07-17T04:55:33Z</time>
      </trkpt>
      <trkpt lat="43.52542" lon="5.87651">
        <ele>424</ele>
        <time>2016-07-17T04:55:35Z</time>
      </trkpt>
      <trkpt lat="43.5254" lon="5.87643">
        <ele>424</ele>
        <time>2016-07-17T04:55:37Z</time>
      </trkpt>
      <trkpt lat="43.52538" lon="5.87635">
        <ele>424</ele>
        <time>2016-07-17T04:55:39Z</time>
      </trkpt>
      <trkpt lat="43.52535" lon="5.87627">
        <ele>424</ele>
        <time>2016-07-17T04:55:41Z</time>
      </trkpt>
      <trkpt lat="43.52533" lon="5.8762">
        <ele>425</ele>
        <time>2016-07-17T04:55:43Z</time>
      </trkpt>
      <trkpt lat="43.52533" lon="5.87612">
        <ele>425</ele>
        <time>2016-07-17T04:55:46Z</time>
      </trkpt>
      <trkpt lat="43.52532" lon="5.87602">
        <ele>425</ele>
        <time>2016-07-17T04:55:49Z</time>
      </trkpt>
      <trkpt lat="43.5253" lon="5.87595">
        <ele>426</ele>
        <time>2016-07-17T04:55:51Z</time>
      </trkpt>
      <trkpt lat="43.52529" lon="5.87586">
        <ele>426</ele>
        <time>2016-07-17T04:55:53Z</time>
      </trkpt>
      <trkpt lat="43.52529" lon="5.87578">
        <ele>429</ele>
        <time>2016-07-17T04:55:55Z</time>
      </trkpt>
      <trkpt lat="43.52531" lon="5.87571">
        <ele>429</ele>
        <time>2016-07-17T04:55:57Z</time>
      </trkpt>
      <trkpt lat="43.52533" lon="5.87564">
        <ele>429</ele>
        <time>2016-07-17T04:55:59Z</time>
      </trkpt>
      <trkpt lat="43.52536" lon="5.87558">
        <ele>429</ele>
        <time>2016-07-17T04:56:01Z</time>
      </trkpt>
      <trkpt lat="43.52539" lon="5.87552">
        <ele>429</ele>
        <time>2016-07-17T04:56:03Z</time>
      </trkpt>
      <trkpt lat="43.52543" lon="5.87547">
        <ele>428</ele>
        <time>2016-07-17T04:56:05Z</time>
      </trkpt>
      <trkpt lat="43.52548" lon="5.87542">
        <ele>428</ele>
        <time>2016-07-17T04:56:07Z</time>
      </trkpt>
      <trkpt lat="43.5255" lon="5.87536">
        <ele>428</ele>
        <time>2016-07-17T04:56:09Z</time>
      </trkpt>
      <trkpt lat="43.52555" lon="5.87531">
        <ele>427</ele>
        <time>2016-07-17T04:56:11Z</time>
      </trkpt>
      <trkpt lat="43.52559" lon="5.87528">
        <ele>427</ele>
        <time>2016-07-17T04:56:13Z</time>
      </trkpt>
      <trkpt lat="43.52563" lon="5.87523">
        <ele>426</ele>
        <time>2016-07-17T04:56:15Z</time>
      </trkpt>
      <trkpt lat="43.52566" lon="5.87515">
        <ele>425</ele>
        <time>2016-07-17T04:56:18Z</time>
      </trkpt>
      <trkpt lat="43.52569" lon="5.87508">
        <ele>423</ele>
        <time>2016-07-17T04:56:20Z</time>
      </trkpt>
      <trkpt lat="43.52571" lon="5.87502">
        <ele>422</ele>
        <time>2016-07-17T04:56:22Z</time>
      </trkpt>
      <trkpt lat="43.52571" lon="5.87495">
        <ele>426</ele>
        <time>2016-07-17T04:56:24Z</time>
      </trkpt>
      <trkpt lat="43.52574" lon="5.87487">
        <ele>427</ele>
        <time>2016-07-17T04:56:27Z</time>
      </trkpt>
      <trkpt lat="43.52578" lon="5.87482">
        <ele>427</ele>
        <time>2016-07-17T04:56:29Z</time>
      </trkpt>
      <trkpt lat="43.52582" lon="5.87477">
        <ele>429</ele>
        <time>2016-07-17T04:56:31Z</time>
      </trkpt>
      <trkpt lat="43.52587" lon="5.87473">
        <ele>422</ele>
        <time>2016-07-17T04:56:33Z</time>
      </trkpt>
      <trkpt lat="43.52594" lon="5.8747">
        <ele>422</ele>
        <time>2016-07-17T04:56:36Z</time>
      </trkpt>
      <trkpt lat="43.526" lon="5.87468">
        <ele>423</ele>
        <time>2016-07-17T04:56:38Z</time>
      </trkpt>
      <trkpt lat="43.52606" lon="5.87468">
        <ele>423</ele>
        <time>2016-07-17T04:56:40Z</time>
      </trkpt>
      <trkpt lat="43.52613" lon="5.87466">
        <ele>424</ele>
        <time>2016-07-17T04:56:42Z</time>
      </trkpt>
      <trkpt lat="43.52618" lon="5.87464">
        <ele>424</ele>
        <time>2016-07-17T04:56:43Z</time>
      </trkpt>
      <trkpt lat="43.52624" lon="5.8746">
        <ele>424</ele>
        <time>2016-07-17T04:56:45Z</time>
      </trkpt>
      <trkpt lat="43.52629" lon="5.87456">
        <ele>424</ele>
        <time>2016-07-17T04:56:47Z</time>
      </trkpt>
      <trkpt lat="43.52635" lon="5.87451">
        <ele>424</ele>
        <time>2016-07-17T04:56:49Z</time>
      </trkpt>
      <trkpt lat="43.52637" lon="5.87445">
        <ele>424</ele>
        <time>2016-07-17T04:56:51Z</time>
      </trkpt>
      <trkpt lat="43.52638" lon="5.87436">
        <ele>423</ele>
        <time>2016-07-17T04:56:54Z</time>
      </trkpt>
      <trkpt lat="43.52635" lon="5.8743">
        <ele>423</ele>
        <time>2016-07-17T04:56:57Z</time>
      </trkpt>
      <trkpt lat="43.5263" lon="5.87424">
        <ele>423</ele>
        <time>2016-07-17T04:57:00Z</time>
      </trkpt>
      <trkpt lat="43.52627" lon="5.87418">
        <ele>423</ele>
        <time>2016-07-17T04:57:02Z</time>
      </trkpt>
      <trkpt lat="43.52625" lon="5.87411">
        <ele>425</ele>
        <time>2016-07-17T04:57:04Z</time>
      </trkpt>
      <trkpt lat="43.52624" lon="5.87404">
        <ele>425</ele>
        <time>2016-07-17T04:57:06Z</time>
      </trkpt>
      <trkpt lat="43.52623" lon="5.87397">
        <ele>425</ele>
        <time>2016-07-17T04:57:08Z</time>
      </trkpt>
      <trkpt lat="43.52623" lon="5.87389">
        <ele>426</ele>
        <time>2016-07-17T04:57:10Z</time>
      </trkpt>
      <trkpt lat="43.52624" lon="5.87382">
        <ele>426</ele>
        <time>2016-07-17T04:57:12Z</time>
      </trkpt>
      <trkpt lat="43.52626" lon="5.87375">
        <ele>426</ele>
        <time>2016-07-17T04:57:14Z</time>
      </trkpt>
      <trkpt lat="43.52627" lon="5.87367">
        <ele>426</ele>
        <time>2016-07-17T04:57:16Z</time>
      </trkpt>
      <trkpt lat="43.5263" lon="5.87361">
        <ele>426</ele>
        <time>2016-07-17T04:57:18Z</time>
      </trkpt>
      <trkpt lat="43.52633" lon="5.87355">
        <ele>426</ele>
        <time>2016-07-17T04:57:20Z</time>
      </trkpt>
      <trkpt lat="43.52637" lon="5.87349">
        <ele>426</ele>
        <time>2016-07-17T04:57:22Z</time>
      </trkpt>
      <trkpt lat="43.52639" lon="5.87342">
        <ele>425</ele>
        <time>2016-07-17T04:57:24Z</time>
      </trkpt>
      <trkpt lat="43.52643" lon="5.87337">
        <ele>424</ele>
        <time>2016-07-17T04:57:26Z</time>
      </trkpt>
      <trkpt lat="43.52647" lon="5.87331">
        <ele>427</ele>
        <time>2016-07-17T04:57:28Z</time>
      </trkpt>
      <trkpt lat="43.5265" lon="5.87325">
        <ele>426</ele>
        <time>2016-07-17T04:57:30Z</time>
      </trkpt>
      <trkpt lat="43.52654" lon="5.87319">
        <ele>426</ele>
        <time>2016-07-17T04:57:32Z</time>
      </trkpt>
      <trkpt lat="43.52658" lon="5.87313">
        <ele>427</ele>
        <time>2016-07-17T04:57:34Z</time>
      </trkpt>
      <trkpt lat="43.52662" lon="5.87308">
        <ele>427</ele>
        <time>2016-07-17T04:57:36Z</time>
      </trkpt>
      <trkpt lat="43.52667" lon="5.87303">
        <ele>425</ele>
        <time>2016-07-17T04:57:38Z</time>
      </trkpt>
      <trkpt lat="43.52672" lon="5.87299">
        <ele>426</ele>
        <time>2016-07-17T04:57:40Z</time>
      </trkpt>
      <trkpt lat="43.52676" lon="5.87293">
        <ele>426</ele>
        <time>2016-07-17T04:57:42Z</time>
      </trkpt>
      <trkpt lat="43.5268" lon="5.87288">
        <ele>427</ele>
        <time>2016-07-17T04:57:44Z</time>
      </trkpt>
      <trkpt lat="43.52683" lon="5.87282">
        <ele>427</ele>
        <time>2016-07-17T04:57:46Z</time>
      </trkpt>
      <trkpt lat="43.52688" lon="5.87277">
        <ele>427</ele>
        <time>2016-07-17T04:57:48Z</time>
      </trkpt>
      <trkpt lat="43.52691" lon="5.87272">
        <ele>427</ele>
        <time>2016-07-17T04:57:50Z</time>
      </trkpt>
      <trkpt lat="43.52695" lon="5.87266">
        <ele>427</ele>
        <time>2016-07-17T04:57:52Z</time>
      </trkpt>
      <trkpt lat="43.52697" lon="5.87259">
        <ele>428</ele>
        <time>2016-07-17T04:57:54Z</time>
      </trkpt>
      <trkpt lat="43.52699" lon="5.87252">
        <ele>428</ele>
        <time>2016-07-17T04:57:56Z</time>
      </trkpt>
      <trkpt lat="43.52701" lon="5.87245">
        <ele>430</ele>
        <time>2016-07-17T04:57:58Z</time>
      </trkpt>
      <trkpt lat="43.52703" lon="5.8724">
        <ele>430</ele>
        <time>2016-07-17T04:58:00Z</time>
      </trkpt>
      <trkpt lat="43.52705" lon="5.87232">
        <ele>430</ele>
        <time>2016-07-17T04:58:02Z</time>
      </trkpt>
      <trkpt lat="43.52706" lon="5.87224">
        <ele>431</ele>
        <time>2016-07-17T04:58:04Z</time>
      </trkpt>
      <trkpt lat="43.52706" lon="5.87216">
        <ele>431</ele>
        <time>2016-07-17T04:58:06Z</time>
      </trkpt>
      <trkpt lat="43.52706" lon="5.87207">
        <ele>431</ele>
        <time>2016-07-17T04:58:08Z</time>
      </trkpt>
      <trkpt lat="43.52705" lon="5.87198">
        <ele>432</ele>
        <time>2016-07-17T04:58:10Z</time>
      </trkpt>
      <trkpt lat="43.52703" lon="5.87189">
        <ele>432</ele>
        <time>2016-07-17T04:58:12Z</time>
      </trkpt>
      <trkpt lat="43.52702" lon="5.8718">
        <ele>432</ele>
        <time>2016-07-17T04:58:14Z</time>
      </trkpt>
      <trkpt lat="43.52704" lon="5.87171">
        <ele>433</ele>
        <time>2016-07-17T04:58:16Z</time>
      </trkpt>
      <trkpt lat="43.52704" lon="5.87163">
        <ele>435</ele>
        <time>2016-07-17T04:58:18Z</time>
      </trkpt>
      <trkpt lat="43.52703" lon="5.87154">
        <ele>435</ele>
        <time>2016-07-17T04:58:20Z</time>
      </trkpt>
      <trkpt lat="43.52701" lon="5.87145">
        <ele>435</ele>
        <time>2016-07-17T04:58:22Z</time>
      </trkpt>
      <trkpt lat="43.52701" lon="5.87136">
        <ele>436</ele>
        <time>2016-07-17T04:58:24Z</time>
      </trkpt>
      <trkpt lat="43.52701" lon="5.87127">
        <ele>436</ele>
        <time>2016-07-17T04:58:26Z</time>
      </trkpt>
      <trkpt lat="43.52702" lon="5.87118">
        <ele>436</ele>
        <time>2016-07-17T04:58:28Z</time>
      </trkpt>
      <trkpt lat="43.52705" lon="5.87109">
        <ele>436</ele>
        <time>2016-07-17T04:58:30Z</time>
      </trkpt>
      <trkpt lat="43.52707" lon="5.87101">
        <ele>436</ele>
        <time>2016-07-17T04:58:32Z</time>
      </trkpt>
      <trkpt lat="43.5271" lon="5.87093">
        <ele>436</ele>
        <time>2016-07-17T04:58:34Z</time>
      </trkpt>
      <trkpt lat="43.52713" lon="5.87084">
        <ele>435</ele>
        <time>2016-07-17T04:58:36Z</time>
      </trkpt>
      <trkpt lat="43.52717" lon="5.87076">
        <ele>437</ele>
        <time>2016-07-17T04:58:38Z</time>
      </trkpt>
      <trkpt lat="43.52722" lon="5.8707">
        <ele>436</ele>
        <time>2016-07-17T04:58:40Z</time>
      </trkpt>
      <trkpt lat="43.52726" lon="5.87063">
        <ele>436</ele>
        <time>2016-07-17T04:58:42Z</time>
      </trkpt>
      <trkpt lat="43.5273" lon="5.87056">
        <ele>436</ele>
        <time>2016-07-17T04:58:44Z</time>
      </trkpt>
      <trkpt lat="43.52734" lon="5.8705">
        <ele>436</ele>
        <time>2016-07-17T04:58:46Z</time>
      </trkpt>
      <trkpt lat="43.52737" lon="5.87043">
        <ele>436</ele>
        <time>2016-07-17T04:58:48Z</time>
      </trkpt>
      <trkpt lat="43.5274" lon="5.87037">
        <ele>435</ele>
        <time>2016-07-17T04:58:50Z</time>
      </trkpt>
      <trkpt lat="43.52744" lon="5.87031">
        <ele>435</ele>
        <time>2016-07-17T04:58:52Z</time>
      </trkpt>
      <trkpt lat="43.52748" lon="5.87026">
        <ele>434</ele>
        <time>2016-07-17T04:58:54Z</time>
      </trkpt>
      <trkpt lat="43.52752" lon="5.8702">
        <ele>436</ele>
        <time>2016-07-17T04:58:56Z</time>
      </trkpt>
      <trkpt lat="43.52755" lon="5.87013">
        <ele>434</ele>
        <time>2016-07-17T04:58:58Z</time>
      </trkpt>
      <trkpt lat="43.52756" lon="5.87004">
        <ele>432</ele>
        <time>2016-07-17T04:59:00Z</time>
      </trkpt>
      <trkpt lat="43.52756" lon="5.86994">
        <ele>433</ele>
        <time>2016-07-17T04:59:02Z</time>
      </trkpt>
      <trkpt lat="43.52756" lon="5.86985">
        <ele>436</ele>
        <time>2016-07-17T04:59:04Z</time>
      </trkpt>
      <trkpt lat="43.52755" lon="5.86975">
        <ele>438</ele>
        <time>2016-07-17T04:59:06Z</time>
      </trkpt>
      <trkpt lat="43.52753" lon="5.86966">
        <ele>439</ele>
        <time>2016-07-17T04:59:08Z</time>
      </trkpt>
      <trkpt lat="43.52751" lon="5.86957">
        <ele>440</ele>
        <time>2016-07-17T04:59:10Z</time>
      </trkpt>
      <trkpt lat="43.52748" lon="5.86949">
        <ele>441</ele>
        <time>2016-07-17T04:59:12Z</time>
      </trkpt>
      <trkpt lat="43.52746" lon="5.86941">
        <ele>440</ele>
        <time>2016-07-17T04:59:14Z</time>
      </trkpt>
      <trkpt lat="43.52744" lon="5.86932">
        <ele>440</ele>
        <time>2016-07-17T04:59:16Z</time>
      </trkpt>
      <trkpt lat="43.52742" lon="5.86924">
        <ele>439</ele>
        <time>2016-07-17T04:59:18Z</time>
      </trkpt>
      <trkpt lat="43.5274" lon="5.86916">
        <ele>440</ele>
        <time>2016-07-17T04:59:20Z</time>
      </trkpt>
      <trkpt lat="43.52737" lon="5.86907">
        <ele>441</ele>
        <time>2016-07-17T04:59:22Z</time>
      </trkpt>
      <trkpt lat="43.52733" lon="5.869">
        <ele>443</ele>
        <time>2016-07-17T04:59:24Z</time>
      </trkpt>
      <trkpt lat="43.5273" lon="5.86892">
        <ele>444</ele>
        <time>2016-07-17T04:59:26Z</time>
      </trkpt>
      <trkpt lat="43.52729" lon="5.86884">
        <ele>445</ele>
        <time>2016-07-17T04:59:28Z</time>
      </trkpt>
      <trkpt lat="43.52728" lon="5.86876">
        <ele>445</ele>
        <time>2016-07-17T04:59:30Z</time>
      </trkpt>
      <trkpt lat="43.52726" lon="5.86868">
        <ele>445</ele>
        <time>2016-07-17T04:59:32Z</time>
      </trkpt>
      <trkpt lat="43.52726" lon="5.8686">
        <ele>445</ele>
        <time>2016-07-17T04:59:34Z</time>
      </trkpt>
      <trkpt lat="43.52726" lon="5.86851">
        <ele>444</ele>
        <time>2016-07-17T04:59:36Z</time>
      </trkpt>
      <trkpt lat="43.52729" lon="5.86843">
        <ele>443</ele>
        <time>2016-07-17T04:59:38Z</time>
      </trkpt>
      <trkpt lat="43.52731" lon="5.86835">
        <ele>441</ele>
        <time>2016-07-17T04:59:40Z</time>
      </trkpt>
      <trkpt lat="43.52734" lon="5.86827">
        <ele>441</ele>
        <time>2016-07-17T04:59:42Z</time>
      </trkpt>
      <trkpt lat="43.52738" lon="5.8682">
        <ele>441</ele>
        <time>2016-07-17T04:59:44Z</time>
      </trkpt>
      <trkpt lat="43.52742" lon="5.86815">
        <ele>441</ele>
        <time>2016-07-17T04:59:46Z</time>
      </trkpt>
      <trkpt lat="43.52745" lon="5.86808">
        <ele>442</ele>
        <time>2016-07-17T04:59:48Z</time>
      </trkpt>
      <trkpt lat="43.52747" lon="5.868">
        <ele>443</ele>
        <time>2016-07-17T04:59:50Z</time>
      </trkpt>
      <trkpt lat="43.52751" lon="5.86792">
        <ele>440</ele>
        <time>2016-07-17T04:59:52Z</time>
      </trkpt>
      <trkpt lat="43.52754" lon="5.86786">
        <ele>440</ele>
        <time>2016-07-17T04:59:54Z</time>
      </trkpt>
      <trkpt lat="43.52759" lon="5.8678">
        <ele>440</ele>
        <time>2016-07-17T04:59:56Z</time>
      </trkpt>
      <trkpt lat="43.52763" lon="5.86773">
        <ele>440</ele>
        <time>2016-07-17T04:59:58Z</time>
      </trkpt>
      <trkpt lat="43.52766" lon="5.86767">
        <ele>440</ele>
        <time>2016-07-17T05:00:00Z</time>
      </trkpt>
      <trkpt lat="43.52768" lon="5.86761">
        <ele>440</ele>
        <time>2016-07-17T05:00:02Z</time>
      </trkpt>
      <trkpt lat="43.52771" lon="5.86755">
        <ele>440</ele>
        <time>2016-07-17T05:00:04Z</time>
      </trkpt>
      <trkpt lat="43.52773" lon="5.86746">
        <ele>442</ele>
        <time>2016-07-17T05:00:07Z</time>
      </trkpt>
      <trkpt lat="43.52777" lon="5.86739">
        <ele>443</ele>
        <time>2016-07-17T05:00:09Z</time>
      </trkpt>
      <trkpt lat="43.52781" lon="5.86734">
        <ele>443</ele>
        <time>2016-07-17T05:00:11Z</time>
      </trkpt>
      <trkpt lat="43.52786" lon="5.86727">
        <ele>443</ele>
        <time>2016-07-17T05:00:13Z</time>
      </trkpt>
      <trkpt lat="43.5279" lon="5.86719">
        <ele>444</ele>
        <time>2016-07-17T05:00:15Z</time>
      </trkpt>
      <trkpt lat="43.52793" lon="5.86712">
        <ele>444</ele>
        <time>2016-07-17T05:00:17Z</time>
      </trkpt>
      <trkpt lat="43.52795" lon="5.86705">
        <ele>445</ele>
        <time>2016-07-17T05:00:19Z</time>
      </trkpt>
      <trkpt lat="43.52798" lon="5.86698">
        <ele>445</ele>
        <time>2016-07-17T05:00:21Z</time>
      </trkpt>
      <trkpt lat="43.52802" lon="5.86691">
        <ele>445</ele>
        <time>2016-07-17T05:00:23Z</time>
      </trkpt>
      <trkpt lat="43.52806" lon="5.86687">
        <ele>444</ele>
        <time>2016-07-17T05:00:25Z</time>
      </trkpt>
      <trkpt lat="43.52809" lon="5.8668">
        <ele>444</ele>
        <time>2016-07-17T05:00:27Z</time>
      </trkpt>
      <trkpt lat="43.52813" lon="5.86674">
        <ele>444</ele>
        <time>2016-07-17T05:00:29Z</time>
      </trkpt>
      <trkpt lat="43.52816" lon="5.86668">
        <ele>443</ele>
        <time>2016-07-17T05:00:31Z</time>
      </trkpt>
      <trkpt lat="43.52819" lon="5.86663">
        <ele>447</ele>
        <time>2016-07-17T05:00:33Z</time>
      </trkpt>
      <trkpt lat="43.52823" lon="5.86657">
        <ele>447</ele>
        <time>2016-07-17T05:00:35Z</time>
      </trkpt>
      <trkpt lat="43.52824" lon="5.8665">
        <ele>448</ele>
        <time>2016-07-17T05:00:37Z</time>
      </trkpt>
      <trkpt lat="43.52824" lon="5.86641">
        <ele>450</ele>
        <time>2016-07-17T05:00:40Z</time>
      </trkpt>
      <trkpt lat="43.52822" lon="5.86635">
        <ele>451</ele>
        <time>2016-07-17T05:00:42Z</time>
      </trkpt>
      <trkpt lat="43.5282" lon="5.86628">
        <ele>452</ele>
        <time>2016-07-17T05:00:44Z</time>
      </trkpt>
      <trkpt lat="43.52818" lon="5.86621">
        <ele>452</ele>
        <time>2016-07-17T05:00:46Z</time>
      </trkpt>
      <trkpt lat="43.52816" lon="5.86614">
        <ele>453</ele>
        <time>2016-07-17T05:00:48Z</time>
      </trkpt>
      <trkpt lat="43.52816" lon="5.86607">
        <ele>453</ele>
        <time>2016-07-17T05:00:50Z</time>
      </trkpt>
      <trkpt lat="43.52814" lon="5.86599">
        <ele>453</ele>
        <time>2016-07-17T05:00:52Z</time>
      </trkpt>
      <trkpt lat="43.52812" lon="5.86593">
        <ele>453</ele>
        <time>2016-07-17T05:00:54Z</time>
      </trkpt>
      <trkpt lat="43.52809" lon="5.86585">
        <ele>454</ele>
        <time>2016-07-17T05:00:57Z</time>
      </trkpt>
      <trkpt lat="43.5281" lon="5.86577">
        <ele>457</ele>
        <time>2016-07-17T05:00:59Z</time>
      </trkpt>
      <trkpt lat="43.52811" lon="5.86569">
        <ele>458</ele>
        <time>2016-07-17T05:01:01Z</time>
      </trkpt>
      <trkpt lat="43.52813" lon="5.86562">
        <ele>458</ele>
        <time>2016-07-17T05:01:03Z</time>
      </trkpt>
      <trkpt lat="43.52814" lon="5.86555">
        <ele>458</ele>
        <time>2016-07-17T05:01:05Z</time>
      </trkpt>
      <trkpt lat="43.52814" lon="5.86549">
        <ele>459</ele>
        <time>2016-07-17T05:01:07Z</time>
      </trkpt>
      <trkpt lat="43.52816" lon="5.86542">
        <ele>459</ele>
        <time>2016-07-17T05:01:09Z</time>
      </trkpt>
      <trkpt lat="43.52819" lon="5.86535">
        <ele>458</ele>
        <time>2016-07-17T05:01:11Z</time>
      </trkpt>
      <trkpt lat="43.52822" lon="5.8653">
        <ele>458</ele>
        <time>2016-07-17T05:01:13Z</time>
      </trkpt>
      <trkpt lat="43.52826" lon="5.86525">
        <ele>457</ele>
        <time>2016-07-17T05:01:15Z</time>
      </trkpt>
      <trkpt lat="43.52829" lon="5.8652">
        <ele>456</ele>
        <time>2016-07-17T05:01:17Z</time>
      </trkpt>
      <trkpt lat="43.52831" lon="5.86512">
        <ele>454</ele>
        <time>2016-07-17T05:01:20Z</time>
      </trkpt>
      <trkpt lat="43.52834" lon="5.86504">
        <ele>451</ele>
        <time>2016-07-17T05:01:22Z</time>
      </trkpt>
      <trkpt lat="43.52836" lon="5.86498">
        <ele>451</ele>
        <time>2016-07-17T05:01:24Z</time>
      </trkpt>
      <trkpt lat="43.52839" lon="5.86493">
        <ele>453</ele>
        <time>2016-07-17T05:01:26Z</time>
      </trkpt>
      <trkpt lat="43.52841" lon="5.86486">
        <ele>454</ele>
        <time>2016-07-17T05:01:29Z</time>
      </trkpt>
      <trkpt lat="43.52845" lon="5.8648">
        <ele>455</ele>
        <time>2016-07-17T05:01:32Z</time>
      </trkpt>
      <trkpt lat="43.52848" lon="5.86472">
        <ele>456</ele>
        <time>2016-07-17T05:01:35Z</time>
      </trkpt>
      <trkpt lat="43.52849" lon="5.86465">
        <ele>456</ele>
        <time>2016-07-17T05:01:38Z</time>
      </trkpt>
      <trkpt lat="43.52853" lon="5.8646">
        <ele>457</ele>
        <time>2016-07-17T05:01:40Z</time>
      </trkpt>
      <trkpt lat="43.52858" lon="5.86457">
        <ele>457</ele>
        <time>2016-07-17T05:01:42Z</time>
      </trkpt>
      <trkpt lat="43.52863" lon="5.86453">
        <ele>457</ele>
        <time>2016-07-17T05:01:44Z</time>
      </trkpt>
      <trkpt lat="43.52868" lon="5.8645">
        <ele>457</ele>
        <time>2016-07-17T05:01:46Z</time>
      </trkpt>
      <trkpt lat="43.52872" lon="5.86447">
        <ele>457</ele>
        <time>2016-07-17T05:01:48Z</time>
      </trkpt>
      <trkpt lat="43.52877" lon="5.86443">
        <ele>457</ele>
        <time>2016-07-17T05:01:50Z</time>
      </trkpt>
      <trkpt lat="43.52881" lon="5.86439">
        <ele>457</ele>
        <time>2016-07-17T05:01:52Z</time>
      </trkpt>
      <trkpt lat="43.52887" lon="5.86435">
        <ele>457</ele>
        <time>2016-07-17T05:01:54Z</time>
      </trkpt>
      <trkpt lat="43.5289" lon="5.8643">
        <ele>457</ele>
        <time>2016-07-17T05:01:56Z</time>
      </trkpt>
      <trkpt lat="43.52894" lon="5.86424">
        <ele>457</ele>
        <time>2016-07-17T05:01:58Z</time>
      </trkpt>
      <trkpt lat="43.52896" lon="5.86419">
        <ele>456</ele>
        <time>2016-07-17T05:02:00Z</time>
      </trkpt>
      <trkpt lat="43.52899" lon="5.86414">
        <ele>458</ele>
        <time>2016-07-17T05:02:02Z</time>
      </trkpt>
      <trkpt lat="43.52903" lon="5.86409">
        <ele>458</ele>
        <time>2016-07-17T05:02:04Z</time>
      </trkpt>
      <trkpt lat="43.52907" lon="5.86404">
        <ele>458</ele>
        <time>2016-07-17T05:02:06Z</time>
      </trkpt>
      <trkpt lat="43.52911" lon="5.86399">
        <ele>458</ele>
        <time>2016-07-17T05:02:08Z</time>
      </trkpt>
      <trkpt lat="43.52914" lon="5.86393">
        <ele>459</ele>
        <time>2016-07-17T05:02:10Z</time>
      </trkpt>
      <trkpt lat="43.52917" lon="5.86389">
        <ele>459</ele>
        <time>2016-07-17T05:02:12Z</time>
      </trkpt>
      <trkpt lat="43.5292" lon="5.86384">
        <ele>460</ele>
        <time>2016-07-17T05:02:14Z</time>
      </trkpt>
      <trkpt lat="43.52924" lon="5.86377">
        <ele>460</ele>
        <time>2016-07-17T05:02:17Z</time>
      </trkpt>
      <trkpt lat="43.52929" lon="5.86372">
        <ele>461</ele>
        <time>2016-07-17T05:02:20Z</time>
      </trkpt>
      <trkpt lat="43.52932" lon="5.86367">
        <ele>461</ele>
        <time>2016-07-17T05:02:22Z</time>
      </trkpt>
      <trkpt lat="43.52938" lon="5.86365">
        <ele>461</ele>
        <time>2016-07-17T05:02:24Z</time>
      </trkpt>
      <trkpt lat="43.52942" lon="5.86361">
        <ele>461</ele>
        <time>2016-07-17T05:02:26Z</time>
      </trkpt>
      <trkpt lat="43.52946" lon="5.86355">
        <ele>461</ele>
        <time>2016-07-17T05:02:29Z</time>
      </trkpt>
      <trkpt lat="43.52952" lon="5.8635">
        <ele>461</ele>
        <time>2016-07-17T05:02:32Z</time>
      </trkpt>
      <trkpt lat="43.52957" lon="5.86346">
        <ele>461</ele>
        <time>2016-07-17T05:02:34Z</time>
      </trkpt>
      <trkpt lat="43.5296" lon="5.86342">
        <ele>461</ele>
        <time>2016-07-17T05:02:36Z</time>
      </trkpt>
      <trkpt lat="43.52964" lon="5.86338">
        <ele>461</ele>
        <time>2016-07-17T05:02:38Z</time>
      </trkpt>
      <trkpt lat="43.52968" lon="5.86333">
        <ele>463</ele>
        <time>2016-07-17T05:02:40Z</time>
      </trkpt>
      <trkpt lat="43.52971" lon="5.86329">
        <ele>462</ele>
        <time>2016-07-17T05:02:42Z</time>
      </trkpt>
      <trkpt lat="43.52975" lon="5.86324">
        <ele>462</ele>
        <time>2016-07-17T05:02:44Z</time>
      </trkpt>
      <trkpt lat="43.52978" lon="5.86318">
        <ele>462</ele>
        <time>2016-07-17T05:02:46Z</time>
      </trkpt>
      <trkpt lat="43.5298" lon="5.86312">
        <ele>462</ele>
        <time>2016-07-17T05:02:48Z</time>
      </trkpt>
      <trkpt lat="43.52982" lon="5.86305">
        <ele>463</ele>
        <time>2016-07-17T05:02:50Z</time>
      </trkpt>
      <trkpt lat="43.52984" lon="5.86299">
        <ele>463</ele>
        <time>2016-07-17T05:02:52Z</time>
      </trkpt>
      <trkpt lat="43.52986" lon="5.86291">
        <ele>463</ele>
        <time>2016-07-17T05:02:55Z</time>
      </trkpt>
      <trkpt lat="43.52988" lon="5.86285">
        <ele>463</ele>
        <time>2016-07-17T05:02:58Z</time>
      </trkpt>
      <trkpt lat="43.5299" lon="5.86278">
        <ele>463</ele>
        <time>2016-07-17T05:03:03Z</time>
      </trkpt>
      <trkpt lat="43.52991" lon="5.8627">
        <ele>462</ele>
        <time>2016-07-17T05:03:06Z</time>
      </trkpt>
      <trkpt lat="43.52992" lon="5.86262">
        <ele>462</ele>
        <time>2016-07-17T05:03:09Z</time>
      </trkpt>
      <trkpt lat="43.52993" lon="5.86255">
        <ele>461</ele>
        <time>2016-07-17T05:03:12Z</time>
      </trkpt>
      <trkpt lat="43.52994" lon="5.86247">
        <ele>462</ele>
        <time>2016-07-17T05:03:15Z</time>
      </trkpt>
      <trkpt lat="43.52995" lon="5.86239">
        <ele>464</ele>
        <time>2016-07-17T05:03:18Z</time>
      </trkpt>
      <trkpt lat="43.52997" lon="5.86229">
        <ele>466</ele>
        <time>2016-07-17T05:03:21Z</time>
      </trkpt>
      <trkpt lat="43.52997" lon="5.86221">
        <ele>467</ele>
        <time>2016-07-17T05:03:24Z</time>
      </trkpt>
      <trkpt lat="43.52999" lon="5.86213">
        <ele>468</ele>
        <time>2016-07-17T05:03:27Z</time>
      </trkpt>
      <trkpt lat="43.53001" lon="5.86205">
        <ele>464</ele>
        <time>2016-07-17T05:03:30Z</time>
      </trkpt>
      <trkpt lat="43.53004" lon="5.86198">
        <ele>465</ele>
        <time>2016-07-17T05:03:33Z</time>
      </trkpt>
      <trkpt lat="43.53008" lon="5.86193">
        <ele>465</ele>
        <time>2016-07-17T05:03:36Z</time>
      </trkpt>
      <trkpt lat="43.53014" lon="5.86191">
        <ele>465</ele>
        <time>2016-07-17T05:03:39Z</time>
      </trkpt>
      <trkpt lat="43.53019" lon="5.86186">
        <ele>465</ele>
        <time>2016-07-17T05:03:42Z</time>
      </trkpt>
      <trkpt lat="43.53024" lon="5.86182">
        <ele>465</ele>
        <time>2016-07-17T05:03:45Z</time>
      </trkpt>
      <trkpt lat="43.53029" lon="5.86177">
        <ele>465</ele>
        <time>2016-07-17T05:03:49Z</time>
      </trkpt>
      <trkpt lat="43.53032" lon="5.86173">
        <ele>465</ele>
        <time>2016-07-17T05:03:52Z</time>
      </trkpt>
      <trkpt lat="43.53036" lon="5.86168">
        <ele>465</ele>
        <time>2016-07-17T05:03:55Z</time>
      </trkpt>
      <trkpt lat="43.53042" lon="5.86165">
        <ele>467</ele>
        <time>2016-07-17T05:03:58Z</time>
      </trkpt>
      <trkpt lat="43.53047" lon="5.86163">
        <ele>467</ele>
        <time>2016-07-17T05:04:00Z</time>
      </trkpt>
      <trkpt lat="43.53052" lon="5.86161">
        <ele>467</ele>
        <time>2016-07-17T05:04:02Z</time>
      </trkpt>
      <trkpt lat="43.53056" lon="5.86157">
        <ele>466</ele>
        <time>2016-07-17T05:04:04Z</time>
      </trkpt>
      <trkpt lat="43.5306" lon="5.86154">
        <ele>466</ele>
        <time>2016-07-17T05:04:06Z</time>
      </trkpt>
      <trkpt lat="43.53064" lon="5.86151">
        <ele>466</ele>
        <time>2016-07-17T05:04:08Z</time>
      </trkpt>
      <trkpt lat="43.53068" lon="5.86144">
        <ele>466</ele>
        <time>2016-07-17T05:04:11Z</time>
      </trkpt>
      <trkpt lat="43.53073" lon="5.86137">
        <ele>467</ele>
        <time>2016-07-17T05:04:14Z</time>
      </trkpt>
      <trkpt lat="43.53077" lon="5.8613">
        <ele>467</ele>
        <time>2016-07-17T05:04:17Z</time>
      </trkpt>
      <trkpt lat="43.53081" lon="5.86126">
        <ele>467</ele>
        <time>2016-07-17T05:04:19Z</time>
      </trkpt>
      <trkpt lat="43.53085" lon="5.86122">
        <ele>466</ele>
        <time>2016-07-17T05:04:21Z</time>
      </trkpt>
      <trkpt lat="43.53089" lon="5.86116">
        <ele>466</ele>
        <time>2016-07-17T05:04:24Z</time>
      </trkpt>
      <trkpt lat="43.53093" lon="5.86112">
        <ele>466</ele>
        <time>2016-07-17T05:04:26Z</time>
      </trkpt>
      <trkpt lat="43.53098" lon="5.86108">
        <ele>466</ele>
        <time>2016-07-17T05:04:28Z</time>
      </trkpt>
      <trkpt lat="43.53101" lon="5.86104">
        <ele>466</ele>
        <time>2016-07-17T05:04:30Z</time>
      </trkpt>
      <trkpt lat="43.53106" lon="5.86098">
        <ele>467</ele>
        <time>2016-07-17T05:04:33Z</time>
      </trkpt>
      <trkpt lat="43.5311" lon="5.86093">
        <ele>466</ele>
        <time>2016-07-17T05:04:35Z</time>
      </trkpt>
      <trkpt lat="43.53115" lon="5.86087">
        <ele>466</ele>
        <time>2016-07-17T05:04:38Z</time>
      </trkpt>
      <trkpt lat="43.5312" lon="5.86083">
        <ele>468</ele>
        <time>2016-07-17T05:04:41Z</time>
      </trkpt>
      <trkpt lat="43.53126" lon="5.86081">
        <ele>468</ele>
        <time>2016-07-17T05:04:44Z</time>
      </trkpt>
      <trkpt lat="43.5313" lon="5.8608">
        <ele>468</ele>
        <time>2016-07-17T05:04:46Z</time>
      </trkpt>
      <trkpt lat="43.53135" lon="5.86077">
        <ele>468</ele>
        <time>2016-07-17T05:04:48Z</time>
      </trkpt>
      <trkpt lat="43.5314" lon="5.86075">
        <ele>467</ele>
        <time>2016-07-17T05:04:50Z</time>
      </trkpt>
      <trkpt lat="43.53146" lon="5.86071">
        <ele>467</ele>
        <time>2016-07-17T05:04:52Z</time>
      </trkpt>
      <trkpt lat="43.53151" lon="5.86067">
        <ele>467</ele>
        <time>2016-07-17T05:04:54Z</time>
      </trkpt>
      <trkpt lat="43.53155" lon="5.86064">
        <ele>467</ele>
        <time>2016-07-17T05:04:56Z</time>
      </trkpt>
      <trkpt lat="43.5316" lon="5.86061">
        <ele>467</ele>
        <time>2016-07-17T05:04:58Z</time>
      </trkpt>
      <trkpt lat="43.53163" lon="5.86057">
        <ele>468</ele>
        <time>2016-07-17T05:05:00Z</time>
      </trkpt>
      <trkpt lat="43.53168" lon="5.86054">
        <ele>467</ele>
        <time>2016-07-17T05:05:02Z</time>
      </trkpt>
      <trkpt lat="43.53173" lon="5.86052">
        <ele>467</ele>
        <time>2016-07-17T05:05:05Z</time>
      </trkpt>
      <trkpt lat="43.53178" lon="5.86051">
        <ele>467</ele>
        <time>2016-07-17T05:05:09Z</time>
      </trkpt>
      <trkpt lat="43.53184" lon="5.86057">
        <ele>467</ele>
        <time>2016-07-17T05:05:36Z</time>
      </trkpt>
      <trkpt lat="43.53188" lon="5.8606">
        <ele>467</ele>
        <time>2016-07-17T05:05:42Z</time>
      </trkpt>
      <trkpt lat="43.53203" lon="5.86043">
        <ele>468</ele>
        <time>2016-07-17T05:13:16Z</time>
      </trkpt>
      <trkpt lat="43.53217" lon="5.86024">
        <ele>469</ele>
        <time>2016-07-17T05:13:24Z</time>
      </trkpt>
      <trkpt lat="43.53224" lon="5.85999">
        <ele>473</ele>
        <time>2016-07-17T05:13:33Z</time>
      </trkpt>
      <trkpt lat="43.53233" lon="5.85976">
        <ele>473</ele>
        <time>2016-07-17T05:13:43Z</time>
      </trkpt>
      <trkpt lat="43.53242" lon="5.85954">
        <ele>474</ele>
        <time>2016-07-17T05:13:50Z</time>
      </trkpt>
      <trkpt lat="43.53258" lon="5.85939">
        <ele>475</ele>
        <time>2016-07-17T05:13:59Z</time>
      </trkpt>
      <trkpt lat="43.53276" lon="5.85929">
        <ele>475</ele>
        <time>2016-07-17T05:14:08Z</time>
      </trkpt>
      <trkpt lat="43.53293" lon="5.85917">
        <ele>475</ele>
        <time>2016-07-17T05:14:16Z</time>
      </trkpt>
      <trkpt lat="43.5331" lon="5.85909">
        <ele>475</ele>
        <time>2016-07-17T05:14:21Z</time>
      </trkpt>
      <trkpt lat="43.53327" lon="5.85895">
        <ele>475</ele>
        <time>2016-07-17T05:14:28Z</time>
      </trkpt>
      <trkpt lat="43.53349" lon="5.85894">
        <ele>476</ele>
        <time>2016-07-17T05:14:33Z</time>
      </trkpt>
      <trkpt lat="43.53366" lon="5.85901">
        <ele>477</ele>
        <time>2016-07-17T05:14:40Z</time>
      </trkpt>
      <trkpt lat="43.53384" lon="5.85908">
        <ele>478</ele>
        <time>2016-07-17T05:14:49Z</time>
      </trkpt>
      <trkpt lat="43.534" lon="5.85894">
        <ele>479</ele>
        <time>2016-07-17T05:15:01Z</time>
      </trkpt>
      <trkpt lat="43.53413" lon="5.85878">
        <ele>479</ele>
        <time>2016-07-17T05:15:08Z</time>
      </trkpt>
      <trkpt lat="43.53426" lon="5.85855">
        <ele>483</ele>
        <time>2016-07-17T05:15:17Z</time>
      </trkpt>
      <trkpt lat="43.53433" lon="5.85832">
        <ele>484</ele>
        <time>2016-07-17T05:15:25Z</time>
      </trkpt>
      <trkpt lat="43.53444" lon="5.85808">
        <ele>485</ele>
        <time>2016-07-17T05:15:34Z</time>
      </trkpt>
      <trkpt lat="43.5346" lon="5.85791">
        <ele>485</ele>
        <time>2016-07-17T05:15:41Z</time>
      </trkpt>
      <trkpt lat="43.53477" lon="5.85781">
        <ele>485</ele>
        <time>2016-07-17T05:15:48Z</time>
      </trkpt>
      <trkpt lat="43.53494" lon="5.85772">
        <ele>485</ele>
        <time>2016-07-17T05:15:56Z</time>
      </trkpt>
      <trkpt lat="43.53512" lon="5.85764">
        <ele>486</ele>
        <time>2016-07-17T05:16:04Z</time>
      </trkpt>
      <trkpt lat="43.53531" lon="5.85753">
        <ele>486</ele>
        <time>2016-07-17T05:16:12Z</time>
      </trkpt>
      <trkpt lat="43.53547" lon="5.85738">
        <ele>486</ele>
        <time>2016-07-17T05:16:19Z</time>
      </trkpt>
      <trkpt lat="43.53562" lon="5.85723">
        <ele>487</ele>
        <time>2016-07-17T05:16:27Z</time>
      </trkpt>
      <trkpt lat="43.53578" lon="5.85708">
        <ele>487</ele>
        <time>2016-07-17T05:16:34Z</time>
      </trkpt>
      <trkpt lat="43.53595" lon="5.85697">
        <ele>488</ele>
        <time>2016-07-17T05:16:40Z</time>
      </trkpt>
      <trkpt lat="43.53614" lon="5.85689">
        <ele>488</ele>
        <time>2016-07-17T05:16:47Z</time>
      </trkpt>
      <trkpt lat="43.53631" lon="5.85678">
        <ele>488</ele>
        <time>2016-07-17T05:16:55Z</time>
      </trkpt>
      <trkpt lat="43.53647" lon="5.85664">
        <ele>488</ele>
        <time>2016-07-17T05:17:03Z</time>
      </trkpt>
      <trkpt lat="43.53663" lon="5.85652">
        <ele>488</ele>
        <time>2016-07-17T05:18:06Z</time>
      </trkpt>
      <trkpt lat="43.53683" lon="5.85652">
        <ele>489</ele>
        <time>2016-07-17T05:21:13Z</time>
      </trkpt>
      <trkpt lat="43.53702" lon="5.85649">
        <ele>490</ele>
        <time>2016-07-17T05:21:21Z</time>
      </trkpt>
      <trkpt lat="43.53721" lon="5.85649">
        <ele>490</ele>
        <time>2016-07-17T05:21:29Z</time>
      </trkpt>
      <trkpt lat="43.53741" lon="5.85642">
        <ele>491</ele>
        <time>2016-07-17T05:21:36Z</time>
      </trkpt>
      <trkpt lat="43.5376" lon="5.85632">
        <ele>492</ele>
        <time>2016-07-17T05:21:43Z</time>
      </trkpt>
      <trkpt lat="43.53778" lon="5.85624">
        <ele>492</ele>
        <time>2016-07-17T05:21:50Z</time>
      </trkpt>
      <trkpt lat="43.53797" lon="5.85616">
        <ele>492</ele>
        <time>2016-07-17T05:21:57Z</time>
      </trkpt>
      <trkpt lat="43.53816" lon="5.85611">
        <ele>492</ele>
        <time>2016-07-17T05:22:04Z</time>
      </trkpt>
      <trkpt lat="43.53834" lon="5.85609">
        <ele>493</ele>
        <time>2016-07-17T05:22:13Z</time>
      </trkpt>
      <trkpt lat="43.53853" lon="5.85619">
        <ele>493</ele>
        <time>2016-07-17T05:22:28Z</time>
      </trkpt>
      <trkpt lat="43.53869" lon="5.8563">
        <ele>494</ele>
        <time>2016-07-17T05:22:39Z</time>
      </trkpt>
      <trkpt lat="43.53885" lon="5.85643">
        <ele>494</ele>
        <time>2016-07-17T05:22:48Z</time>
      </trkpt>
      <trkpt lat="43.53903" lon="5.85653">
        <ele>495</ele>
        <time>2016-07-17T05:22:57Z</time>
      </trkpt>
      <trkpt lat="43.53921" lon="5.85662">
        <ele>496</ele>
        <time>2016-07-17T05:23:06Z</time>
      </trkpt>
      <trkpt lat="43.53939" lon="5.85669">
        <ele>497</ele>
        <time>2016-07-17T05:23:14Z</time>
      </trkpt>
      <trkpt lat="43.53958" lon="5.85675">
        <ele>497</ele>
        <time>2016-07-17T05:23:23Z</time>
      </trkpt>
      <trkpt lat="43.53975" lon="5.85682">
        <ele>497</ele>
        <time>2016-07-17T05:23:31Z</time>
      </trkpt>
      <trkpt lat="43.53994" lon="5.85687">
        <ele>497</ele>
        <time>2016-07-17T05:23:39Z</time>
      </trkpt>
      <trkpt lat="43.54012" lon="5.85687">
        <ele>497</ele>
        <time>2016-07-17T05:23:48Z</time>
      </trkpt>
      <trkpt lat="43.5403" lon="5.85696">
        <ele>497</ele>
        <time>2016-07-17T05:23:58Z</time>
      </trkpt>
      <trkpt lat="43.5405" lon="5.85699">
        <ele>497</ele>
        <time>2016-07-17T05:24:08Z</time>
      </trkpt>
      <trkpt lat="43.54067" lon="5.85706">
        <ele>497</ele>
        <time>2016-07-17T05:24:15Z</time>
      </trkpt>
      <trkpt lat="43.54084" lon="5.85714">
        <ele>497</ele>
        <time>2016-07-17T05:24:24Z</time>
      </trkpt>
      <trkpt lat="43.54098" lon="5.85733">
        <ele>497</ele>
        <time>2016-07-17T05:24:37Z</time>
      </trkpt>
      <trkpt lat="43.54118" lon="5.85746">
        <ele>497</ele>
        <time>2016-07-17T05:24:46Z</time>
      </trkpt>
      <trkpt lat="43.54136" lon="5.85759">
        <ele>496</ele>
        <time>2016-07-17T05:24:53Z</time>
      </trkpt>
      <trkpt lat="43.5415" lon="5.85778">
        <ele>496</ele>
        <time>2016-07-17T05:24:59Z</time>
      </trkpt>
      <trkpt lat="43.5417" lon="5.85781">
        <ele>495</ele>
        <time>2016-07-17T05:25:08Z</time>
      </trkpt>
      <trkpt lat="43.54185" lon="5.85767">
        <ele>495</ele>
        <time>2016-07-17T05:25:14Z</time>
      </trkpt>
      <trkpt lat="43.54206" lon="5.85763">
        <ele>495</ele>
        <time>2016-07-17T05:25:20Z</time>
      </trkpt>
      <trkpt lat="43.54221" lon="5.85748">
        <ele>497</ele>
        <time>2016-07-17T05:25:28Z</time>
      </trkpt>
      <trkpt lat="43.54235" lon="5.85733">
        <ele>497</ele>
        <time>2016-07-17T05:25:35Z</time>
      </trkpt>
      <trkpt lat="43.54238" lon="5.85708">
        <ele>498</ele>
        <time>2016-07-17T05:25:42Z</time>
      </trkpt>
      <trkpt lat="43.54242" lon="5.85682">
        <ele>499</ele>
        <time>2016-07-17T05:25:50Z</time>
      </trkpt>
      <trkpt lat="43.54251" lon="5.85659">
        <ele>500</ele>
        <time>2016-07-17T05:25:58Z</time>
      </trkpt>
      <trkpt lat="43.54265" lon="5.85643">
        <ele>500</ele>
        <time>2016-07-17T05:26:17Z</time>
      </trkpt>
      <trkpt lat="43.54282" lon="5.85647">
        <ele>500</ele>
        <time>2016-07-17T05:35:05Z</time>
      </trkpt>
      <trkpt lat="43.54303" lon="5.85648">
        <ele>500</ele>
        <time>2016-07-17T05:35:09Z</time>
      </trkpt>
      <trkpt lat="43.5432" lon="5.85644">
        <ele>500</ele>
        <time>2016-07-17T05:35:12Z</time>
      </trkpt>
      <trkpt lat="43.54341" lon="5.85636">
        <ele>500</ele>
        <time>2016-07-17T05:35:16Z</time>
      </trkpt>
      <trkpt lat="43.54359" lon="5.85627">
        <ele>500</ele>
        <time>2016-07-17T05:35:20Z</time>
      </trkpt>
      <trkpt lat="43.54381" lon="5.85623">
        <ele>500</ele>
        <time>2016-07-17T05:35:25Z</time>
      </trkpt>
      <trkpt lat="43.54397" lon="5.85612">
        <ele>501</ele>
        <time>2016-07-17T05:35:30Z</time>
      </trkpt>
      <trkpt lat="43.54398" lon="5.85587">
        <ele>501</ele>
        <time>2016-07-17T05:35:35Z</time>
      </trkpt>
      <trkpt lat="43.54404" lon="5.85562">
        <ele>501</ele>
        <time>2016-07-17T05:35:40Z</time>
      </trkpt>
      <trkpt lat="43.54395" lon="5.85536">
        <ele>501</ele>
        <time>2016-07-17T05:35:46Z</time>
      </trkpt>
      <trkpt lat="43.5438" lon="5.85516">
        <ele>501</ele>
        <time>2016-07-17T05:35:52Z</time>
      </trkpt>
      <trkpt lat="43.5437" lon="5.85494">
        <ele>501</ele>
        <time>2016-07-17T05:35:57Z</time>
      </trkpt>
      <trkpt lat="43.54379" lon="5.85468">
        <ele>501</ele>
        <time>2016-07-17T05:36:02Z</time>
      </trkpt>
      <trkpt lat="43.54379" lon="5.8544">
        <ele>501</ele>
        <time>2016-07-17T05:36:07Z</time>
      </trkpt>
      <trkpt lat="43.54392" lon="5.85417">
        <ele>502</ele>
        <time>2016-07-17T05:36:12Z</time>
      </trkpt>
      <trkpt lat="43.54406" lon="5.85397">
        <ele>503</ele>
        <time>2016-07-17T05:36:17Z</time>
      </trkpt>
      <trkpt lat="43.54422" lon="5.8538">
        <ele>503</ele>
        <time>2016-07-17T05:36:22Z</time>
      </trkpt>
      <trkpt lat="43.54437" lon="5.85363">
        <ele>504</ele>
        <time>2016-07-17T05:36:27Z</time>
      </trkpt>
      <trkpt lat="43.54447" lon="5.85339">
        <ele>504</ele>
        <time>2016-07-17T05:36:33Z</time>
      </trkpt>
      <trkpt lat="43.54455" lon="5.85314">
        <ele>504</ele>
        <time>2016-07-17T05:36:39Z</time>
      </trkpt>
      <trkpt lat="43.54468" lon="5.8529">
        <ele>504</ele>
        <time>2016-07-17T05:36:45Z</time>
      </trkpt>
      <trkpt lat="43.54478" lon="5.85269">
        <ele>504</ele>
        <time>2016-07-17T05:36:50Z</time>
      </trkpt>
      <trkpt lat="43.54488" lon="5.85245">
        <ele>504</ele>
        <time>2016-07-17T05:36:56Z</time>
      </trkpt>
      <trkpt lat="43.54497" lon="5.8522">
        <ele>504</ele>
        <time>2016-07-17T05:37:02Z</time>
      </trkpt>
      <trkpt lat="43.54507" lon="5.85196">
        <ele>504</ele>
        <time>2016-07-17T05:37:08Z</time>
      </trkpt>
      <trkpt lat="43.54515" lon="5.85169">
        <ele>504</ele>
        <time>2016-07-17T05:37:14Z</time>
      </trkpt>
      <trkpt lat="43.54528" lon="5.85146">
        <ele>505</ele>
        <time>2016-07-17T05:37:20Z</time>
      </trkpt>
      <trkpt lat="43.54538" lon="5.85119">
        <ele>506</ele>
        <time>2016-07-17T05:37:26Z</time>
      </trkpt>
      <trkpt lat="43.5454" lon="5.85091">
        <ele>506</ele>
        <time>2016-07-17T05:37:32Z</time>
      </trkpt>
      <trkpt lat="43.5454" lon="5.85065">
        <ele>508</ele>
        <time>2016-07-17T05:37:37Z</time>
      </trkpt>
      <trkpt lat="43.54543" lon="5.85041">
        <ele>508</ele>
        <time>2016-07-17T05:37:42Z</time>
      </trkpt>
      <trkpt lat="43.54539" lon="5.85015">
        <ele>508</ele>
        <time>2016-07-17T05:37:51Z</time>
      </trkpt>
      <trkpt lat="43.54535" lon="5.8499">
        <ele>509</ele>
        <time>2016-07-17T05:37:59Z</time>
      </trkpt>
      <trkpt lat="43.54529" lon="5.84966">
        <ele>509</ele>
        <time>2016-07-17T05:38:20Z</time>
      </trkpt>
      <trkpt lat="43.54548" lon="5.84962">
        <ele>509</ele>
        <time>2016-07-17T05:38:34Z</time>
      </trkpt>
      <trkpt lat="43.54566" lon="5.84961">
        <ele>509</ele>
        <time>2016-07-17T05:38:41Z</time>
      </trkpt>
      <trkpt lat="43.54585" lon="5.84961">
        <ele>508</ele>
        <time>2016-07-17T05:38:47Z</time>
      </trkpt>
      <trkpt lat="43.54606" lon="5.84959">
        <ele>508</ele>
        <time>2016-07-17T05:38:52Z</time>
      </trkpt>
      <trkpt lat="43.54628" lon="5.84959">
        <ele>507</ele>
        <time>2016-07-17T05:38:57Z</time>
      </trkpt>
      <trkpt lat="43.54646" lon="5.84958">
        <ele>507</ele>
        <time>2016-07-17T05:39:01Z</time>
      </trkpt>
      <trkpt lat="43.54664" lon="5.84957">
        <ele>507</ele>
        <time>2016-07-17T05:39:05Z</time>
      </trkpt>
      <trkpt lat="43.54683" lon="5.84955">
        <ele>508</ele>
        <time>2016-07-17T05:39:09Z</time>
      </trkpt>
      <trkpt lat="43.54705" lon="5.84954">
        <ele>508</ele>
        <time>2016-07-17T05:39:14Z</time>
      </trkpt>
      <trkpt lat="43.54726" lon="5.84953">
        <ele>509</ele>
        <time>2016-07-17T05:39:19Z</time>
      </trkpt>
      <trkpt lat="43.54749" lon="5.84953">
        <ele>509</ele>
        <time>2016-07-17T05:39:24Z</time>
      </trkpt>
      <trkpt lat="43.54769" lon="5.84952">
        <ele>509</ele>
        <time>2016-07-17T05:39:29Z</time>
      </trkpt>
      <trkpt lat="43.54787" lon="5.84952">
        <ele>509</ele>
        <time>2016-07-17T05:39:34Z</time>
      </trkpt>
      <trkpt lat="43.54809" lon="5.8495">
        <ele>508</ele>
        <time>2016-07-17T05:39:39Z</time>
      </trkpt>
      <trkpt lat="43.54828" lon="5.8495">
        <ele>508</ele>
        <time>2016-07-17T05:39:43Z</time>
      </trkpt>
      <trkpt lat="43.54847" lon="5.8495">
        <ele>508</ele>
        <time>2016-07-17T05:39:47Z</time>
      </trkpt>
      <trkpt lat="43.54868" lon="5.84949">
        <ele>508</ele>
        <time>2016-07-17T05:39:52Z</time>
      </trkpt>
      <trkpt lat="43.54889" lon="5.84948">
        <ele>508</ele>
        <time>2016-07-17T05:39:57Z</time>
      </trkpt>
      <trkpt lat="43.54911" lon="5.84948">
        <ele>509</ele>
        <time>2016-07-17T05:40:02Z</time>
      </trkpt>
      <trkpt lat="43.54929" lon="5.84947">
        <ele>510</ele>
        <time>2016-07-17T05:40:06Z</time>
      </trkpt>
      <trkpt lat="43.54951" lon="5.84946">
        <ele>511</ele>
        <time>2016-07-17T05:40:11Z</time>
      </trkpt>
      <trkpt lat="43.54969" lon="5.84945">
        <ele>511</ele>
        <time>2016-07-17T05:40:15Z</time>
      </trkpt>
      <trkpt lat="43.5499" lon="5.84945">
        <ele>512</ele>
        <time>2016-07-17T05:40:20Z</time>
      </trkpt>
      <trkpt lat="43.5501" lon="5.84944">
        <ele>514</ele>
        <time>2016-07-17T05:40:25Z</time>
      </trkpt>
      <trkpt lat="43.5503" lon="5.84943">
        <ele>514</ele>
        <time>2016-07-17T05:40:30Z</time>
      </trkpt>
      <trkpt lat="43.55049" lon="5.84943">
        <ele>514</ele>
        <time>2016-07-17T05:40:35Z</time>
      </trkpt>
      <trkpt lat="43.55069" lon="5.84942">
        <ele>515</ele>
        <time>2016-07-17T05:40:40Z</time>
      </trkpt>
      <trkpt lat="43.5509" lon="5.84941">
        <ele>516</ele>
        <time>2016-07-17T05:40:45Z</time>
      </trkpt>
      <trkpt lat="43.55109" lon="5.84941">
        <ele>516</ele>
        <time>2016-07-17T05:40:50Z</time>
      </trkpt>
      <trkpt lat="43.5513" lon="5.84941">
        <ele>517</ele>
        <time>2016-07-17T05:40:56Z</time>
      </trkpt>
      <trkpt lat="43.55149" lon="5.8494">
        <ele>517</ele>
        <time>2016-07-17T05:41:01Z</time>
      </trkpt>
      <trkpt lat="43.55169" lon="5.84939">
        <ele>517</ele>
        <time>2016-07-17T05:41:06Z</time>
      </trkpt>
      <trkpt lat="43.55188" lon="5.84938">
        <ele>518</ele>
        <time>2016-07-17T05:41:11Z</time>
      </trkpt>
      <trkpt lat="43.55207" lon="5.84938">
        <ele>518</ele>
        <time>2016-07-17T05:41:17Z</time>
      </trkpt>
      <trkpt lat="43.55224" lon="5.84947">
        <ele>518</ele>
        <time>2016-07-17T05:41:26Z</time>
      </trkpt>
      <trkpt lat="43.55237" lon="5.84969">
        <ele>518</ele>
        <time>2016-07-17T05:41:35Z</time>
      </trkpt>
      <trkpt lat="43.55249" lon="5.84988">
        <ele>518</ele>
        <time>2016-07-17T05:41:44Z</time>
      </trkpt>
      <trkpt lat="43.55257" lon="5.85011">
        <ele>518</ele>
        <time>2016-07-17T05:41:51Z</time>
      </trkpt>
      <trkpt lat="43.5526" lon="5.85038">
        <ele>517</ele>
        <time>2016-07-17T05:41:58Z</time>
      </trkpt>
      <trkpt lat="43.5526" lon="5.85064">
        <ele>518</ele>
        <time>2016-07-17T05:42:06Z</time>
      </trkpt>
      <trkpt lat="43.5526" lon="5.8509">
        <ele>518</ele>
        <time>2016-07-17T05:42:16Z</time>
      </trkpt>
      <trkpt lat="43.55269" lon="5.85112">
        <ele>519</ele>
        <time>2016-07-17T05:42:23Z</time>
      </trkpt>
      <trkpt lat="43.55278" lon="5.85135">
        <ele>519</ele>
        <time>2016-07-17T05:42:31Z</time>
      </trkpt>
      <trkpt lat="43.55271" lon="5.8516">
        <ele>519</ele>
        <time>2016-07-17T05:42:44Z</time>
      </trkpt>
      <trkpt lat="43.55261" lon="5.85184">
        <ele>520</ele>
        <time>2016-07-17T05:42:51Z</time>
      </trkpt>
      <trkpt lat="43.5525" lon="5.85209">
        <ele>521</ele>
        <time>2016-07-17T05:42:58Z</time>
      </trkpt>
      <trkpt lat="43.55249" lon="5.85234">
        <ele>519</ele>
        <time>2016-07-17T05:43:04Z</time>
      </trkpt>
      <trkpt lat="43.55252" lon="5.8526">
        <ele>521</ele>
        <time>2016-07-17T05:43:11Z</time>
      </trkpt>
      <trkpt lat="43.55264" lon="5.85282">
        <ele>523</ele>
        <time>2016-07-17T05:43:18Z</time>
      </trkpt>
      <trkpt lat="43.55272" lon="5.85306">
        <ele>524</ele>
        <time>2016-07-17T05:43:26Z</time>
      </trkpt>
      <trkpt lat="43.55279" lon="5.85332">
        <ele>524</ele>
        <time>2016-07-17T05:43:39Z</time>
      </trkpt>
      <trkpt lat="43.55271" lon="5.85357">
        <ele>526</ele>
        <time>2016-07-17T05:43:48Z</time>
      </trkpt>
      <trkpt lat="43.55269" lon="5.85383">
        <ele>526</ele>
        <time>2016-07-17T05:43:55Z</time>
      </trkpt>
      <trkpt lat="43.55263" lon="5.85409">
        <ele>526</ele>
        <time>2016-07-17T05:44:02Z</time>
      </trkpt>
      <trkpt lat="43.55254" lon="5.85432">
        <ele>527</ele>
        <time>2016-07-17T05:44:07Z</time>
      </trkpt>
      <trkpt lat="43.55248" lon="5.85457">
        <ele>524</ele>
        <time>2016-07-17T05:44:12Z</time>
      </trkpt>
      <trkpt lat="43.55244" lon="5.85486">
        <ele>525</ele>
        <time>2016-07-17T05:44:17Z</time>
      </trkpt>
      <trkpt lat="43.55241" lon="5.85516">
        <ele>526</ele>
        <time>2016-07-17T05:44:22Z</time>
      </trkpt>
      <trkpt lat="43.55237" lon="5.85544">
        <ele>526</ele>
        <time>2016-07-17T05:44:27Z</time>
      </trkpt>
      <trkpt lat="43.55225" lon="5.85568">
        <ele>526</ele>
        <time>2016-07-17T05:44:32Z</time>
      </trkpt>
      <trkpt lat="43.55212" lon="5.85591">
        <ele>528</ele>
        <time>2016-07-17T05:44:37Z</time>
      </trkpt>
      <trkpt lat="43.55202" lon="5.85615">
        <ele>528</ele>
        <time>2016-07-17T05:44:42Z</time>
      </trkpt>
      <trkpt lat="43.55198" lon="5.8564">
        <ele>528</ele>
        <time>2016-07-17T05:44:47Z</time>
      </trkpt>
      <trkpt lat="43.55191" lon="5.85663">
        <ele>528</ele>
        <time>2016-07-17T05:44:52Z</time>
      </trkpt>
      <trkpt lat="43.55181" lon="5.85688">
        <ele>530</ele>
        <time>2016-07-17T05:44:58Z</time>
      </trkpt>
      <trkpt lat="43.55175" lon="5.85714">
        <ele>530</ele>
        <time>2016-07-17T05:45:03Z</time>
      </trkpt>
      <trkpt lat="43.55163" lon="5.85739">
        <ele>528</ele>
        <time>2016-07-17T05:45:09Z</time>
      </trkpt>
      <trkpt lat="43.55153" lon="5.85761">
        <ele>528</ele>
        <time>2016-07-17T05:45:14Z</time>
      </trkpt>
      <trkpt lat="43.55144" lon="5.85787">
        <ele>527</ele>
        <time>2016-07-17T05:45:20Z</time>
      </trkpt>
      <trkpt lat="43.5513" lon="5.85806">
        <ele>527</ele>
        <time>2016-07-17T05:45:26Z</time>
      </trkpt>
      <trkpt lat="43.55121" lon="5.85828">
        <ele>527</ele>
        <time>2016-07-17T05:45:32Z</time>
      </trkpt>
      <trkpt lat="43.55112" lon="5.85852">
        <ele>526</ele>
        <time>2016-07-17T05:45:37Z</time>
      </trkpt>
      <trkpt lat="43.55103" lon="5.85875">
        <ele>526</ele>
        <time>2016-07-17T05:45:42Z</time>
      </trkpt>
      <trkpt lat="43.55101" lon="5.85904">
        <ele>525</ele>
        <time>2016-07-17T05:45:47Z</time>
      </trkpt>
      <trkpt lat="43.55099" lon="5.85932">
        <ele>524</ele>
        <time>2016-07-17T05:45:52Z</time>
      </trkpt>
      <trkpt lat="43.5509" lon="5.85955">
        <ele>524</ele>
        <time>2016-07-17T05:45:57Z</time>
      </trkpt>
      <trkpt lat="43.55085" lon="5.85983">
        <ele>523</ele>
        <time>2016-07-17T05:46:02Z</time>
      </trkpt>
      <trkpt lat="43.55078" lon="5.86008">
        <ele>521</ele>
        <time>2016-07-17T05:46:06Z</time>
      </trkpt>
      <trkpt lat="43.55069" lon="5.86031">
        <ele>520</ele>
        <time>2016-07-17T05:46:10Z</time>
      </trkpt>
      <trkpt lat="43.55074" lon="5.86058">
        <ele>519</ele>
        <time>2016-07-17T05:46:14Z</time>
      </trkpt>
      <trkpt lat="43.55076" lon="5.8609">
        <ele>517</ele>
        <time>2016-07-17T05:46:18Z</time>
      </trkpt>
      <trkpt lat="43.55076" lon="5.86115">
        <ele>517</ele>
        <time>2016-07-17T05:46:21Z</time>
      </trkpt>
      <trkpt lat="43.55075" lon="5.86147">
        <ele>516</ele>
        <time>2016-07-17T05:46:25Z</time>
      </trkpt>
      <trkpt lat="43.55083" lon="5.86171">
        <ele>514</ele>
        <time>2016-07-17T05:46:29Z</time>
      </trkpt>
      <trkpt lat="43.5508" lon="5.86201">
        <ele>513</ele>
        <time>2016-07-17T05:46:34Z</time>
      </trkpt>
      <trkpt lat="43.55074" lon="5.86226">
        <ele>512</ele>
        <time>2016-07-17T05:46:38Z</time>
      </trkpt>
      <trkpt lat="43.55066" lon="5.86252">
        <ele>508</ele>
        <time>2016-07-17T05:46:42Z</time>
      </trkpt>
      <trkpt lat="43.55058" lon="5.86277">
        <ele>508</ele>
        <time>2016-07-17T05:46:46Z</time>
      </trkpt>
      <trkpt lat="43.55046" lon="5.86302">
        <ele>507</ele>
        <time>2016-07-17T05:46:50Z</time>
      </trkpt>
      <trkpt lat="43.55036" lon="5.86324">
        <ele>507</ele>
        <time>2016-07-17T05:46:55Z</time>
      </trkpt>
      <trkpt lat="43.55056" lon="5.86323">
        <ele>505</ele>
        <time>2016-07-17T05:47:08Z</time>
      </trkpt>
      <trkpt lat="43.55074" lon="5.86307">
        <ele>505</ele>
        <time>2016-07-17T05:47:14Z</time>
      </trkpt>
      <trkpt lat="43.55093" lon="5.86294">
        <ele>501</ele>
        <time>2016-07-17T05:47:19Z</time>
      </trkpt>
      <trkpt lat="43.55113" lon="5.8628">
        <ele>501</ele>
        <time>2016-07-17T05:47:24Z</time>
      </trkpt>
      <trkpt lat="43.55122" lon="5.86255">
        <ele>501</ele>
        <time>2016-07-17T05:47:28Z</time>
      </trkpt>
      <trkpt lat="43.55126" lon="5.86227">
        <ele>506</ele>
        <time>2016-07-17T05:47:32Z</time>
      </trkpt>
      <trkpt lat="43.55132" lon="5.86201">
        <ele>507</ele>
        <time>2016-07-17T05:47:36Z</time>
      </trkpt>
      <trkpt lat="43.55149" lon="5.86185">
        <ele>507</ele>
        <time>2016-07-17T05:47:41Z</time>
      </trkpt>
      <trkpt lat="43.55167" lon="5.86203">
        <ele>503</ele>
        <time>2016-07-17T05:47:46Z</time>
      </trkpt>
      <trkpt lat="43.55183" lon="5.86226">
        <ele>501</ele>
        <time>2016-07-17T05:47:50Z</time>
      </trkpt>
      <trkpt lat="43.55197" lon="5.86246">
        <ele>500</ele>
        <time>2016-07-17T05:47:53Z</time>
      </trkpt>
      <trkpt lat="43.55212" lon="5.86268">
        <ele>493</ele>
        <time>2016-07-17T05:47:56Z</time>
      </trkpt>
      <trkpt lat="43.55224" lon="5.86289">
        <ele>492</ele>
        <time>2016-07-17T05:48:00Z</time>
      </trkpt>
      <trkpt lat="43.55238" lon="5.86308">
        <ele>490</ele>
        <time>2016-07-17T05:50:57Z</time>
      </trkpt>
      <trkpt lat="43.55257" lon="5.86316">
        <ele>487</ele>
        <time>2016-07-17T05:51:04Z</time>
      </trkpt>
      <trkpt lat="43.55278" lon="5.86323">
        <ele>487</ele>
        <time>2016-07-17T05:51:09Z</time>
      </trkpt>
      <trkpt lat="43.5529" lon="5.86321">
        <ele>487</ele>
      </trkpt>
      <trkpt lat="43.55302" lon="5.86325">
        <ele>487</ele>
      </trkpt>
      <trkpt lat="43.55318" lon="5.86325">
        <ele>485</ele>
      </trkpt>
      <trkpt lat="43.55331" lon="5.86325">
        <ele>484</ele>
      </trkpt>
      <trkpt lat="43.55341" lon="5.8634">
        <ele>481</ele>
        <time>2016-07-17T05:55:35Z</time>
      </trkpt>
      <trkpt lat="43.55354" lon="5.8636">
        <ele>480</ele>
        <time>2016-07-17T05:55:42Z</time>
      </trkpt>
      <trkpt lat="43.55368" lon="5.86379">
        <ele>480</ele>
        <time>2016-07-17T05:55:49Z</time>
      </trkpt>
      <trkpt lat="43.55379" lon="5.864">
        <ele>479</ele>
        <time>2016-07-17T05:55:55Z</time>
      </trkpt>
      <trkpt lat="43.55389" lon="5.86424">
        <ele>477</ele>
        <time>2016-07-17T05:56:01Z</time>
      </trkpt>
      <trkpt lat="43.55401" lon="5.86443">
        <ele>477</ele>
        <time>2016-07-17T05:56:06Z</time>
      </trkpt>
      <trkpt lat="43.55414" lon="5.86464">
        <ele>477</ele>
        <time>2016-07-17T05:56:11Z</time>
      </trkpt>
      <trkpt lat="43.55426" lon="5.86486">
        <ele>476</ele>
        <time>2016-07-17T05:56:16Z</time>
      </trkpt>
      <trkpt lat="43.55438" lon="5.86512">
        <ele>476</ele>
        <time>2016-07-17T05:56:21Z</time>
      </trkpt>
      <trkpt lat="43.55439" lon="5.8654">
        <ele>476</ele>
        <time>2016-07-17T05:56:26Z</time>
      </trkpt>
      <trkpt lat="43.55454" lon="5.86556">
        <ele>476</ele>
        <time>2016-07-17T05:56:31Z</time>
      </trkpt>
      <trkpt lat="43.55471" lon="5.86569">
        <ele>476</ele>
        <time>2016-07-17T05:56:37Z</time>
      </trkpt>
      <trkpt lat="43.5549" lon="5.86568">
        <ele>477</ele>
        <time>2016-07-17T05:56:43Z</time>
      </trkpt>
      <trkpt lat="43.5551" lon="5.86572">
        <ele>477</ele>
        <time>2016-07-17T05:56:51Z</time>
      </trkpt>
      <trkpt lat="43.55523" lon="5.86589">
        <ele>478</ele>
        <time>2016-07-17T05:56:58Z</time>
      </trkpt>
      <trkpt lat="43.55542" lon="5.86599">
        <ele>479</ele>
        <time>2016-07-17T05:57:06Z</time>
      </trkpt>
      <trkpt lat="43.55543" lon="5.86624">
        <ele>479</ele>
        <time>2016-07-17T05:57:23Z</time>
      </trkpt>
      <trkpt lat="43.55524" lon="5.86634">
        <ele>479</ele>
        <time>2016-07-17T05:57:31Z</time>
      </trkpt>
      <trkpt lat="43.55517" lon="5.86659">
        <ele>479</ele>
        <time>2016-07-17T05:57:39Z</time>
      </trkpt>
      <trkpt lat="43.55535" lon="5.86671">
        <ele>478</ele>
        <time>2016-07-17T05:57:47Z</time>
      </trkpt>
      <trkpt lat="43.55548" lon="5.86689">
        <ele>477</ele>
        <time>2016-07-17T05:57:53Z</time>
      </trkpt>
      <trkpt lat="43.55564" lon="5.86702">
        <ele>477</ele>
        <time>2016-07-17T05:57:59Z</time>
      </trkpt>
      <trkpt lat="43.55579" lon="5.86716">
        <ele>476</ele>
        <time>2016-07-17T05:58:05Z</time>
      </trkpt>
      <trkpt lat="43.55593" lon="5.86733">
        <ele>472</ele>
        <time>2016-07-17T05:58:12Z</time>
      </trkpt>
      <trkpt lat="43.5561" lon="5.86748">
        <ele>471</ele>
        <time>2016-07-17T05:58:17Z</time>
      </trkpt>
      <trkpt lat="43.55619" lon="5.86773">
        <ele>464</ele>
        <time>2016-07-17T05:58:24Z</time>
      </trkpt>
      <trkpt lat="43.55627" lon="5.86797">
        <ele>462</ele>
        <time>2016-07-17T05:58:30Z</time>
      </trkpt>
      <trkpt lat="43.55639" lon="5.86815">
        <ele>459</ele>
        <time>2016-07-17T05:58:36Z</time>
      </trkpt>
      <trkpt lat="43.55643" lon="5.86842">
        <ele>453</ele>
        <time>2016-07-17T05:58:43Z</time>
      </trkpt>
      <trkpt lat="43.55647" lon="5.8687">
        <ele>452</ele>
        <time>2016-07-17T05:58:48Z</time>
      </trkpt>
      <trkpt lat="43.55647" lon="5.86898">
        <ele>451</ele>
        <time>2016-07-17T05:58:53Z</time>
      </trkpt>
      <trkpt lat="43.55654" lon="5.86921">
        <ele>447</ele>
        <time>2016-07-17T05:58:58Z</time>
      </trkpt>
      <trkpt lat="43.55666" lon="5.86945">
        <ele>446</ele>
        <time>2016-07-17T05:59:04Z</time>
      </trkpt>
      <trkpt lat="43.55678" lon="5.86966">
        <ele>440</ele>
        <time>2016-07-17T05:59:09Z</time>
      </trkpt>
      <trkpt lat="43.5569" lon="5.86989">
        <ele>439</ele>
        <time>2016-07-17T05:59:14Z</time>
      </trkpt>
      <trkpt lat="43.55702" lon="5.8701">
        <ele>436</ele>
        <time>2016-07-17T05:59:19Z</time>
      </trkpt>
      <trkpt lat="43.55714" lon="5.87036">
        <ele>435</ele>
        <time>2016-07-17T05:59:25Z</time>
      </trkpt>
      <trkpt lat="43.55726" lon="5.87057">
        <ele>434</ele>
        <time>2016-07-17T05:59:30Z</time>
      </trkpt>
      <trkpt lat="43.55735" lon="5.87082">
        <ele>433</ele>
        <time>2016-07-17T05:59:36Z</time>
      </trkpt>
      <trkpt lat="43.55751" lon="5.87096">
        <ele>433</ele>
        <time>2016-07-17T05:59:42Z</time>
      </trkpt>
      <trkpt lat="43.55768" lon="5.87108">
        <ele>434</ele>
        <time>2016-07-17T05:59:47Z</time>
      </trkpt>
      <trkpt lat="43.55777" lon="5.87131">
        <ele>434</ele>
        <time>2016-07-17T05:59:55Z</time>
      </trkpt>
      <trkpt lat="43.55759" lon="5.8714">
        <ele>433</ele>
        <time>2016-07-17T06:02:54Z</time>
      </trkpt>
      <trkpt lat="43.5574" lon="5.8714">
        <ele>431</ele>
        <time>2016-07-17T06:03:01Z</time>
      </trkpt>
      <trkpt lat="43.55722" lon="5.87139">
        <ele>431</ele>
        <time>2016-07-17T06:03:09Z</time>
      </trkpt>
      <trkpt lat="43.55703" lon="5.87145">
        <ele>430</ele>
        <time>2016-07-17T06:03:23Z</time>
      </trkpt>
      <trkpt lat="43.55685" lon="5.87138">
        <ele>430</ele>
        <time>2016-07-17T06:03:45Z</time>
      </trkpt>
      <trkpt lat="43.55667" lon="5.87141">
        <ele>430</ele>
        <time>2016-07-17T06:03:53Z</time>
      </trkpt>
      <trkpt lat="43.55647" lon="5.87132">
        <ele>430</ele>
        <time>2016-07-17T06:04:02Z</time>
      </trkpt>
      <trkpt lat="43.5563" lon="5.87122">
        <ele>431</ele>
        <time>2016-07-17T06:04:08Z</time>
      </trkpt>
      <trkpt lat="43.55611" lon="5.87118">
        <ele>431</ele>
        <time>2016-07-17T06:04:16Z</time>
      </trkpt>
      <trkpt lat="43.55604" lon="5.87142">
        <ele>429</ele>
        <time>2016-07-17T06:04:25Z</time>
      </trkpt>
      <trkpt lat="43.55624" lon="5.87148">
        <ele>429</ele>
        <time>2016-07-17T06:04:33Z</time>
      </trkpt>
      <trkpt lat="43.55618" lon="5.87175">
        <ele>426</ele>
        <time>2016-07-17T06:04:39Z</time>
      </trkpt>
      <trkpt lat="43.55615" lon="5.87201">
        <ele>425</ele>
        <time>2016-07-17T06:04:44Z</time>
      </trkpt>
      <trkpt lat="43.55605" lon="5.87222">
        <ele>425</ele>
        <time>2016-07-17T06:04:52Z</time>
      </trkpt>
      <trkpt lat="43.55585" lon="5.87219">
        <ele>425</ele>
        <time>2016-07-17T06:05:00Z</time>
      </trkpt>
      <trkpt lat="43.55567" lon="5.87229">
        <ele>426</ele>
        <time>2016-07-17T06:05:08Z</time>
      </trkpt>
      <trkpt lat="43.55556" lon="5.87249">
        <ele>426</ele>
        <time>2016-07-17T06:05:18Z</time>
      </trkpt>
      <trkpt lat="43.55564" lon="5.87273">
        <ele>425</ele>
        <time>2016-07-17T06:05:27Z</time>
      </trkpt>
      <trkpt lat="43.5556" lon="5.873">
        <ele>425</ele>
        <time>2016-07-17T06:05:34Z</time>
      </trkpt>
      <trkpt lat="43.55552" lon="5.87323">
        <ele>425</ele>
        <time>2016-07-17T06:05:40Z</time>
      </trkpt>
      <trkpt lat="43.5556" lon="5.8735">
        <ele>424</ele>
        <time>2016-07-17T06:05:45Z</time>
      </trkpt>
      <trkpt lat="43.55562" lon="5.87376">
        <ele>424</ele>
        <time>2016-07-17T06:05:49Z</time>
      </trkpt>
      <trkpt lat="43.55557" lon="5.87403">
        <ele>423</ele>
        <time>2016-07-17T06:05:53Z</time>
      </trkpt>
      <trkpt lat="43.55558" lon="5.8743">
        <ele>423</ele>
        <time>2016-07-17T06:05:58Z</time>
      </trkpt>
      <trkpt lat="43.55565" lon="5.87458">
        <ele>423</ele>
        <time>2016-07-17T06:06:03Z</time>
      </trkpt>
      <trkpt lat="43.55575" lon="5.8748">
        <ele>423</ele>
        <time>2016-07-17T06:06:08Z</time>
      </trkpt>
      <trkpt lat="43.55582" lon="5.87503">
        <ele>421</ele>
        <time>2016-07-17T06:06:17Z</time>
      </trkpt>
      <trkpt lat="43.55593" lon="5.87527">
        <ele>423</ele>
        <time>2016-07-17T06:06:24Z</time>
      </trkpt>
      <trkpt lat="43.55596" lon="5.87553">
        <ele>424</ele>
        <time>2016-07-17T06:06:28Z</time>
      </trkpt>
      <trkpt lat="43.55595" lon="5.87578">
        <ele>423</ele>
        <time>2016-07-17T06:06:33Z</time>
      </trkpt>
      <trkpt lat="43.55605" lon="5.87602">
        <ele>425</ele>
        <time>2016-07-17T06:07:26Z</time>
      </trkpt>
      <trkpt lat="43.55609" lon="5.87627">
        <ele>426</ele>
        <time>2016-07-17T06:07:39Z</time>
      </trkpt>
      <trkpt lat="43.55608" lon="5.87652">
        <ele>425</ele>
        <time>2016-07-17T06:08:52Z</time>
      </trkpt>
      <trkpt lat="43.55609" lon="5.87678">
        <ele>427</ele>
        <time>2016-07-17T06:09:00Z</time>
      </trkpt>
      <trkpt lat="43.55604" lon="5.87706">
        <ele>428</ele>
        <time>2016-07-17T06:09:07Z</time>
      </trkpt>
      <trkpt lat="43.55596" lon="5.87731">
        <ele>428</ele>
        <time>2016-07-17T06:09:13Z</time>
      </trkpt>
      <trkpt lat="43.55586" lon="5.87753">
        <ele>426</ele>
        <time>2016-07-17T06:09:19Z</time>
      </trkpt>
      <trkpt lat="43.55577" lon="5.87777">
        <ele>425</ele>
        <time>2016-07-17T06:09:25Z</time>
      </trkpt>
      <trkpt lat="43.55568" lon="5.87803">
        <ele>427</ele>
        <time>2016-07-17T06:09:31Z</time>
      </trkpt>
      <trkpt lat="43.55559" lon="5.87827">
        <ele>428</ele>
        <time>2016-07-17T06:09:37Z</time>
      </trkpt>
      <trkpt lat="43.55549" lon="5.8785">
        <ele>431</ele>
        <time>2016-07-17T06:09:44Z</time>
      </trkpt>
      <trkpt lat="43.55536" lon="5.87872">
        <ele>431</ele>
        <time>2016-07-17T06:09:52Z</time>
      </trkpt>
      <trkpt lat="43.5553" lon="5.87897">
        <ele>431</ele>
        <time>2016-07-17T06:10:00Z</time>
      </trkpt>
      <trkpt lat="43.55525" lon="5.87923">
        <ele>432</ele>
        <time>2016-07-17T06:10:09Z</time>
      </trkpt>
      <trkpt lat="43.55525" lon="5.87949">
        <ele>433</ele>
        <time>2016-07-17T06:10:17Z</time>
      </trkpt>
      <trkpt lat="43.5553" lon="5.87974">
        <ele>433</ele>
        <time>2016-07-17T06:10:23Z</time>
      </trkpt>
      <trkpt lat="43.55536" lon="5.87998">
        <ele>433</ele>
        <time>2016-07-17T06:10:29Z</time>
      </trkpt>
      <trkpt lat="43.55543" lon="5.88022">
        <ele>433</ele>
        <time>2016-07-17T06:10:35Z</time>
      </trkpt>
      <trkpt lat="43.55553" lon="5.88046">
        <ele>433</ele>
        <time>2016-07-17T06:10:40Z</time>
      </trkpt>
      <trkpt lat="43.55567" lon="5.88063">
        <ele>432</ele>
        <time>2016-07-17T06:10:44Z</time>
      </trkpt>
      <trkpt lat="43.55581" lon="5.88081">
        <ele>431</ele>
        <time>2016-07-17T06:10:48Z</time>
      </trkpt>
      <trkpt lat="43.556" lon="5.88088">
        <ele>433</ele>
        <time>2016-07-17T06:10:53Z</time>
      </trkpt>
      <trkpt lat="43.55618" lon="5.88088">
        <ele>434</ele>
        <time>2016-07-17T06:10:59Z</time>
      </trkpt>
      <trkpt lat="43.55633" lon="5.88103">
        <ele>435</ele>
        <time>2016-07-17T06:11:05Z</time>
      </trkpt>
      <trkpt lat="43.55643" lon="5.88124">
        <ele>436</ele>
        <time>2016-07-17T06:11:12Z</time>
      </trkpt>
      <trkpt lat="43.55651" lon="5.88148">
        <ele>436</ele>
        <time>2016-07-17T06:11:20Z</time>
      </trkpt>
      <trkpt lat="43.5566" lon="5.88173">
        <ele>438</ele>
        <time>2016-07-17T06:11:28Z</time>
      </trkpt>
      <trkpt lat="43.55663" lon="5.882">
        <ele>438</ele>
        <time>2016-07-17T06:11:35Z</time>
      </trkpt>
      <trkpt lat="43.55666" lon="5.88226">
        <ele>439</ele>
        <time>2016-07-17T06:11:42Z</time>
      </trkpt>
      <trkpt lat="43.55671" lon="5.88252">
        <ele>439</ele>
        <time>2016-07-17T06:11:50Z</time>
      </trkpt>
      <trkpt lat="43.55685" lon="5.88267">
        <ele>441</ele>
        <time>2016-07-17T06:11:57Z</time>
      </trkpt>
      <trkpt lat="43.55696" lon="5.8829">
        <ele>442</ele>
        <time>2016-07-17T06:12:05Z</time>
      </trkpt>
      <trkpt lat="43.55711" lon="5.88309">
        <ele>443</ele>
        <time>2016-07-17T06:12:14Z</time>
      </trkpt>
      <trkpt lat="43.55725" lon="5.88328">
        <ele>444</ele>
        <time>2016-07-17T06:12:22Z</time>
      </trkpt>
      <trkpt lat="43.55733" lon="5.88351">
        <ele>445</ele>
        <time>2016-07-17T06:12:30Z</time>
      </trkpt>
      <trkpt lat="43.55737" lon="5.88379">
        <ele>445</ele>
        <time>2016-07-17T06:12:38Z</time>
      </trkpt>
      <trkpt lat="43.55741" lon="5.88403">
        <ele>445</ele>
        <time>2016-07-17T06:12:45Z</time>
      </trkpt>
      <trkpt lat="43.55743" lon="5.88428">
        <ele>446</ele>
        <time>2016-07-17T06:12:51Z</time>
      </trkpt>
      <trkpt lat="43.55747" lon="5.88454">
        <ele>444</ele>
        <time>2016-07-17T06:12:58Z</time>
      </trkpt>
      <trkpt lat="43.55752" lon="5.88481">
        <ele>448</ele>
        <time>2016-07-17T06:13:05Z</time>
      </trkpt>
      <trkpt lat="43.55757" lon="5.88506">
        <ele>446</ele>
        <time>2016-07-17T06:13:12Z</time>
      </trkpt>
      <trkpt lat="43.55764" lon="5.88531">
        <ele>449</ele>
        <time>2016-07-17T06:13:19Z</time>
      </trkpt>
      <trkpt lat="43.55772" lon="5.88555">
        <ele>449</ele>
        <time>2016-07-17T06:13:27Z</time>
      </trkpt>
      <trkpt lat="43.55786" lon="5.88571">
        <ele>450</ele>
        <time>2016-07-17T06:13:37Z</time>
      </trkpt>
      <trkpt lat="43.55803" lon="5.8858">
        <ele>452</ele>
        <time>2016-07-17T06:13:48Z</time>
      </trkpt>
      <trkpt lat="43.55822" lon="5.88588">
        <ele>454</ele>
        <time>2016-07-17T06:14:00Z</time>
      </trkpt>
      <trkpt lat="43.55838" lon="5.88601">
        <ele>458</ele>
        <time>2016-07-17T06:14:11Z</time>
      </trkpt>
      <trkpt lat="43.55852" lon="5.88619">
        <ele>459</ele>
        <time>2016-07-17T06:14:25Z</time>
      </trkpt>
      <trkpt lat="43.55869" lon="5.88632">
        <ele>460</ele>
        <time>2016-07-17T06:14:37Z</time>
      </trkpt>
      <trkpt lat="43.55886" lon="5.88644">
        <ele>460</ele>
        <time>2016-07-17T06:14:48Z</time>
      </trkpt>
      <trkpt lat="43.55903" lon="5.88655">
        <ele>460</ele>
        <time>2016-07-17T06:14:57Z</time>
      </trkpt>
      <trkpt lat="43.55921" lon="5.88665">
        <ele>461</ele>
        <time>2016-07-17T06:15:05Z</time>
      </trkpt>
      <trkpt lat="43.55939" lon="5.88674">
        <ele>460</ele>
        <time>2016-07-17T06:15:14Z</time>
      </trkpt>
      <trkpt lat="43.55957" lon="5.88687">
        <ele>460</ele>
        <time>2016-07-17T06:15:22Z</time>
      </trkpt>
      <trkpt lat="43.55973" lon="5.88698">
        <ele>460</ele>
        <time>2016-07-17T06:15:29Z</time>
      </trkpt>
      <trkpt lat="43.55992" lon="5.88706">
        <ele>460</ele>
        <time>2016-07-17T06:15:36Z</time>
      </trkpt>
      <trkpt lat="43.56011" lon="5.8871">
        <ele>459</ele>
        <time>2016-07-17T06:15:43Z</time>
      </trkpt>
      <trkpt lat="43.56029" lon="5.8871">
        <ele>459</ele>
        <time>2016-07-17T06:15:50Z</time>
      </trkpt>
      <trkpt lat="43.56049" lon="5.88715">
        <ele>459</ele>
        <time>2016-07-17T06:15:56Z</time>
      </trkpt>
      <trkpt lat="43.56067" lon="5.88715">
        <ele>459</ele>
        <time>2016-07-17T06:16:01Z</time>
      </trkpt>
      <trkpt lat="43.56086" lon="5.88709">
        <ele>460</ele>
        <time>2016-07-17T06:16:09Z</time>
      </trkpt>
      <trkpt lat="43.56104" lon="5.887">
        <ele>460</ele>
        <time>2016-07-17T06:16:18Z</time>
      </trkpt>
      <trkpt lat="43.56124" lon="5.88694">
        <ele>461</ele>
        <time>2016-07-17T06:16:26Z</time>
      </trkpt>
      <trkpt lat="43.56143" lon="5.8869">
        <ele>461</ele>
        <time>2016-07-17T06:16:34Z</time>
      </trkpt>
      <trkpt lat="43.56162" lon="5.88687">
        <ele>461</ele>
        <time>2016-07-17T06:16:42Z</time>
      </trkpt>
      <trkpt lat="43.56181" lon="5.88685">
        <ele>464</ele>
        <time>2016-07-17T06:16:49Z</time>
      </trkpt>
      <trkpt lat="43.56199" lon="5.88682">
        <ele>465</ele>
        <time>2016-07-17T06:16:56Z</time>
      </trkpt>
      <trkpt lat="43.56219" lon="5.88683">
        <ele>466</ele>
        <time>2016-07-17T06:17:04Z</time>
      </trkpt>
      <trkpt lat="43.56238" lon="5.88688">
        <ele>466</ele>
        <time>2016-07-17T06:17:13Z</time>
      </trkpt>
      <trkpt lat="43.56257" lon="5.88694">
        <ele>470</ele>
        <time>2016-07-17T06:17:22Z</time>
      </trkpt>
      <trkpt lat="43.56275" lon="5.88699">
        <ele>470</ele>
        <time>2016-07-17T06:17:30Z</time>
      </trkpt>
      <trkpt lat="43.56294" lon="5.88702">
        <ele>471</ele>
        <time>2016-07-17T06:17:38Z</time>
      </trkpt>
      <trkpt lat="43.56314" lon="5.88704">
        <ele>471</ele>
        <time>2016-07-17T06:17:47Z</time>
      </trkpt>
      <trkpt lat="43.56333" lon="5.88705">
        <ele>472</ele>
        <time>2016-07-17T06:17:55Z</time>
      </trkpt>
      <trkpt lat="43.56351" lon="5.88701">
        <ele>474</ele>
        <time>2016-07-17T06:22:44Z</time>
      </trkpt>
      <trkpt lat="43.56369" lon="5.88691">
        <ele>475</ele>
        <time>2016-07-17T06:22:55Z</time>
      </trkpt>
      <trkpt lat="43.56388" lon="5.8868">
        <ele>475</ele>
        <time>2016-07-17T06:23:03Z</time>
      </trkpt>
      <trkpt lat="43.56406" lon="5.88676">
        <ele>476</ele>
        <time>2016-07-17T06:23:11Z</time>
      </trkpt>
      <trkpt lat="43.56427" lon="5.88674">
        <ele>476</ele>
        <time>2016-07-17T06:23:19Z</time>
      </trkpt>
      <trkpt lat="43.56447" lon="5.88666">
        <ele>476</ele>
        <time>2016-07-17T06:23:27Z</time>
      </trkpt>
      <trkpt lat="43.56465" lon="5.8865">
        <ele>476</ele>
        <time>2016-07-17T06:23:33Z</time>
      </trkpt>
      <trkpt lat="43.56482" lon="5.88636">
        <ele>476</ele>
        <time>2016-07-17T06:23:38Z</time>
      </trkpt>
      <trkpt lat="43.56502" lon="5.88625">
        <ele>475</ele>
        <time>2016-07-17T06:23:43Z</time>
      </trkpt>
      <trkpt lat="43.56522" lon="5.88615">
        <ele>475</ele>
        <time>2016-07-17T06:23:48Z</time>
      </trkpt>
      <trkpt lat="43.56541" lon="5.88606">
        <ele>475</ele>
        <time>2016-07-17T06:23:53Z</time>
      </trkpt>
      <trkpt lat="43.56561" lon="5.88599">
        <ele>475</ele>
        <time>2016-07-17T06:23:58Z</time>
      </trkpt>
      <trkpt lat="43.56583" lon="5.88594">
        <ele>475</ele>
        <time>2016-07-17T06:24:03Z</time>
      </trkpt>
      <trkpt lat="43.56603" lon="5.88591">
        <ele>476</ele>
        <time>2016-07-17T06:24:08Z</time>
      </trkpt>
      <trkpt lat="43.56624" lon="5.88585">
        <ele>477</ele>
        <time>2016-07-17T06:24:14Z</time>
      </trkpt>
      <trkpt lat="43.56644" lon="5.88583">
        <ele>479</ele>
        <time>2016-07-17T06:24:20Z</time>
      </trkpt>
      <trkpt lat="43.56663" lon="5.8858">
        <ele>480</ele>
        <time>2016-07-17T06:24:26Z</time>
      </trkpt>
      <trkpt lat="43.5668" lon="5.8857">
        <ele>481</ele>
        <time>2016-07-17T06:24:32Z</time>
      </trkpt>
      <trkpt lat="43.56699" lon="5.88558">
        <ele>481</ele>
        <time>2016-07-17T06:24:39Z</time>
      </trkpt>
      <trkpt lat="43.56717" lon="5.88548">
        <ele>481</ele>
        <time>2016-07-17T06:24:45Z</time>
      </trkpt>
      <trkpt lat="43.56738" lon="5.88537">
        <ele>481</ele>
        <time>2016-07-17T06:24:51Z</time>
      </trkpt>
      <trkpt lat="43.56755" lon="5.88528">
        <ele>480</ele>
        <time>2016-07-17T06:24:55Z</time>
      </trkpt>
      <trkpt lat="43.56774" lon="5.88518">
        <ele>480</ele>
        <time>2016-07-17T06:24:59Z</time>
      </trkpt>
      <trkpt lat="43.56792" lon="5.88508">
        <ele>480</ele>
        <time>2016-07-17T06:25:03Z</time>
      </trkpt>
      <trkpt lat="43.56813" lon="5.88498">
        <ele>481</ele>
        <time>2016-07-17T06:25:08Z</time>
      </trkpt>
      <trkpt lat="43.56831" lon="5.88489">
        <ele>481</ele>
        <time>2016-07-17T06:25:12Z</time>
      </trkpt>
      <trkpt lat="43.56848" lon="5.88479">
        <ele>480</ele>
        <time>2016-07-17T06:25:16Z</time>
      </trkpt>
      <trkpt lat="43.56869" lon="5.88469">
        <ele>480</ele>
        <time>2016-07-17T06:25:21Z</time>
      </trkpt>
      <trkpt lat="43.56887" lon="5.8846">
        <ele>479</ele>
        <time>2016-07-17T06:25:26Z</time>
      </trkpt>
      <trkpt lat="43.56908" lon="5.88449">
        <ele>479</ele>
        <time>2016-07-17T06:25:31Z</time>
      </trkpt>
      <trkpt lat="43.56926" lon="5.88439">
        <ele>479</ele>
        <time>2016-07-17T06:25:36Z</time>
      </trkpt>
      <trkpt lat="43.56945" lon="5.88428">
        <ele>479</ele>
        <time>2016-07-17T06:25:41Z</time>
      </trkpt>
      <trkpt lat="43.56961" lon="5.88419">
        <ele>479</ele>
        <time>2016-07-17T06:25:45Z</time>
      </trkpt>
      <trkpt lat="43.56982" lon="5.88409">
        <ele>481</ele>
        <time>2016-07-17T06:25:50Z</time>
      </trkpt>
      <trkpt lat="43.57002" lon="5.88397">
        <ele>482</ele>
        <time>2016-07-17T06:25:55Z</time>
      </trkpt>
      <trkpt lat="43.57022" lon="5.88387">
        <ele>483</ele>
        <time>2016-07-17T06:26:00Z</time>
      </trkpt>
      <trkpt lat="43.57042" lon="5.88375">
        <ele>483</ele>
        <time>2016-07-17T06:26:05Z</time>
      </trkpt>
      <trkpt lat="43.57062" lon="5.88363">
        <ele>483</ele>
        <time>2016-07-17T06:26:10Z</time>
      </trkpt>
      <trkpt lat="43.57082" lon="5.88351">
        <ele>484</ele>
        <time>2016-07-17T06:26:15Z</time>
      </trkpt>
      <trkpt lat="43.57102" lon="5.88341">
        <ele>485</ele>
        <time>2016-07-17T06:26:20Z</time>
      </trkpt>
      <trkpt lat="43.57121" lon="5.88328">
        <ele>486</ele>
        <time>2016-07-17T06:26:25Z</time>
      </trkpt>
      <trkpt lat="43.5714" lon="5.88316">
        <ele>487</ele>
        <time>2016-07-17T06:26:30Z</time>
      </trkpt>
      <trkpt lat="43.57159" lon="5.88311">
        <ele>487</ele>
        <time>2016-07-17T06:26:36Z</time>
      </trkpt>
      <trkpt lat="43.57179" lon="5.8831">
        <ele>488</ele>
        <time>2016-07-17T06:26:42Z</time>
      </trkpt>
      <trkpt lat="43.572" lon="5.88304">
        <ele>488</ele>
        <time>2016-07-17T06:26:48Z</time>
      </trkpt>
      <trkpt lat="43.57221" lon="5.88296">
        <ele>488</ele>
        <time>2016-07-17T06:26:54Z</time>
      </trkpt>
      <trkpt lat="43.57241" lon="5.8829">
        <ele>488</ele>
        <time>2016-07-17T06:27:00Z</time>
      </trkpt>
      <trkpt lat="43.5726" lon="5.88287">
        <ele>491</ele>
        <time>2016-07-17T06:27:06Z</time>
      </trkpt>
      <trkpt lat="43.57278" lon="5.88275">
        <ele>491</ele>
        <time>2016-07-17T06:27:14Z</time>
      </trkpt>
      <trkpt lat="43.57296" lon="5.88267">
        <ele>492</ele>
        <time>2016-07-17T06:27:21Z</time>
      </trkpt>
      <trkpt lat="43.57316" lon="5.88258">
        <ele>493</ele>
        <time>2016-07-17T06:27:28Z</time>
      </trkpt>
      <trkpt lat="43.57335" lon="5.88248">
        <ele>494</ele>
        <time>2016-07-17T06:27:35Z</time>
      </trkpt>
      <trkpt lat="43.57352" lon="5.88236">
        <ele>497</ele>
        <time>2016-07-17T06:27:45Z</time>
      </trkpt>
      <trkpt lat="43.57372" lon="5.8823">
        <ele>498</ele>
        <time>2016-07-17T06:27:53Z</time>
      </trkpt>
      <trkpt lat="43.57391" lon="5.88225">
        <ele>499</ele>
        <time>2016-07-17T06:28:00Z</time>
      </trkpt>
      <trkpt lat="43.57407" lon="5.88212">
        <ele>500</ele>
        <time>2016-07-17T06:28:07Z</time>
      </trkpt>
      <trkpt lat="43.57423" lon="5.88195">
        <ele>505</ele>
        <time>2016-07-17T06:28:14Z</time>
      </trkpt>
      <trkpt lat="43.57439" lon="5.88182">
        <ele>506</ele>
        <time>2016-07-17T06:28:21Z</time>
      </trkpt>
      <trkpt lat="43.57456" lon="5.88168">
        <ele>506</ele>
        <time>2016-07-17T06:28:28Z</time>
      </trkpt>
      <trkpt lat="43.57474" lon="5.88158">
        <ele>507</ele>
        <time>2016-07-17T06:28:35Z</time>
      </trkpt>
      <trkpt lat="43.57492" lon="5.88147">
        <ele>508</ele>
        <time>2016-07-17T06:28:42Z</time>
      </trkpt>
      <trkpt lat="43.5751" lon="5.88136">
        <ele>512</ele>
        <time>2016-07-17T06:28:49Z</time>
      </trkpt>
      <trkpt lat="43.57526" lon="5.88121">
        <ele>513</ele>
        <time>2016-07-17T06:28:56Z</time>
      </trkpt>
      <trkpt lat="43.57536" lon="5.88098">
        <ele>514</ele>
        <time>2016-07-17T06:29:03Z</time>
      </trkpt>
      <trkpt lat="43.57544" lon="5.88073">
        <ele>515</ele>
        <time>2016-07-17T06:29:11Z</time>
      </trkpt>
      <trkpt lat="43.57554" lon="5.8805">
        <ele>515</ele>
        <time>2016-07-17T06:29:19Z</time>
      </trkpt>
      <trkpt lat="43.57568" lon="5.88031">
        <ele>515</ele>
        <time>2016-07-17T06:29:27Z</time>
      </trkpt>
      <trkpt lat="43.57583" lon="5.88014">
        <ele>515</ele>
        <time>2016-07-17T06:29:35Z</time>
      </trkpt>
      <trkpt lat="43.57597" lon="5.87998">
        <ele>517</ele>
        <time>2016-07-17T06:29:43Z</time>
      </trkpt>
      <trkpt lat="43.57611" lon="5.87983">
        <ele>518</ele>
        <time>2016-07-17T06:29:51Z</time>
      </trkpt>
      <trkpt lat="43.57627" lon="5.87968">
        <ele>519</ele>
        <time>2016-07-17T06:29:59Z</time>
      </trkpt>
      <trkpt lat="43.57645" lon="5.87957">
        <ele>519</ele>
        <time>2016-07-17T06:30:07Z</time>
      </trkpt>
      <trkpt lat="43.57663" lon="5.8795">
        <ele>519</ele>
        <time>2016-07-17T06:30:14Z</time>
      </trkpt>
      <trkpt lat="43.57682" lon="5.87941">
        <ele>519</ele>
        <time>2016-07-17T06:30:22Z</time>
      </trkpt>
      <trkpt lat="43.57701" lon="5.87939">
        <ele>519</ele>
        <time>2016-07-17T06:30:30Z</time>
      </trkpt>
      <trkpt lat="43.57718" lon="5.8795">
        <ele>519</ele>
        <time>2016-07-17T06:30:38Z</time>
      </trkpt>
      <trkpt lat="43.57734" lon="5.87966">
        <ele>519</ele>
        <time>2016-07-17T06:30:46Z</time>
      </trkpt>
      <trkpt lat="43.57746" lon="5.87988">
        <ele>519</ele>
        <time>2016-07-17T06:30:55Z</time>
      </trkpt>
      <trkpt lat="43.57754" lon="5.88013">
        <ele>520</ele>
        <time>2016-07-17T06:31:03Z</time>
      </trkpt>
      <trkpt lat="43.57763" lon="5.88037">
        <ele>520</ele>
        <time>2016-07-17T06:31:11Z</time>
      </trkpt>
      <trkpt lat="43.57776" lon="5.88056">
        <ele>520</ele>
        <time>2016-07-17T06:35:22Z</time>
      </trkpt>
      <trkpt lat="43.57786" lon="5.88033">
        <ele>519</ele>
        <time>2016-07-17T06:35:33Z</time>
      </trkpt>
      <trkpt lat="43.57786" lon="5.88005">
        <ele>519</ele>
        <time>2016-07-17T06:35:40Z</time>
      </trkpt>
      <trkpt lat="43.57787" lon="5.87977">
        <ele>518</ele>
        <time>2016-07-17T06:35:46Z</time>
      </trkpt>
      <trkpt lat="43.57787" lon="5.87948">
        <ele>518</ele>
        <time>2016-07-17T06:35:52Z</time>
      </trkpt>
      <trkpt lat="43.57788" lon="5.87919">
        <ele>518</ele>
        <time>2016-07-17T06:35:58Z</time>
      </trkpt>
      <trkpt lat="43.5779" lon="5.8789">
        <ele>518</ele>
        <time>2016-07-17T06:36:04Z</time>
      </trkpt>
      <trkpt lat="43.57793" lon="5.87861">
        <ele>518</ele>
        <time>2016-07-17T06:36:09Z</time>
      </trkpt>
      <trkpt lat="43.57796" lon="5.87833">
        <ele>519</ele>
        <time>2016-07-17T06:36:15Z</time>
      </trkpt>
      <trkpt lat="43.57798" lon="5.87804">
        <ele>519</ele>
        <time>2016-07-17T06:36:21Z</time>
      </trkpt>
      <trkpt lat="43.578" lon="5.87779">
        <ele>519</ele>
        <time>2016-07-17T06:36:26Z</time>
      </trkpt>
      <trkpt lat="43.57802" lon="5.87752">
        <ele>520</ele>
        <time>2016-07-17T06:36:33Z</time>
      </trkpt>
      <trkpt lat="43.57819" lon="5.87747">
        <ele>521</ele>
        <time>2016-07-17T06:36:47Z</time>
      </trkpt>
      <trkpt lat="43.57833" lon="5.87765">
        <ele>520</ele>
        <time>2016-07-17T06:36:53Z</time>
      </trkpt>
      <trkpt lat="43.57848" lon="5.87782">
        <ele>521</ele>
        <time>2016-07-17T06:36:59Z</time>
      </trkpt>
      <trkpt lat="43.57862" lon="5.87802">
        <ele>521</ele>
        <time>2016-07-17T06:37:06Z</time>
      </trkpt>
      <trkpt lat="43.57875" lon="5.8782">
        <ele>521</ele>
        <time>2016-07-17T06:37:13Z</time>
      </trkpt>
      <trkpt lat="43.57889" lon="5.87839">
        <ele>521</ele>
        <time>2016-07-17T06:37:20Z</time>
      </trkpt>
      <trkpt lat="43.57903" lon="5.87858">
        <ele>521</ele>
        <time>2016-07-17T06:37:27Z</time>
      </trkpt>
      <trkpt lat="43.5792" lon="5.87868">
        <ele>522</ele>
        <time>2016-07-17T06:37:37Z</time>
      </trkpt>
      <trkpt lat="43.57934" lon="5.87887">
        <ele>522</ele>
        <time>2016-07-17T06:38:08Z</time>
      </trkpt>
      <trkpt lat="43.57949" lon="5.87906">
        <ele>522</ele>
        <time>2016-07-17T06:38:13Z</time>
      </trkpt>
      <trkpt lat="43.57966" lon="5.87921">
        <ele>518</ele>
        <time>2016-07-17T06:38:18Z</time>
      </trkpt>
      <trkpt lat="43.57974" lon="5.87946">
        <ele>517</ele>
        <time>2016-07-17T06:38:30Z</time>
      </trkpt>
      <trkpt lat="43.57989" lon="5.87963">
        <ele>516</ele>
        <time>2016-07-17T06:38:35Z</time>
      </trkpt>
      <trkpt lat="43.58006" lon="5.87981">
        <ele>514</ele>
        <time>2016-07-17T06:38:40Z</time>
      </trkpt>
      <trkpt lat="43.58023" lon="5.88">
        <ele>514</ele>
        <time>2016-07-17T06:38:46Z</time>
      </trkpt>
      <trkpt lat="43.58039" lon="5.88013">
        <ele>510</ele>
        <time>2016-07-17T06:38:50Z</time>
      </trkpt>
      <trkpt lat="43.58057" lon="5.88025">
        <ele>510</ele>
        <time>2016-07-17T06:38:54Z</time>
      </trkpt>
      <trkpt lat="43.58076" lon="5.88038">
        <ele>509</ele>
        <time>2016-07-17T06:38:58Z</time>
      </trkpt>
      <trkpt lat="43.58094" lon="5.88054">
        <ele>507</ele>
        <time>2016-07-17T06:39:02Z</time>
      </trkpt>
      <trkpt lat="43.5811" lon="5.88071">
        <ele>506</ele>
        <time>2016-07-17T06:39:06Z</time>
      </trkpt>
      <trkpt lat="43.58126" lon="5.88091">
        <ele>504</ele>
        <time>2016-07-17T06:39:10Z</time>
      </trkpt>
      <trkpt lat="43.58143" lon="5.88105">
        <ele>504</ele>
        <time>2016-07-17T06:39:14Z</time>
      </trkpt>
      <trkpt lat="43.58161" lon="5.88121">
        <ele>504</ele>
        <time>2016-07-17T06:39:18Z</time>
      </trkpt>
      <trkpt lat="43.58178" lon="5.88142">
        <ele>501</ele>
        <time>2016-07-17T06:39:22Z</time>
      </trkpt>
      <trkpt lat="43.58193" lon="5.88157">
        <ele>501</ele>
        <time>2016-07-17T06:39:26Z</time>
      </trkpt>
      <trkpt lat="43.58211" lon="5.88173">
        <ele>499</ele>
        <time>2016-07-17T06:39:30Z</time>
      </trkpt>
      <trkpt lat="43.58231" lon="5.88188">
        <ele>499</ele>
        <time>2016-07-17T06:39:34Z</time>
      </trkpt>
      <trkpt lat="43.58251" lon="5.88204">
        <ele>497</ele>
        <time>2016-07-17T06:39:38Z</time>
      </trkpt>
      <trkpt lat="43.58267" lon="5.88216">
        <ele>497</ele>
        <time>2016-07-17T06:39:41Z</time>
      </trkpt>
      <trkpt lat="43.58283" lon="5.88231">
        <ele>497</ele>
        <time>2016-07-17T06:39:45Z</time>
      </trkpt>
      <trkpt lat="43.58299" lon="5.88251">
        <ele>498</ele>
        <time>2016-07-17T06:39:50Z</time>
      </trkpt>
      <trkpt lat="43.58316" lon="5.88266">
        <ele>498</ele>
        <time>2016-07-17T06:39:54Z</time>
      </trkpt>
      <trkpt lat="43.58335" lon="5.88275">
        <ele>497</ele>
        <time>2016-07-17T06:40:00Z</time>
      </trkpt>
      <trkpt lat="43.58353" lon="5.88286">
        <ele>497</ele>
        <time>2016-07-17T06:40:07Z</time>
      </trkpt>
      <trkpt lat="43.58351" lon="5.88311">
        <ele>498</ele>
        <time>2016-07-17T06:40:16Z</time>
      </trkpt>
      <trkpt lat="43.58361" lon="5.88334">
        <ele>502</ele>
        <time>2016-07-17T06:40:36Z</time>
      </trkpt>
      <trkpt lat="43.58382" lon="5.8834">
        <ele>502</ele>
        <time>2016-07-17T06:40:43Z</time>
      </trkpt>
      <trkpt lat="43.58398" lon="5.88356">
        <ele>502</ele>
        <time>2016-07-17T06:40:48Z</time>
      </trkpt>
      <trkpt lat="43.58413" lon="5.88373">
        <ele>503</ele>
        <time>2016-07-17T06:40:56Z</time>
      </trkpt>
      <trkpt lat="43.58429" lon="5.88391">
        <ele>503</ele>
        <time>2016-07-17T06:41:03Z</time>
      </trkpt>
      <trkpt lat="43.58445" lon="5.88406">
        <ele>503</ele>
        <time>2016-07-17T06:41:10Z</time>
      </trkpt>
      <trkpt lat="43.58465" lon="5.88412">
        <ele>503</ele>
        <time>2016-07-17T06:41:17Z</time>
      </trkpt>
      <trkpt lat="43.58484" lon="5.88417">
        <ele>508</ele>
        <time>2016-07-17T06:41:24Z</time>
      </trkpt>
      <trkpt lat="43.58504" lon="5.88415">
        <ele>504</ele>
        <time>2016-07-17T06:41:31Z</time>
      </trkpt>
      <trkpt lat="43.58523" lon="5.88413">
        <ele>501</ele>
        <time>2016-07-17T06:41:37Z</time>
      </trkpt>
      <trkpt lat="43.58543" lon="5.88411">
        <ele>500</ele>
        <time>2016-07-17T06:41:44Z</time>
      </trkpt>
      <trkpt lat="43.58562" lon="5.88411">
        <ele>500</ele>
        <time>2016-07-17T06:41:53Z</time>
      </trkpt>
      <trkpt lat="43.58572" lon="5.88434">
        <ele>505</ele>
        <time>2016-07-17T06:43:02Z</time>
      </trkpt>
      <trkpt lat="43.58568" lon="5.88459">
        <ele>506</ele>
        <time>2016-07-17T06:43:06Z</time>
      </trkpt>
      <trkpt lat="43.58567" lon="5.88487">
        <ele>507</ele>
        <time>2016-07-17T06:43:11Z</time>
      </trkpt>
      <trkpt lat="43.58585" lon="5.88495">
        <ele>507</ele>
        <time>2016-07-17T06:43:18Z</time>
      </trkpt>
      <trkpt lat="43.586" lon="5.88476">
        <ele>506</ele>
        <time>2016-07-17T06:43:24Z</time>
      </trkpt>
      <trkpt lat="43.58618" lon="5.88462">
        <ele>505</ele>
        <time>2016-07-17T06:43:30Z</time>
      </trkpt>
      <trkpt lat="43.58637" lon="5.88452">
        <ele>504</ele>
        <time>2016-07-17T06:43:36Z</time>
      </trkpt>
      <trkpt lat="43.58654" lon="5.88445">
        <ele>503</ele>
        <time>2016-07-17T06:43:42Z</time>
      </trkpt>
      <trkpt lat="43.58674" lon="5.88443">
        <ele>501</ele>
        <time>2016-07-17T06:43:48Z</time>
      </trkpt>
      <trkpt lat="43.58693" lon="5.88446">
        <ele>501</ele>
        <time>2016-07-17T06:43:53Z</time>
      </trkpt>
      <trkpt lat="43.58714" lon="5.88449">
        <ele>500</ele>
        <time>2016-07-17T06:43:59Z</time>
      </trkpt>
      <trkpt lat="43.58733" lon="5.88457">
        <ele>500</ele>
        <time>2016-07-17T06:44:04Z</time>
      </trkpt>
      <trkpt lat="43.58751" lon="5.88471">
        <ele>497</ele>
        <time>2016-07-17T06:44:09Z</time>
      </trkpt>
      <trkpt lat="43.58762" lon="5.88492">
        <ele>501</ele>
        <time>2016-07-17T06:44:16Z</time>
      </trkpt>
      <trkpt lat="43.58766" lon="5.88518">
        <ele>507</ele>
        <time>2016-07-17T06:44:23Z</time>
      </trkpt>
      <trkpt lat="43.58769" lon="5.88546">
        <ele>508</ele>
        <time>2016-07-17T06:44:31Z</time>
      </trkpt>
      <trkpt lat="43.5877" lon="5.88571">
        <ele>510</ele>
        <time>2016-07-17T06:44:39Z</time>
      </trkpt>
      <trkpt lat="43.5877" lon="5.88597">
        <ele>515</ele>
        <time>2016-07-17T06:44:47Z</time>
      </trkpt>
      <trkpt lat="43.58769" lon="5.88624">
        <ele>515</ele>
        <time>2016-07-17T06:44:55Z</time>
      </trkpt>
      <trkpt lat="43.58765" lon="5.88649">
        <ele>517</ele>
        <time>2016-07-17T06:45:04Z</time>
      </trkpt>
      <trkpt lat="43.58758" lon="5.88673">
        <ele>520</ele>
        <time>2016-07-17T06:45:14Z</time>
      </trkpt>
      <trkpt lat="43.58749" lon="5.88697">
        <ele>524</ele>
        <time>2016-07-17T06:45:24Z</time>
      </trkpt>
      <trkpt lat="43.5874" lon="5.8872">
        <ele>525</ele>
        <time>2016-07-17T06:45:34Z</time>
      </trkpt>
      <trkpt lat="43.58733" lon="5.88744">
        <ele>525</ele>
        <time>2016-07-17T06:45:45Z</time>
      </trkpt>
      <trkpt lat="43.58723" lon="5.88766">
        <ele>528</ele>
        <time>2016-07-17T06:45:55Z</time>
      </trkpt>
      <trkpt lat="43.58712" lon="5.88787">
        <ele>529</ele>
        <time>2016-07-17T06:46:05Z</time>
      </trkpt>
      <trkpt lat="43.58699" lon="5.88807">
        <ele>530</ele>
        <time>2016-07-17T06:46:15Z</time>
      </trkpt>
      <trkpt lat="43.58688" lon="5.88828">
        <ele>531</ele>
        <time>2016-07-17T06:46:26Z</time>
      </trkpt>
      <trkpt lat="43.58676" lon="5.88848">
        <ele>533</ele>
        <time>2016-07-17T06:46:37Z</time>
      </trkpt>
      <trkpt lat="43.58662" lon="5.88865">
        <ele>536</ele>
        <time>2016-07-17T06:46:47Z</time>
      </trkpt>
      <trkpt lat="43.58646" lon="5.8888">
        <ele>536</ele>
        <time>2016-07-17T06:47:00Z</time>
      </trkpt>
      <trkpt lat="43.58629" lon="5.88894">
        <ele>537</ele>
        <time>2016-07-17T06:47:09Z</time>
      </trkpt>
      <trkpt lat="43.58613" lon="5.8891">
        <ele>538</ele>
        <time>2016-07-17T06:47:19Z</time>
      </trkpt>
      <trkpt lat="43.58596" lon="5.88921">
        <ele>541</ele>
        <time>2016-07-17T06:47:29Z</time>
      </trkpt>
      <trkpt lat="43.58578" lon="5.88927">
        <ele>542</ele>
        <time>2016-07-17T06:47:39Z</time>
      </trkpt>
      <trkpt lat="43.58561" lon="5.88939">
        <ele>544</ele>
        <time>2016-07-17T06:47:49Z</time>
      </trkpt>
      <trkpt lat="43.58545" lon="5.88951">
        <ele>544</ele>
        <time>2016-07-17T06:47:59Z</time>
      </trkpt>
      <trkpt lat="43.58529" lon="5.88962">
        <ele>545</ele>
        <time>2016-07-17T06:48:09Z</time>
      </trkpt>
      <trkpt lat="43.58514" lon="5.88976">
        <ele>546</ele>
        <time>2016-07-17T06:48:20Z</time>
      </trkpt>
      <trkpt lat="43.58497" lon="5.88991">
        <ele>548</ele>
        <time>2016-07-17T06:48:30Z</time>
      </trkpt>
      <trkpt lat="43.58479" lon="5.89005">
        <ele>549</ele>
        <time>2016-07-17T06:48:38Z</time>
      </trkpt>
      <trkpt lat="43.58461" lon="5.89016">
        <ele>549</ele>
        <time>2016-07-17T06:48:47Z</time>
      </trkpt>
      <trkpt lat="43.58443" lon="5.89026">
        <ele>549</ele>
        <time>2016-07-17T06:48:55Z</time>
      </trkpt>
      <trkpt lat="43.58426" lon="5.89038">
        <ele>549</ele>
        <time>2016-07-17T06:49:03Z</time>
      </trkpt>
      <trkpt lat="43.58411" lon="5.89055">
        <ele>549</ele>
        <time>2016-07-17T06:49:11Z</time>
      </trkpt>
      <trkpt lat="43.58396" lon="5.89074">
        <ele>549</ele>
        <time>2016-07-17T06:49:18Z</time>
      </trkpt>
      <trkpt lat="43.5838" lon="5.89093">
        <ele>550</ele>
        <time>2016-07-17T06:49:24Z</time>
      </trkpt>
      <trkpt lat="43.58365" lon="5.89112">
        <ele>550</ele>
        <time>2016-07-17T06:49:30Z</time>
      </trkpt>
      <trkpt lat="43.58352" lon="5.89131">
        <ele>550</ele>
        <time>2016-07-17T06:49:35Z</time>
      </trkpt>
      <trkpt lat="43.58337" lon="5.89152">
        <ele>551</ele>
        <time>2016-07-17T06:49:41Z</time>
      </trkpt>
      <trkpt lat="43.58323" lon="5.8917">
        <ele>551</ele>
        <time>2016-07-17T06:49:47Z</time>
      </trkpt>
      <trkpt lat="43.58308" lon="5.89189">
        <ele>552</ele>
        <time>2016-07-17T06:49:53Z</time>
      </trkpt>
      <trkpt lat="43.58292" lon="5.89207">
        <ele>552</ele>
        <time>2016-07-17T06:49:59Z</time>
      </trkpt>
      <trkpt lat="43.58276" lon="5.89221">
        <ele>552</ele>
        <time>2016-07-17T06:50:06Z</time>
      </trkpt>
      <trkpt lat="43.5826" lon="5.89235">
        <ele>553</ele>
        <time>2016-07-17T06:50:13Z</time>
      </trkpt>
      <trkpt lat="43.58242" lon="5.89246">
        <ele>554</ele>
        <time>2016-07-17T06:50:21Z</time>
      </trkpt>
      <trkpt lat="43.58228" lon="5.89262">
        <ele>555</ele>
        <time>2016-07-17T06:50:29Z</time>
      </trkpt>
      <trkpt lat="43.58214" lon="5.8928">
        <ele>555</ele>
        <time>2016-07-17T06:50:37Z</time>
      </trkpt>
      <trkpt lat="43.58205" lon="5.89305">
        <ele>555</ele>
        <time>2016-07-17T06:50:45Z</time>
      </trkpt>
      <trkpt lat="43.58196" lon="5.89329">
        <ele>556</ele>
        <time>2016-07-17T06:50:53Z</time>
      </trkpt>
      <trkpt lat="43.58189" lon="5.89356">
        <ele>553</ele>
        <time>2016-07-17T06:51:01Z</time>
      </trkpt>
      <trkpt lat="43.58179" lon="5.89377">
        <ele>552</ele>
        <time>2016-07-17T06:51:08Z</time>
      </trkpt>
      <trkpt lat="43.58167" lon="5.89399">
        <ele>553</ele>
        <time>2016-07-17T06:51:15Z</time>
      </trkpt>
      <trkpt lat="43.58156" lon="5.8942">
        <ele>556</ele>
        <time>2016-07-17T06:51:22Z</time>
      </trkpt>
      <trkpt lat="43.58148" lon="5.89445">
        <ele>557</ele>
        <time>2016-07-17T06:51:30Z</time>
      </trkpt>
      <trkpt lat="43.58139" lon="5.89467">
        <ele>557</ele>
        <time>2016-07-17T06:51:38Z</time>
      </trkpt>
      <trkpt lat="43.58131" lon="5.8949">
        <ele>557</ele>
        <time>2016-07-17T06:53:02Z</time>
      </trkpt>
      <trkpt lat="43.58128" lon="5.89465">
        <ele>558</ele>
        <time>2016-07-17T06:55:02Z</time>
      </trkpt>
      <trkpt lat="43.5811" lon="5.89456">
        <ele>559</ele>
        <time>2016-07-17T06:55:17Z</time>
      </trkpt>
      <trkpt lat="43.58092" lon="5.89456">
        <ele>561</ele>
        <time>2016-07-17T06:55:27Z</time>
      </trkpt>
      <trkpt lat="43.58074" lon="5.89452">
        <ele>564</ele>
        <time>2016-07-17T06:55:36Z</time>
      </trkpt>
      <trkpt lat="43.58054" lon="5.89452">
        <ele>564</ele>
        <time>2016-07-17T06:55:45Z</time>
      </trkpt>
      <trkpt lat="43.58035" lon="5.89455">
        <ele>564</ele>
        <time>2016-07-17T06:55:53Z</time>
      </trkpt>
      <trkpt lat="43.58016" lon="5.89465">
        <ele>564</ele>
        <time>2016-07-17T06:56:03Z</time>
      </trkpt>
      <trkpt lat="43.57997" lon="5.89468">
        <ele>562</ele>
        <time>2016-07-17T06:56:10Z</time>
      </trkpt>
      <trkpt lat="43.57978" lon="5.89469">
        <ele>561</ele>
        <time>2016-07-17T06:56:17Z</time>
      </trkpt>
      <trkpt lat="43.57959" lon="5.89471">
        <ele>561</ele>
        <time>2016-07-17T06:56:23Z</time>
      </trkpt>
      <trkpt lat="43.57939" lon="5.89475">
        <ele>560</ele>
        <time>2016-07-17T06:56:32Z</time>
      </trkpt>
      <trkpt lat="43.57922" lon="5.89484">
        <ele>561</ele>
        <time>2016-07-17T06:56:38Z</time>
      </trkpt>
      <trkpt lat="43.57902" lon="5.89491">
        <ele>557</ele>
        <time>2016-07-17T06:56:44Z</time>
      </trkpt>
      <trkpt lat="43.57885" lon="5.895">
        <ele>556</ele>
        <time>2016-07-17T06:56:50Z</time>
      </trkpt>
      <trkpt lat="43.57865" lon="5.8951">
        <ele>558</ele>
        <time>2016-07-17T06:56:56Z</time>
      </trkpt>
      <trkpt lat="43.57846" lon="5.8952">
        <ele>557</ele>
        <time>2016-07-17T06:57:02Z</time>
      </trkpt>
      <trkpt lat="43.57828" lon="5.8953">
        <ele>552</ele>
        <time>2016-07-17T06:57:09Z</time>
      </trkpt>
      <trkpt lat="43.57808" lon="5.89538">
        <ele>552</ele>
        <time>2016-07-17T06:57:15Z</time>
      </trkpt>
      <trkpt lat="43.57789" lon="5.89548">
        <ele>551</ele>
        <time>2016-07-17T06:57:21Z</time>
      </trkpt>
      <trkpt lat="43.5777" lon="5.89563">
        <ele>550</ele>
        <time>2016-07-17T06:57:27Z</time>
      </trkpt>
      <trkpt lat="43.57754" lon="5.89575">
        <ele>550</ele>
        <time>2016-07-17T06:57:32Z</time>
      </trkpt>
      <trkpt lat="43.57737" lon="5.89589">
        <ele>547</ele>
        <time>2016-07-17T06:57:37Z</time>
      </trkpt>
      <trkpt lat="43.57723" lon="5.89609">
        <ele>545</ele>
        <time>2016-07-17T06:57:43Z</time>
      </trkpt>
      <trkpt lat="43.57705" lon="5.89608">
        <ele>544</ele>
        <time>2016-07-17T06:57:55Z</time>
      </trkpt>
      <trkpt lat="43.57697" lon="5.89585">
        <ele>543</ele>
        <time>2016-07-17T06:58:02Z</time>
      </trkpt>
      <trkpt lat="43.57678" lon="5.89583">
        <ele>541</ele>
        <time>2016-07-17T06:58:13Z</time>
      </trkpt>
      <trkpt lat="43.57658" lon="5.89587">
        <ele>537</ele>
        <time>2016-07-17T06:58:23Z</time>
      </trkpt>
      <trkpt lat="43.57639" lon="5.8959">
        <ele>534</ele>
        <time>2016-07-17T06:58:37Z</time>
      </trkpt>
      <trkpt lat="43.57624" lon="5.89606">
        <ele>532</ele>
        <time>2016-07-17T06:58:45Z</time>
      </trkpt>
      <trkpt lat="43.57606" lon="5.89615">
        <ele>530</ele>
        <time>2016-07-17T06:58:53Z</time>
      </trkpt>
      <trkpt lat="43.5759" lon="5.89626">
        <ele>529</ele>
        <time>2016-07-17T06:59:21Z</time>
      </trkpt>
      <trkpt lat="43.57572" lon="5.89636">
        <ele>520</ele>
        <time>2016-07-17T06:59:38Z</time>
      </trkpt>
      <trkpt lat="43.57556" lon="5.89653">
        <ele>519</ele>
        <time>2016-07-17T07:00:03Z</time>
      </trkpt>
      <trkpt lat="43.57535" lon="5.89651">
        <ele>517</ele>
        <time>2016-07-17T07:00:11Z</time>
      </trkpt>
      <trkpt lat="43.57511" lon="5.8965">
        <ele>515</ele>
        <time>2016-07-17T07:00:15Z</time>
      </trkpt>
      <trkpt lat="43.57488" lon="5.89643">
        <ele>515</ele>
        <time>2016-07-17T07:00:19Z</time>
      </trkpt>
      <trkpt lat="43.57468" lon="5.89646">
        <ele>517</ele>
        <time>2016-07-17T07:00:23Z</time>
      </trkpt>
      <trkpt lat="43.57447" lon="5.89653">
        <ele>518</ele>
        <time>2016-07-17T07:00:28Z</time>
      </trkpt>
      <trkpt lat="43.57432" lon="5.89667">
        <ele>517</ele>
        <time>2016-07-17T07:00:33Z</time>
      </trkpt>
      <trkpt lat="43.57419" lon="5.89689">
        <ele>516</ele>
        <time>2016-07-17T07:00:39Z</time>
      </trkpt>
      <trkpt lat="43.57406" lon="5.89712">
        <ele>519</ele>
        <time>2016-07-17T07:00:45Z</time>
      </trkpt>
      <trkpt lat="43.57393" lon="5.89734">
        <ele>518</ele>
        <time>2016-07-17T07:00:51Z</time>
      </trkpt>
      <trkpt lat="43.57378" lon="5.89753">
        <ele>515</ele>
        <time>2016-07-17T07:00:57Z</time>
      </trkpt>
      <trkpt lat="43.57363" lon="5.8977">
        <ele>517</ele>
        <time>2016-07-17T07:01:03Z</time>
      </trkpt>
      <trkpt lat="43.57347" lon="5.89787">
        <ele>517</ele>
        <time>2016-07-17T07:01:09Z</time>
      </trkpt>
      <trkpt lat="43.57331" lon="5.89801">
        <ele>522</ele>
        <time>2016-07-17T07:01:16Z</time>
      </trkpt>
      <trkpt lat="43.57316" lon="5.89817">
        <ele>521</ele>
        <time>2016-07-17T07:01:24Z</time>
      </trkpt>
      <trkpt lat="43.57298" lon="5.8983">
        <ele>521</ele>
        <time>2016-07-17T07:01:33Z</time>
      </trkpt>
      <trkpt lat="43.5728" lon="5.89833">
        <ele>521</ele>
        <time>2016-07-17T07:01:40Z</time>
      </trkpt>
      <trkpt lat="43.57274" lon="5.89858">
        <ele>519</ele>
        <time>2016-07-17T07:03:22Z</time>
      </trkpt>
      <trkpt lat="43.57272" lon="5.89886">
        <ele>518</ele>
        <time>2016-07-17T07:03:27Z</time>
      </trkpt>
      <trkpt lat="43.57262" lon="5.89914">
        <ele>518</ele>
        <time>2016-07-17T07:03:31Z</time>
      </trkpt>
      <trkpt lat="43.57254" lon="5.89945">
        <ele>517</ele>
        <time>2016-07-17T07:03:35Z</time>
      </trkpt>
      <trkpt lat="43.57259" lon="5.89971">
        <ele>518</ele>
        <time>2016-07-17T07:03:40Z</time>
      </trkpt>
      <trkpt lat="43.57259" lon="5.89996">
        <ele>520</ele>
        <time>2016-07-17T07:03:46Z</time>
      </trkpt>
      <trkpt lat="43.5726" lon="5.90022">
        <ele>519</ele>
        <time>2016-07-17T07:03:53Z</time>
      </trkpt>
      <trkpt lat="43.5726" lon="5.9005">
        <ele>518</ele>
        <time>2016-07-17T07:04:00Z</time>
      </trkpt>
      <trkpt lat="43.57253" lon="5.90073">
        <ele>520</ele>
        <time>2016-07-17T07:04:05Z</time>
      </trkpt>
      <trkpt lat="43.57248" lon="5.90097">
        <ele>521</ele>
        <time>2016-07-17T07:04:10Z</time>
      </trkpt>
      <trkpt lat="43.57241" lon="5.90122">
        <ele>520</ele>
        <time>2016-07-17T07:04:15Z</time>
      </trkpt>
      <trkpt lat="43.57233" lon="5.90146">
        <ele>520</ele>
        <time>2016-07-17T07:04:20Z</time>
      </trkpt>
      <trkpt lat="43.57226" lon="5.9017">
        <ele>520</ele>
        <time>2016-07-17T07:04:25Z</time>
      </trkpt>
      <trkpt lat="43.5722" lon="5.90195">
        <ele>520</ele>
        <time>2016-07-17T07:04:30Z</time>
      </trkpt>
      <trkpt lat="43.57208" lon="5.90218">
        <ele>520</ele>
        <time>2016-07-17T07:04:36Z</time>
      </trkpt>
      <trkpt lat="43.57203" lon="5.90246">
        <ele>520</ele>
        <time>2016-07-17T07:04:42Z</time>
      </trkpt>
      <trkpt lat="43.57196" lon="5.90271">
        <ele>519</ele>
        <time>2016-07-17T07:04:48Z</time>
      </trkpt>
      <trkpt lat="43.57185" lon="5.90292">
        <ele>519</ele>
        <time>2016-07-17T07:04:53Z</time>
      </trkpt>
      <trkpt lat="43.57182" lon="5.90317">
        <ele>519</ele>
        <time>2016-07-17T07:04:58Z</time>
      </trkpt>
      <trkpt lat="43.57178" lon="5.90345">
        <ele>517</ele>
        <time>2016-07-17T07:05:03Z</time>
      </trkpt>
      <trkpt lat="43.57176" lon="5.90373">
        <ele>516</ele>
        <time>2016-07-17T07:05:08Z</time>
      </trkpt>
      <trkpt lat="43.57178" lon="5.90402">
        <ele>516</ele>
        <time>2016-07-17T07:05:13Z</time>
      </trkpt>
      <trkpt lat="43.57183" lon="5.90428">
        <ele>513</ele>
        <time>2016-07-17T07:05:17Z</time>
      </trkpt>
      <trkpt lat="43.57176" lon="5.90454">
        <ele>512</ele>
        <time>2016-07-17T07:05:21Z</time>
      </trkpt>
      <trkpt lat="43.57166" lon="5.90479">
        <ele>513</ele>
        <time>2016-07-17T07:05:25Z</time>
      </trkpt>
      <trkpt lat="43.57149" lon="5.90496">
        <ele>513</ele>
        <time>2016-07-17T07:05:29Z</time>
      </trkpt>
      <trkpt lat="43.5714" lon="5.90522">
        <ele>510</ele>
        <time>2016-07-17T07:05:33Z</time>
      </trkpt>
      <trkpt lat="43.57137" lon="5.90553">
        <ele>509</ele>
        <time>2016-07-17T07:05:37Z</time>
      </trkpt>
      <trkpt lat="43.57124" lon="5.90581">
        <ele>508</ele>
        <time>2016-07-17T07:05:41Z</time>
      </trkpt>
      <trkpt lat="43.57105" lon="5.90595">
        <ele>505</ele>
        <time>2016-07-17T07:05:45Z</time>
      </trkpt>
      <trkpt lat="43.57094" lon="5.90623">
        <ele>503</ele>
        <time>2016-07-17T07:05:50Z</time>
      </trkpt>
      <trkpt lat="43.57084" lon="5.90645">
        <ele>503</ele>
        <time>2016-07-17T07:05:53Z</time>
      </trkpt>
      <trkpt lat="43.57079" lon="5.90674">
        <ele>500</ele>
        <time>2016-07-17T07:05:57Z</time>
      </trkpt>
      <trkpt lat="43.5707" lon="5.90696">
        <ele>497</ele>
        <time>2016-07-17T07:06:00Z</time>
      </trkpt>
      <trkpt lat="43.5706" lon="5.90721">
        <ele>495</ele>
        <time>2016-07-17T07:06:03Z</time>
      </trkpt>
      <trkpt lat="43.57051" lon="5.90745">
        <ele>494</ele>
        <time>2016-07-17T07:06:06Z</time>
      </trkpt>
      <trkpt lat="43.57041" lon="5.90768">
        <ele>489</ele>
        <time>2016-07-17T07:06:10Z</time>
      </trkpt>
      <trkpt lat="43.57021" lon="5.90769">
        <ele>488</ele>
        <time>2016-07-17T07:08:20Z</time>
      </trkpt>
      <trkpt lat="43.57009" lon="5.90745">
        <ele>490</ele>
        <time>2016-07-17T07:08:25Z</time>
      </trkpt>
      <trkpt lat="43.56998" lon="5.90724">
        <ele>485</ele>
        <time>2016-07-17T07:08:29Z</time>
      </trkpt>
      <trkpt lat="43.56986" lon="5.90705">
        <ele>484</ele>
        <time>2016-07-17T07:08:34Z</time>
      </trkpt>
      <trkpt lat="43.56968" lon="5.90693">
        <ele>483</ele>
        <time>2016-07-17T07:08:39Z</time>
      </trkpt>
      <trkpt lat="43.56957" lon="5.90673">
        <ele>482</ele>
        <time>2016-07-17T07:08:43Z</time>
      </trkpt>
      <trkpt lat="43.56947" lon="5.90651">
        <ele>481</ele>
        <time>2016-07-17T07:08:47Z</time>
      </trkpt>
      <trkpt lat="43.56938" lon="5.90627">
        <ele>480</ele>
        <time>2016-07-17T07:08:51Z</time>
      </trkpt>
      <trkpt lat="43.5693" lon="5.90599">
        <ele>478</ele>
        <time>2016-07-17T07:08:55Z</time>
      </trkpt>
      <trkpt lat="43.5692" lon="5.90574">
        <ele>476</ele>
        <time>2016-07-17T07:08:59Z</time>
      </trkpt>
      <trkpt lat="43.56909" lon="5.90551">
        <ele>471</ele>
        <time>2016-07-17T07:09:02Z</time>
      </trkpt>
      <trkpt lat="43.56897" lon="5.90531">
        <ele>471</ele>
        <time>2016-07-17T07:09:05Z</time>
      </trkpt>
      <trkpt lat="43.56895" lon="5.90504">
        <ele>471</ele>
        <time>2016-07-17T07:09:10Z</time>
      </trkpt>
      <trkpt lat="43.56896" lon="5.90475">
        <ele>471</ele>
        <time>2016-07-17T07:09:15Z</time>
      </trkpt>
      <trkpt lat="43.56898" lon="5.90446">
        <ele>471</ele>
        <time>2016-07-17T07:09:20Z</time>
      </trkpt>
      <trkpt lat="43.56898" lon="5.90416">
        <ele>471</ele>
        <time>2016-07-17T07:09:26Z</time>
      </trkpt>
      <trkpt lat="43.569" lon="5.90386">
        <ele>471</ele>
        <time>2016-07-17T07:09:31Z</time>
      </trkpt>
      <trkpt lat="43.56902" lon="5.90361">
        <ele>471</ele>
        <time>2016-07-17T07:09:35Z</time>
      </trkpt>
      <trkpt lat="43.56898" lon="5.90334">
        <ele>471</ele>
        <time>2016-07-17T07:09:40Z</time>
      </trkpt>
      <trkpt lat="43.56886" lon="5.90316">
        <ele>470</ele>
        <time>2016-07-17T07:09:45Z</time>
      </trkpt>
      <trkpt lat="43.56872" lon="5.90294">
        <ele>469</ele>
        <time>2016-07-17T07:09:52Z</time>
      </trkpt>
      <trkpt lat="43.5686" lon="5.90274">
        <ele>469</ele>
        <time>2016-07-17T07:09:57Z</time>
      </trkpt>
      <trkpt lat="43.5684" lon="5.90274">
        <ele>468</ele>
        <time>2016-07-17T07:10:01Z</time>
      </trkpt>
      <trkpt lat="43.56822" lon="5.90273">
        <ele>463</ele>
        <time>2016-07-17T07:10:04Z</time>
      </trkpt>
      <trkpt lat="43.56804" lon="5.90267">
        <ele>462</ele>
        <time>2016-07-17T07:10:07Z</time>
      </trkpt>
      <trkpt lat="43.56784" lon="5.90265">
        <ele>461</ele>
        <time>2016-07-17T07:10:10Z</time>
      </trkpt>
      <trkpt lat="43.56764" lon="5.90264">
        <ele>459</ele>
        <time>2016-07-17T07:10:13Z</time>
      </trkpt>
      <trkpt lat="43.56744" lon="5.90256">
        <ele>456</ele>
        <time>2016-07-17T07:10:17Z</time>
      </trkpt>
      <trkpt lat="43.56727" lon="5.90241">
        <ele>455</ele>
        <time>2016-07-17T07:10:20Z</time>
      </trkpt>
      <trkpt lat="43.56712" lon="5.90224">
        <ele>454</ele>
        <time>2016-07-17T07:10:24Z</time>
      </trkpt>
      <trkpt lat="43.56698" lon="5.90204">
        <ele>453</ele>
        <time>2016-07-17T07:10:28Z</time>
      </trkpt>
      <trkpt lat="43.56688" lon="5.90182">
        <ele>453</ele>
        <time>2016-07-17T07:10:33Z</time>
      </trkpt>
      <trkpt lat="43.56689" lon="5.90157">
        <ele>454</ele>
        <time>2016-07-17T07:10:41Z</time>
      </trkpt>
      <trkpt lat="43.5669" lon="5.90132">
        <ele>454</ele>
        <time>2016-07-17T07:12:49Z</time>
      </trkpt>
      <trkpt lat="43.56701" lon="5.90109">
        <ele>454</ele>
        <time>2016-07-17T07:12:57Z</time>
      </trkpt>
      <trkpt lat="43.56706" lon="5.90085">
        <ele>454</ele>
        <time>2016-07-17T07:13:03Z</time>
      </trkpt>
      <trkpt lat="43.56708" lon="5.90057">
        <ele>456</ele>
        <time>2016-07-17T07:13:11Z</time>
      </trkpt>
      <trkpt lat="43.56714" lon="5.90029">
        <ele>456</ele>
        <time>2016-07-17T07:13:18Z</time>
      </trkpt>
      <trkpt lat="43.56712" lon="5.90004">
        <ele>456</ele>
        <time>2016-07-17T07:13:24Z</time>
      </trkpt>
      <trkpt lat="43.56695" lon="5.89993">
        <ele>457</ele>
        <time>2016-07-17T07:13:35Z</time>
      </trkpt>
      <trkpt lat="43.56677" lon="5.89997">
        <ele>458</ele>
        <time>2016-07-17T07:13:42Z</time>
      </trkpt>
      <trkpt lat="43.56659" lon="5.90004">
        <ele>459</ele>
        <time>2016-07-17T07:13:49Z</time>
      </trkpt>
      <trkpt lat="43.56641" lon="5.89999">
        <ele>460</ele>
        <time>2016-07-17T07:14:01Z</time>
      </trkpt>
      <trkpt lat="43.56625" lon="5.89988">
        <ele>462</ele>
        <time>2016-07-17T07:15:00Z</time>
      </trkpt>
      <trkpt lat="43.56612" lon="5.89968">
        <ele>462</ele>
        <time>2016-07-17T07:15:12Z</time>
      </trkpt>
      <trkpt lat="43.56604" lon="5.89945">
        <ele>462</ele>
        <time>2016-07-17T07:15:22Z</time>
      </trkpt>
      <trkpt lat="43.56598" lon="5.89921">
        <ele>462</ele>
        <time>2016-07-17T07:15:31Z</time>
      </trkpt>
      <trkpt lat="43.56591" lon="5.89898">
        <ele>463</ele>
        <time>2016-07-17T07:15:39Z</time>
      </trkpt>
      <trkpt lat="43.56585" lon="5.89872">
        <ele>463</ele>
        <time>2016-07-17T07:15:48Z</time>
      </trkpt>
      <trkpt lat="43.56579" lon="5.89847">
        <ele>465</ele>
        <time>2016-07-17T07:15:57Z</time>
      </trkpt>
      <trkpt lat="43.56571" lon="5.89824">
        <ele>466</ele>
        <time>2016-07-17T07:16:06Z</time>
      </trkpt>
      <trkpt lat="43.56558" lon="5.89804">
        <ele>467</ele>
        <time>2016-07-17T07:16:15Z</time>
      </trkpt>
      <trkpt lat="43.56545" lon="5.89787">
        <ele>468</ele>
        <time>2016-07-17T07:16:23Z</time>
      </trkpt>
      <trkpt lat="43.56531" lon="5.89767">
        <ele>468</ele>
        <time>2016-07-17T07:16:32Z</time>
      </trkpt>
      <trkpt lat="43.56524" lon="5.89742">
        <ele>470</ele>
        <time>2016-07-17T07:16:40Z</time>
      </trkpt>
      <trkpt lat="43.5652" lon="5.89718">
        <ele>471</ele>
        <time>2016-07-17T07:16:48Z</time>
      </trkpt>
      <trkpt lat="43.5652" lon="5.89685">
        <ele>471</ele>
        <time>2016-07-17T07:17:38Z</time>
      </trkpt>
      <trkpt lat="43.56528" lon="5.89662">
        <ele>471</ele>
        <time>2016-07-17T07:17:49Z</time>
      </trkpt>
      <trkpt lat="43.56532" lon="5.89635">
        <ele>471</ele>
        <time>2016-07-17T07:17:58Z</time>
      </trkpt>
      <trkpt lat="43.56536" lon="5.8961">
        <ele>471</ele>
        <time>2016-07-17T07:18:05Z</time>
      </trkpt>
      <trkpt lat="43.56539" lon="5.89584">
        <ele>470</ele>
        <time>2016-07-17T07:18:13Z</time>
      </trkpt>
      <trkpt lat="43.56544" lon="5.8956">
        <ele>469</ele>
        <time>2016-07-17T07:18:21Z</time>
      </trkpt>
      <trkpt lat="43.5655" lon="5.89536">
        <ele>469</ele>
        <time>2016-07-17T07:18:30Z</time>
      </trkpt>
      <trkpt lat="43.56558" lon="5.89509">
        <ele>469</ele>
        <time>2016-07-17T07:18:36Z</time>
      </trkpt>
      <trkpt lat="43.56563" lon="5.89484">
        <ele>468</ele>
        <time>2016-07-17T07:18:41Z</time>
      </trkpt>
      <trkpt lat="43.56568" lon="5.89459">
        <ele>468</ele>
        <time>2016-07-17T07:18:46Z</time>
      </trkpt>
      <trkpt lat="43.56567" lon="5.89434">
        <ele>468</ele>
        <time>2016-07-17T07:18:54Z</time>
      </trkpt>
      <trkpt lat="43.56568" lon="5.89409">
        <ele>468</ele>
        <time>2016-07-17T07:19:00Z</time>
      </trkpt>
      <trkpt lat="43.56567" lon="5.89379">
        <ele>468</ele>
        <time>2016-07-17T07:19:06Z</time>
      </trkpt>
      <trkpt lat="43.56572" lon="5.89355">
        <ele>468</ele>
        <time>2016-07-17T07:19:11Z</time>
      </trkpt>
      <trkpt lat="43.56574" lon="5.89327">
        <ele>468</ele>
        <time>2016-07-17T07:19:16Z</time>
      </trkpt>
      <trkpt lat="43.56581" lon="5.89301">
        <ele>468</ele>
        <time>2016-07-17T07:19:21Z</time>
      </trkpt>
      <trkpt lat="43.56586" lon="5.89275">
        <ele>467</ele>
        <time>2016-07-17T07:19:28Z</time>
      </trkpt>
      <trkpt lat="43.56592" lon="5.89248">
        <ele>467</ele>
        <time>2016-07-17T07:19:35Z</time>
      </trkpt>
      <trkpt lat="43.56598" lon="5.89223">
        <ele>467</ele>
        <time>2016-07-17T07:19:40Z</time>
      </trkpt>
      <trkpt lat="43.56603" lon="5.89198">
        <ele>467</ele>
        <time>2016-07-17T07:19:45Z</time>
      </trkpt>
      <trkpt lat="43.56606" lon="5.89172">
        <ele>468</ele>
        <time>2016-07-17T07:19:51Z</time>
      </trkpt>
      <trkpt lat="43.56601" lon="5.89145">
        <ele>470</ele>
        <time>2016-07-17T07:19:57Z</time>
      </trkpt>
      <trkpt lat="43.56585" lon="5.89129">
        <ele>470</ele>
        <time>2016-07-17T07:20:03Z</time>
      </trkpt>
      <trkpt lat="43.56576" lon="5.89105">
        <ele>472</ele>
        <time>2016-07-17T07:20:09Z</time>
      </trkpt>
      <trkpt lat="43.56575" lon="5.89078">
        <ele>473</ele>
        <time>2016-07-17T07:20:15Z</time>
      </trkpt>
      <trkpt lat="43.56576" lon="5.89053">
        <ele>473</ele>
        <time>2016-07-17T07:20:21Z</time>
      </trkpt>
      <trkpt lat="43.56579" lon="5.89024">
        <ele>474</ele>
        <time>2016-07-17T07:20:28Z</time>
      </trkpt>
      <trkpt lat="43.56573" lon="5.88998">
        <ele>474</ele>
        <time>2016-07-17T07:20:36Z</time>
      </trkpt>
      <trkpt lat="43.56563" lon="5.88974">
        <ele>475</ele>
        <time>2016-07-17T07:20:44Z</time>
      </trkpt>
      <trkpt lat="43.56566" lon="5.88948">
        <ele>475</ele>
        <time>2016-07-17T07:20:51Z</time>
      </trkpt>
      <trkpt lat="43.5657" lon="5.88922">
        <ele>476</ele>
        <time>2016-07-17T07:20:59Z</time>
      </trkpt>
      <trkpt lat="43.56574" lon="5.88897">
        <ele>477</ele>
        <time>2016-07-17T07:21:06Z</time>
      </trkpt>
      <trkpt lat="43.56587" lon="5.88879">
        <ele>477</ele>
        <time>2016-07-17T07:21:16Z</time>
      </trkpt>
      <trkpt lat="43.56592" lon="5.8887">
        <ele>478</ele>
        <time>2016-07-17T07:23:27Z</time>
      </trkpt>
      <trkpt lat="43.56602" lon="5.88845">
        <ele>478</ele>
        <time>2016-07-17T07:23:36Z</time>
      </trkpt>
      <trkpt lat="43.56611" lon="5.88819">
        <ele>479</ele>
        <time>2016-07-17T07:23:43Z</time>
      </trkpt>
      <trkpt lat="43.56618" lon="5.88792">
        <ele>479</ele>
        <time>2016-07-17T07:23:49Z</time>
      </trkpt>
      <trkpt lat="43.56628" lon="5.88769">
        <ele>479</ele>
        <time>2016-07-17T07:23:54Z</time>
      </trkpt>
      <trkpt lat="43.56634" lon="5.88742">
        <ele>479</ele>
        <time>2016-07-17T07:23:59Z</time>
      </trkpt>
      <trkpt lat="43.56637" lon="5.88714">
        <ele>478</ele>
        <time>2016-07-17T07:24:04Z</time>
      </trkpt>
      <trkpt lat="43.56639" lon="5.88686">
        <ele>478</ele>
        <time>2016-07-17T07:24:09Z</time>
      </trkpt>
      <trkpt lat="43.56641" lon="5.88657">
        <ele>478</ele>
        <time>2016-07-17T07:24:14Z</time>
      </trkpt>
      <trkpt lat="43.56646" lon="5.88629">
        <ele>478</ele>
        <time>2016-07-17T07:24:19Z</time>
      </trkpt>
      <trkpt lat="43.56649" lon="5.88603">
        <ele>478</ele>
        <time>2016-07-17T07:24:25Z</time>
      </trkpt>
      <trkpt lat="43.56637" lon="5.88583">
        <ele>479</ele>
        <time>2016-07-17T07:24:36Z</time>
      </trkpt>
      <trkpt lat="43.56617" lon="5.88586">
        <ele>477</ele>
        <time>2016-07-17T07:25:24Z</time>
      </trkpt>
      <trkpt lat="43.56599" lon="5.88591">
        <ele>476</ele>
        <time>2016-07-17T07:25:31Z</time>
      </trkpt>
      <trkpt lat="43.56578" lon="5.88592">
        <ele>475</ele>
        <time>2016-07-17T07:25:37Z</time>
      </trkpt>
      <trkpt lat="43.56558" lon="5.88597">
        <ele>475</ele>
        <time>2016-07-17T07:25:42Z</time>
      </trkpt>
      <trkpt lat="43.56537" lon="5.88608">
        <ele>475</ele>
        <time>2016-07-17T07:25:47Z</time>
      </trkpt>
      <trkpt lat="43.56518" lon="5.88617">
        <ele>475</ele>
        <time>2016-07-17T07:25:51Z</time>
      </trkpt>
      <trkpt lat="43.56496" lon="5.88628">
        <ele>476</ele>
        <time>2016-07-17T07:25:55Z</time>
      </trkpt>
      <trkpt lat="43.56474" lon="5.88645">
        <ele>476</ele>
        <time>2016-07-17T07:25:59Z</time>
      </trkpt>
      <trkpt lat="43.56459" lon="5.88659">
        <ele>476</ele>
        <time>2016-07-17T07:26:02Z</time>
      </trkpt>
      <trkpt lat="43.56437" lon="5.8867">
        <ele>476</ele>
        <time>2016-07-17T07:26:06Z</time>
      </trkpt>
      <trkpt lat="43.56417" lon="5.88673">
        <ele>477</ele>
        <time>2016-07-17T07:26:10Z</time>
      </trkpt>
      <trkpt lat="43.56398" lon="5.88676">
        <ele>476</ele>
        <time>2016-07-17T07:26:14Z</time>
      </trkpt>
      <trkpt lat="43.56378" lon="5.88686">
        <ele>475</ele>
        <time>2016-07-17T07:26:19Z</time>
      </trkpt>
      <trkpt lat="43.5636" lon="5.88697">
        <ele>475</ele>
        <time>2016-07-17T07:26:24Z</time>
      </trkpt>
      <trkpt lat="43.56344" lon="5.8871">
        <ele>474</ele>
        <time>2016-07-17T07:26:29Z</time>
      </trkpt>
      <trkpt lat="43.56333" lon="5.88731">
        <ele>471</ele>
        <time>2016-07-17T07:26:35Z</time>
      </trkpt>
      <trkpt lat="43.56319" lon="5.88752">
        <ele>471</ele>
        <time>2016-07-17T07:26:43Z</time>
      </trkpt>
      <trkpt lat="43.56305" lon="5.88772">
        <ele>470</ele>
        <time>2016-07-17T07:26:49Z</time>
      </trkpt>
      <trkpt lat="43.56287" lon="5.8879">
        <ele>469</ele>
        <time>2016-07-17T07:26:54Z</time>
      </trkpt>
      <trkpt lat="43.5627" lon="5.88804">
        <ele>469</ele>
        <time>2016-07-17T07:26:58Z</time>
      </trkpt>
      <trkpt lat="43.56252" lon="5.88825">
        <ele>468</ele>
        <time>2016-07-17T07:27:02Z</time>
      </trkpt>
      <trkpt lat="43.56236" lon="5.88841">
        <ele>467</ele>
        <time>2016-07-17T07:27:05Z</time>
      </trkpt>
      <trkpt lat="43.56221" lon="5.88858">
        <ele>467</ele>
        <time>2016-07-17T07:27:08Z</time>
      </trkpt>
      <trkpt lat="43.56205" lon="5.88877">
        <ele>466</ele>
        <time>2016-07-17T07:27:11Z</time>
      </trkpt>
      <trkpt lat="43.56188" lon="5.88896">
        <ele>466</ele>
        <time>2016-07-17T07:27:14Z</time>
      </trkpt>
      <trkpt lat="43.56168" lon="5.8891">
        <ele>465</ele>
        <time>2016-07-17T07:27:17Z</time>
      </trkpt>
      <trkpt lat="43.56149" lon="5.88922">
        <ele>464</ele>
        <time>2016-07-17T07:27:20Z</time>
      </trkpt>
      <trkpt lat="43.5613" lon="5.88939">
        <ele>464</ele>
        <time>2016-07-17T07:27:23Z</time>
      </trkpt>
      <trkpt lat="43.56114" lon="5.88957">
        <ele>463</ele>
        <time>2016-07-17T07:27:26Z</time>
      </trkpt>
      <trkpt lat="43.56097" lon="5.88974">
        <ele>463</ele>
        <time>2016-07-17T07:27:29Z</time>
      </trkpt>
      <trkpt lat="43.56077" lon="5.88986">
        <ele>461</ele>
        <time>2016-07-17T07:27:32Z</time>
      </trkpt>
      <trkpt lat="43.56057" lon="5.88997">
        <ele>460</ele>
        <time>2016-07-17T07:27:35Z</time>
      </trkpt>
      <trkpt lat="43.56037" lon="5.89007">
        <ele>460</ele>
        <time>2016-07-17T07:27:38Z</time>
      </trkpt>
      <trkpt lat="43.56018" lon="5.89017">
        <ele>459</ele>
        <time>2016-07-17T07:27:41Z</time>
      </trkpt>
      <trkpt lat="43.55998" lon="5.89025">
        <ele>457</ele>
        <time>2016-07-17T07:27:44Z</time>
      </trkpt>
      <trkpt lat="43.55979" lon="5.89034">
        <ele>457</ele>
        <time>2016-07-17T07:27:47Z</time>
      </trkpt>
      <trkpt lat="43.5596" lon="5.89043">
        <ele>456</ele>
        <time>2016-07-17T07:27:50Z</time>
      </trkpt>
      <trkpt lat="43.5594" lon="5.89053">
        <ele>456</ele>
        <time>2016-07-17T07:27:53Z</time>
      </trkpt>
      <trkpt lat="43.55921" lon="5.89063">
        <ele>456</ele>
        <time>2016-07-17T07:27:56Z</time>
      </trkpt>
      <trkpt lat="43.559" lon="5.89072">
        <ele>454</ele>
        <time>2016-07-17T07:27:59Z</time>
      </trkpt>
      <trkpt lat="43.55879" lon="5.89082">
        <ele>453</ele>
        <time>2016-07-17T07:28:02Z</time>
      </trkpt>
      <trkpt lat="43.55859" lon="5.89092">
        <ele>454</ele>
        <time>2016-07-17T07:28:05Z</time>
      </trkpt>
      <trkpt lat="43.55839" lon="5.89103">
        <ele>453</ele>
        <time>2016-07-17T07:28:08Z</time>
      </trkpt>
      <trkpt lat="43.55817" lon="5.89114">
        <ele>452</ele>
        <time>2016-07-17T07:28:11Z</time>
      </trkpt>
      <trkpt lat="43.55794" lon="5.89121">
        <ele>451</ele>
        <time>2016-07-17T07:28:14Z</time>
      </trkpt>
      <trkpt lat="43.55774" lon="5.89131">
        <ele>451</ele>
        <time>2016-07-17T07:28:17Z</time>
      </trkpt>
      <trkpt lat="43.55755" lon="5.8914">
        <ele>451</ele>
        <time>2016-07-17T07:28:20Z</time>
      </trkpt>
      <trkpt lat="43.55736" lon="5.8915">
        <ele>450</ele>
        <time>2016-07-17T07:28:23Z</time>
      </trkpt>
      <trkpt lat="43.55716" lon="5.89159">
        <ele>449</ele>
        <time>2016-07-17T07:28:26Z</time>
      </trkpt>
      <trkpt lat="43.55696" lon="5.8917">
        <ele>449</ele>
        <time>2016-07-17T07:28:29Z</time>
      </trkpt>
      <trkpt lat="43.55677" lon="5.89181">
        <ele>449</ele>
        <time>2016-07-17T07:28:32Z</time>
      </trkpt>
      <trkpt lat="43.55658" lon="5.89188">
        <ele>447</ele>
        <time>2016-07-17T07:28:35Z</time>
      </trkpt>
      <trkpt lat="43.55637" lon="5.89196">
        <ele>446</ele>
        <time>2016-07-17T07:28:39Z</time>
      </trkpt>
      <trkpt lat="43.55617" lon="5.89207">
        <ele>446</ele>
        <time>2016-07-17T07:28:43Z</time>
      </trkpt>
      <trkpt lat="43.55596" lon="5.89223">
        <ele>445</ele>
        <time>2016-07-17T07:28:47Z</time>
      </trkpt>
      <trkpt lat="43.55577" lon="5.89235">
        <ele>444</ele>
        <time>2016-07-17T07:28:51Z</time>
      </trkpt>
      <trkpt lat="43.55558" lon="5.89245">
        <ele>444</ele>
        <time>2016-07-17T07:28:55Z</time>
      </trkpt>
      <trkpt lat="43.5554" lon="5.89254">
        <ele>443</ele>
        <time>2016-07-17T07:28:59Z</time>
      </trkpt>
      <trkpt lat="43.5552" lon="5.89264">
        <ele>443</ele>
        <time>2016-07-17T07:29:03Z</time>
      </trkpt>
      <trkpt lat="43.55499" lon="5.89273">
        <ele>443</ele>
        <time>2016-07-17T07:29:07Z</time>
      </trkpt>
      <trkpt lat="43.55478" lon="5.89282">
        <ele>443</ele>
        <time>2016-07-17T07:29:11Z</time>
      </trkpt>
      <trkpt lat="43.55458" lon="5.89291">
        <ele>444</ele>
        <time>2016-07-17T07:29:15Z</time>
      </trkpt>
      <trkpt lat="43.55439" lon="5.89301">
        <ele>443</ele>
        <time>2016-07-17T07:29:19Z</time>
      </trkpt>
      <trkpt lat="43.55421" lon="5.89309">
        <ele>443</ele>
        <time>2016-07-17T07:29:23Z</time>
      </trkpt>
      <trkpt lat="43.55403" lon="5.89316">
        <ele>442</ele>
        <time>2016-07-17T07:29:27Z</time>
      </trkpt>
      <trkpt lat="43.55385" lon="5.89322">
        <ele>441</ele>
        <time>2016-07-17T07:29:32Z</time>
      </trkpt>
      <trkpt lat="43.55367" lon="5.89328">
        <ele>440</ele>
        <time>2016-07-17T07:29:36Z</time>
      </trkpt>
      <trkpt lat="43.55349" lon="5.89334">
        <ele>437</ele>
        <time>2016-07-17T07:29:39Z</time>
      </trkpt>
      <trkpt lat="43.55328" lon="5.89343">
        <ele>435</ele>
        <time>2016-07-17T07:29:42Z</time>
      </trkpt>
      <trkpt lat="43.55306" lon="5.89354">
        <ele>433</ele>
        <time>2016-07-17T07:29:45Z</time>
      </trkpt>
      <trkpt lat="43.55283" lon="5.8936">
        <ele>432</ele>
        <time>2016-07-17T07:29:48Z</time>
      </trkpt>
      <trkpt lat="43.55259" lon="5.89355">
        <ele>432</ele>
        <time>2016-07-17T07:29:51Z</time>
      </trkpt>
      <trkpt lat="43.55233" lon="5.89355">
        <ele>428</ele>
        <time>2016-07-17T07:29:54Z</time>
      </trkpt>
      <trkpt lat="43.55208" lon="5.89349">
        <ele>426</ele>
        <time>2016-07-17T07:29:57Z</time>
      </trkpt>
      <trkpt lat="43.55191" lon="5.8934">
        <ele>425</ele>
        <time>2016-07-17T07:29:59Z</time>
      </trkpt>
      <trkpt lat="43.55173" lon="5.89331">
        <ele>423</ele>
        <time>2016-07-17T07:30:01Z</time>
      </trkpt>
      <trkpt lat="43.55156" lon="5.89321">
        <ele>420</ele>
        <time>2016-07-17T07:30:03Z</time>
      </trkpt>
      <trkpt lat="43.55139" lon="5.8931">
        <ele>419</ele>
        <time>2016-07-17T07:30:05Z</time>
      </trkpt>
      <trkpt lat="43.55114" lon="5.89298">
        <ele>417</ele>
        <time>2016-07-17T07:30:08Z</time>
      </trkpt>
      <trkpt lat="43.55091" lon="5.89285">
        <ele>417</ele>
        <time>2016-07-17T07:30:11Z</time>
      </trkpt>
      <trkpt lat="43.55067" lon="5.89275">
        <ele>414</ele>
        <time>2016-07-17T07:30:14Z</time>
      </trkpt>
      <trkpt lat="43.55042" lon="5.89262">
        <ele>414</ele>
        <time>2016-07-17T07:30:17Z</time>
      </trkpt>
      <trkpt lat="43.55017" lon="5.89251">
        <ele>415</ele>
        <time>2016-07-17T07:30:20Z</time>
      </trkpt>
      <trkpt lat="43.54992" lon="5.89244">
        <ele>416</ele>
        <time>2016-07-17T07:30:23Z</time>
      </trkpt>
      <trkpt lat="43.54967" lon="5.89241">
        <ele>416</ele>
        <time>2016-07-17T07:30:26Z</time>
      </trkpt>
      <trkpt lat="43.54944" lon="5.89245">
        <ele>416</ele>
        <time>2016-07-17T07:30:29Z</time>
      </trkpt>
      <trkpt lat="43.54925" lon="5.8925">
        <ele>416</ele>
        <time>2016-07-17T07:30:32Z</time>
      </trkpt>
      <trkpt lat="43.54905" lon="5.89247">
        <ele>416</ele>
        <time>2016-07-17T07:30:36Z</time>
      </trkpt>
      <trkpt lat="43.54886" lon="5.89245">
        <ele>415</ele>
        <time>2016-07-17T07:30:40Z</time>
      </trkpt>
      <trkpt lat="43.54865" lon="5.89245">
        <ele>415</ele>
        <time>2016-07-17T07:30:45Z</time>
      </trkpt>
      <trkpt lat="43.54845" lon="5.89246">
        <ele>415</ele>
        <time>2016-07-17T07:30:50Z</time>
      </trkpt>
      <trkpt lat="43.54826" lon="5.89248">
        <ele>414</ele>
        <time>2016-07-17T07:30:55Z</time>
      </trkpt>
      <trkpt lat="43.54806" lon="5.8925">
        <ele>414</ele>
        <time>2016-07-17T07:31:00Z</time>
      </trkpt>
      <trkpt lat="43.54784" lon="5.89255">
        <ele>415</ele>
        <time>2016-07-17T07:31:05Z</time>
      </trkpt>
      <trkpt lat="43.54763" lon="5.8926">
        <ele>414</ele>
        <time>2016-07-17T07:31:10Z</time>
      </trkpt>
      <trkpt lat="43.54743" lon="5.89266">
        <ele>414</ele>
        <time>2016-07-17T07:31:15Z</time>
      </trkpt>
      <trkpt lat="43.54722" lon="5.89272">
        <ele>414</ele>
        <time>2016-07-17T07:31:20Z</time>
      </trkpt>
      <trkpt lat="43.54703" lon="5.89279">
        <ele>414</ele>
        <time>2016-07-17T07:31:25Z</time>
      </trkpt>
      <trkpt lat="43.54685" lon="5.89287">
        <ele>414</ele>
        <time>2016-07-17T07:31:31Z</time>
      </trkpt>
      <trkpt lat="43.54668" lon="5.89296">
        <ele>414</ele>
        <time>2016-07-17T07:31:38Z</time>
      </trkpt>
      <trkpt lat="43.54651" lon="5.89306">
        <ele>411</ele>
        <time>2016-07-17T07:31:42Z</time>
      </trkpt>
      <trkpt lat="43.54633" lon="5.89315">
        <ele>411</ele>
        <time>2016-07-17T07:31:45Z</time>
      </trkpt>
      <trkpt lat="43.54615" lon="5.89322">
        <ele>410</ele>
        <time>2016-07-17T07:31:48Z</time>
      </trkpt>
      <trkpt lat="43.54597" lon="5.8933">
        <ele>409</ele>
        <time>2016-07-17T07:31:51Z</time>
      </trkpt>
      <trkpt lat="43.54577" lon="5.89331">
        <ele>406</ele>
        <time>2016-07-17T07:31:54Z</time>
      </trkpt>
      <trkpt lat="43.54553" lon="5.89327">
        <ele>404</ele>
        <time>2016-07-17T07:31:57Z</time>
      </trkpt>
      <trkpt lat="43.54527" lon="5.89317">
        <ele>401</ele>
        <time>2016-07-17T07:32:00Z</time>
      </trkpt>
      <trkpt lat="43.54505" lon="5.89308">
        <ele>400</ele>
        <time>2016-07-17T07:32:03Z</time>
      </trkpt>
      <trkpt lat="43.54484" lon="5.89316">
        <ele>395</ele>
        <time>2016-07-17T07:32:06Z</time>
      </trkpt>
      <trkpt lat="43.54465" lon="5.89332">
        <ele>395</ele>
        <time>2016-07-17T07:32:09Z</time>
      </trkpt>
      <trkpt lat="43.54442" lon="5.8934">
        <ele>393</ele>
        <time>2016-07-17T07:32:12Z</time>
      </trkpt>
      <trkpt lat="43.54419" lon="5.89349">
        <ele>392</ele>
        <time>2016-07-17T07:32:15Z</time>
      </trkpt>
      <trkpt lat="43.54395" lon="5.89358">
        <ele>388</ele>
        <time>2016-07-17T07:32:18Z</time>
      </trkpt>
      <trkpt lat="43.54375" lon="5.89359">
        <ele>388</ele>
        <time>2016-07-17T07:32:21Z</time>
      </trkpt>
      <trkpt lat="43.54357" lon="5.89358">
        <ele>388</ele>
        <time>2016-07-17T07:32:25Z</time>
      </trkpt>
      <trkpt lat="43.54338" lon="5.89355">
        <ele>388</ele>
        <time>2016-07-17T07:32:30Z</time>
      </trkpt>
      <trkpt lat="43.5432" lon="5.8935">
        <ele>386</ele>
        <time>2016-07-17T07:32:35Z</time>
      </trkpt>
      <trkpt lat="43.543" lon="5.89344">
        <ele>386</ele>
        <time>2016-07-17T07:32:41Z</time>
      </trkpt>
      <trkpt lat="43.54281" lon="5.89345">
        <ele>386</ele>
        <time>2016-07-17T07:34:24Z</time>
      </trkpt>
      <trkpt lat="43.54259" lon="5.89346">
        <ele>385</ele>
        <time>2016-07-17T07:34:29Z</time>
      </trkpt>
      <trkpt lat="43.54238" lon="5.89339">
        <ele>385</ele>
        <time>2016-07-17T07:34:33Z</time>
      </trkpt>
      <trkpt lat="43.54219" lon="5.89329">
        <ele>390</ele>
        <time>2016-07-17T07:34:36Z</time>
      </trkpt>
      <trkpt lat="43.54198" lon="5.89322">
        <ele>390</ele>
        <time>2016-07-17T07:34:39Z</time>
      </trkpt>
      <trkpt lat="43.54177" lon="5.89318">
        <ele>389</ele>
        <time>2016-07-17T07:34:42Z</time>
      </trkpt>
      <trkpt lat="43.54158" lon="5.89318">
        <ele>389</ele>
        <time>2016-07-17T07:34:45Z</time>
      </trkpt>
      <trkpt lat="43.54138" lon="5.89325">
        <ele>389</ele>
        <time>2016-07-17T07:34:48Z</time>
      </trkpt>
      <trkpt lat="43.5412" lon="5.89336">
        <ele>385</ele>
        <time>2016-07-17T07:34:51Z</time>
      </trkpt>
      <trkpt lat="43.541" lon="5.89346">
        <ele>385</ele>
        <time>2016-07-17T07:34:54Z</time>
      </trkpt>
      <trkpt lat="43.54082" lon="5.89355">
        <ele>384</ele>
        <time>2016-07-17T07:34:57Z</time>
      </trkpt>
      <trkpt lat="43.54063" lon="5.8936">
        <ele>383</ele>
        <time>2016-07-17T07:35:01Z</time>
      </trkpt>
      <trkpt lat="43.54045" lon="5.89355">
        <ele>383</ele>
        <time>2016-07-17T07:35:06Z</time>
      </trkpt>
      <trkpt lat="43.54024" lon="5.89348">
        <ele>382</ele>
        <time>2016-07-17T07:35:10Z</time>
      </trkpt>
      <trkpt lat="43.54004" lon="5.89341">
        <ele>382</ele>
        <time>2016-07-17T07:35:13Z</time>
      </trkpt>
      <trkpt lat="43.5398" lon="5.89333">
        <ele>381</ele>
        <time>2016-07-17T07:35:16Z</time>
      </trkpt>
      <trkpt lat="43.53958" lon="5.89317">
        <ele>381</ele>
        <time>2016-07-17T07:35:19Z</time>
      </trkpt>
      <trkpt lat="43.53939" lon="5.89306">
        <ele>381</ele>
        <time>2016-07-17T07:35:22Z</time>
      </trkpt>
      <trkpt lat="43.53921" lon="5.89303">
        <ele>381</ele>
        <time>2016-07-17T07:35:25Z</time>
      </trkpt>
      <trkpt lat="43.53901" lon="5.89305">
        <ele>380</ele>
        <time>2016-07-17T07:35:29Z</time>
      </trkpt>
      <trkpt lat="43.5388" lon="5.89304">
        <ele>380</ele>
        <time>2016-07-17T07:35:33Z</time>
      </trkpt>
      <trkpt lat="43.53862" lon="5.89302">
        <ele>380</ele>
        <time>2016-07-17T07:35:36Z</time>
      </trkpt>
      <trkpt lat="43.53842" lon="5.89308">
        <ele>380</ele>
        <time>2016-07-17T07:35:39Z</time>
      </trkpt>
      <trkpt lat="43.53824" lon="5.8932">
        <ele>379</ele>
        <time>2016-07-17T07:35:42Z</time>
      </trkpt>
      <trkpt lat="43.53804" lon="5.89329">
        <ele>380</ele>
        <time>2016-07-17T07:35:45Z</time>
      </trkpt>
      <trkpt lat="43.53787" lon="5.89338">
        <ele>381</ele>
        <time>2016-07-17T07:35:48Z</time>
      </trkpt>
      <trkpt lat="43.53768" lon="5.89347">
        <ele>381</ele>
        <time>2016-07-17T07:35:51Z</time>
      </trkpt>
      <trkpt lat="43.53751" lon="5.89355">
        <ele>381</ele>
        <time>2016-07-17T07:35:54Z</time>
      </trkpt>
      <trkpt lat="43.5373" lon="5.89366">
        <ele>379</ele>
        <time>2016-07-17T07:35:58Z</time>
      </trkpt>
      <trkpt lat="43.53708" lon="5.89371">
        <ele>379</ele>
        <time>2016-07-17T07:36:02Z</time>
      </trkpt>
      <trkpt lat="43.53686" lon="5.89383">
        <ele>379</ele>
        <time>2016-07-17T07:36:06Z</time>
      </trkpt>
      <trkpt lat="43.53664" lon="5.89393">
        <ele>377</ele>
        <time>2016-07-17T07:36:10Z</time>
      </trkpt>
      <trkpt lat="43.53647" lon="5.89399">
        <ele>377</ele>
        <time>2016-07-17T07:36:13Z</time>
      </trkpt>
      <trkpt lat="43.53629" lon="5.89399">
        <ele>377</ele>
        <time>2016-07-17T07:36:16Z</time>
      </trkpt>
      <trkpt lat="43.53611" lon="5.8939">
        <ele>376</ele>
        <time>2016-07-17T07:36:20Z</time>
      </trkpt>
      <trkpt lat="43.53592" lon="5.8938">
        <ele>376</ele>
        <time>2016-07-17T07:36:25Z</time>
      </trkpt>
      <trkpt lat="43.53573" lon="5.89368">
        <ele>378</ele>
        <time>2016-07-17T07:36:30Z</time>
      </trkpt>
      <trkpt lat="43.53554" lon="5.89362">
        <ele>379</ele>
        <time>2016-07-17T07:36:34Z</time>
      </trkpt>
      <trkpt lat="43.53535" lon="5.89364">
        <ele>379</ele>
        <time>2016-07-17T07:36:39Z</time>
      </trkpt>
      <trkpt lat="43.53516" lon="5.89367">
        <ele>380</ele>
        <time>2016-07-17T07:36:47Z</time>
      </trkpt>
      <trkpt lat="43.53497" lon="5.89373">
        <ele>383</ele>
        <time>2016-07-17T07:36:56Z</time>
      </trkpt>
      <trkpt lat="43.53481" lon="5.89386">
        <ele>383</ele>
        <time>2016-07-17T07:37:06Z</time>
      </trkpt>
      <trkpt lat="43.53465" lon="5.894">
        <ele>383</ele>
        <time>2016-07-17T07:37:18Z</time>
      </trkpt>
      <trkpt lat="43.53446" lon="5.89402">
        <ele>384</ele>
        <time>2016-07-17T07:37:30Z</time>
      </trkpt>
      <trkpt lat="43.53431" lon="5.89385">
        <ele>385</ele>
        <time>2016-07-17T07:37:42Z</time>
      </trkpt>
      <trkpt lat="43.53416" lon="5.89368">
        <ele>386</ele>
        <time>2016-07-17T07:37:52Z</time>
      </trkpt>
      <trkpt lat="43.53402" lon="5.89352">
        <ele>386</ele>
        <time>2016-07-17T07:37:59Z</time>
      </trkpt>
      <trkpt lat="43.53385" lon="5.89334">
        <ele>386</ele>
        <time>2016-07-17T07:38:05Z</time>
      </trkpt>
      <trkpt lat="43.53372" lon="5.89315">
        <ele>388</ele>
        <time>2016-07-17T07:41:53Z</time>
      </trkpt>
      <trkpt lat="43.53358" lon="5.89298">
        <ele>388</ele>
        <time>2016-07-17T07:42:01Z</time>
      </trkpt>
      <trkpt lat="43.53339" lon="5.89297">
        <ele>388</ele>
        <time>2016-07-17T07:42:09Z</time>
      </trkpt>
      <trkpt lat="43.53322" lon="5.89307">
        <ele>388</ele>
        <time>2016-07-17T07:42:16Z</time>
      </trkpt>
      <trkpt lat="43.53305" lon="5.89317">
        <ele>388</ele>
        <time>2016-07-17T07:42:21Z</time>
      </trkpt>
      <trkpt lat="43.53288" lon="5.89326">
        <ele>388</ele>
        <time>2016-07-17T07:42:26Z</time>
      </trkpt>
      <trkpt lat="43.53269" lon="5.89337">
        <ele>384</ele>
        <time>2016-07-17T07:42:31Z</time>
      </trkpt>
      <trkpt lat="43.53248" lon="5.89348">
        <ele>385</ele>
        <time>2016-07-17T07:42:36Z</time>
      </trkpt>
      <trkpt lat="43.53231" lon="5.89354">
        <ele>385</ele>
        <time>2016-07-17T07:42:40Z</time>
      </trkpt>
      <trkpt lat="43.53211" lon="5.89355">
        <ele>386</ele>
        <time>2016-07-17T07:42:44Z</time>
      </trkpt>
      <trkpt lat="43.5319" lon="5.89356">
        <ele>387</ele>
        <time>2016-07-17T07:42:48Z</time>
      </trkpt>
      <trkpt lat="43.53169" lon="5.89355">
        <ele>388</ele>
        <time>2016-07-17T07:42:53Z</time>
      </trkpt>
      <trkpt lat="43.53151" lon="5.89351">
        <ele>390</ele>
        <time>2016-07-17T07:42:58Z</time>
      </trkpt>
      <trkpt lat="43.53132" lon="5.89365">
        <ele>390</ele>
        <time>2016-07-17T07:43:06Z</time>
      </trkpt>
      <trkpt lat="43.53115" lon="5.89383">
        <ele>389</ele>
        <time>2016-07-17T07:43:11Z</time>
      </trkpt>
      <trkpt lat="43.53097" lon="5.89401">
        <ele>387</ele>
        <time>2016-07-17T07:43:15Z</time>
      </trkpt>
      <trkpt lat="43.53078" lon="5.89416">
        <ele>385</ele>
        <time>2016-07-17T07:43:19Z</time>
      </trkpt>
      <trkpt lat="43.5306" lon="5.89433">
        <ele>382</ele>
        <time>2016-07-17T07:43:23Z</time>
      </trkpt>
      <trkpt lat="43.53041" lon="5.89448">
        <ele>382</ele>
        <time>2016-07-17T07:43:27Z</time>
      </trkpt>
      <trkpt lat="43.53019" lon="5.89459">
        <ele>382</ele>
        <time>2016-07-17T07:43:31Z</time>
      </trkpt>
      <trkpt lat="43.52998" lon="5.89469">
        <ele>383</ele>
        <time>2016-07-17T07:43:35Z</time>
      </trkpt>
      <trkpt lat="43.52976" lon="5.89481">
        <ele>383</ele>
        <time>2016-07-17T07:43:39Z</time>
      </trkpt>
      <trkpt lat="43.52954" lon="5.89492">
        <ele>383</ele>
        <time>2016-07-17T07:43:43Z</time>
      </trkpt>
      <trkpt lat="43.52932" lon="5.89502">
        <ele>377</ele>
        <time>2016-07-17T07:43:47Z</time>
      </trkpt>
      <trkpt lat="43.52908" lon="5.89512">
        <ele>379</ele>
        <time>2016-07-17T07:43:50Z</time>
      </trkpt>
      <trkpt lat="43.52887" lon="5.89521">
        <ele>378</ele>
        <time>2016-07-17T07:43:53Z</time>
      </trkpt>
      <trkpt lat="43.52868" lon="5.89529">
        <ele>378</ele>
        <time>2016-07-17T07:43:56Z</time>
      </trkpt>
      <trkpt lat="43.52849" lon="5.89539">
        <ele>378</ele>
        <time>2016-07-17T07:43:59Z</time>
      </trkpt>
      <trkpt lat="43.52828" lon="5.89551">
        <ele>379</ele>
        <time>2016-07-17T07:44:03Z</time>
      </trkpt>
      <trkpt lat="43.5281" lon="5.89562">
        <ele>379</ele>
        <time>2016-07-17T07:44:08Z</time>
      </trkpt>
      <trkpt lat="43.52788" lon="5.8957">
        <ele>380</ele>
        <time>2016-07-17T07:44:13Z</time>
      </trkpt>
      <trkpt lat="43.52768" lon="5.89572">
        <ele>380</ele>
        <time>2016-07-17T07:44:17Z</time>
      </trkpt>
      <trkpt lat="43.5275" lon="5.89571">
        <ele>379</ele>
        <time>2016-07-17T07:44:21Z</time>
      </trkpt>
      <trkpt lat="43.52729" lon="5.8957">
        <ele>383</ele>
        <time>2016-07-17T07:44:26Z</time>
      </trkpt>
      <trkpt lat="43.5271" lon="5.89568">
        <ele>384</ele>
        <time>2016-07-17T07:44:31Z</time>
      </trkpt>
      <trkpt lat="43.5269" lon="5.89568">
        <ele>384</ele>
        <time>2016-07-17T07:44:36Z</time>
      </trkpt>
      <trkpt lat="43.52672" lon="5.89568">
        <ele>384</ele>
        <time>2016-07-17T07:44:40Z</time>
      </trkpt>
      <trkpt lat="43.52652" lon="5.89566">
        <ele>386</ele>
        <time>2016-07-17T07:44:44Z</time>
      </trkpt>
      <trkpt lat="43.52631" lon="5.89566">
        <ele>387</ele>
        <time>2016-07-17T07:44:49Z</time>
      </trkpt>
      <trkpt lat="43.52612" lon="5.89565">
        <ele>387</ele>
        <time>2016-07-17T07:44:53Z</time>
      </trkpt>
      <trkpt lat="43.52588" lon="5.89562">
        <ele>387</ele>
        <time>2016-07-17T07:44:57Z</time>
      </trkpt>
      <trkpt lat="43.5257" lon="5.89561">
        <ele>389</ele>
        <time>2016-07-17T07:45:01Z</time>
      </trkpt>
      <trkpt lat="43.5255" lon="5.8956">
        <ele>390</ele>
        <time>2016-07-17T07:45:06Z</time>
      </trkpt>
      <trkpt lat="43.52531" lon="5.89558">
        <ele>390</ele>
        <time>2016-07-17T07:45:11Z</time>
      </trkpt>
      <trkpt lat="43.52512" lon="5.89557">
        <ele>390</ele>
        <time>2016-07-17T07:45:15Z</time>
      </trkpt>
      <trkpt lat="43.52491" lon="5.89558">
        <ele>390</ele>
        <time>2016-07-17T07:45:20Z</time>
      </trkpt>
      <trkpt lat="43.52468" lon="5.8956">
        <ele>391</ele>
        <time>2016-07-17T07:45:25Z</time>
      </trkpt>
      <trkpt lat="43.52449" lon="5.8956">
        <ele>391</ele>
        <time>2016-07-17T07:45:31Z</time>
      </trkpt>
      <trkpt lat="43.52431" lon="5.89557">
        <ele>391</ele>
        <time>2016-07-17T07:45:40Z</time>
      </trkpt>
      <trkpt lat="43.5241" lon="5.89555">
        <ele>390</ele>
        <time>2016-07-17T07:45:49Z</time>
      </trkpt>
      <trkpt lat="43.52391" lon="5.89552">
        <ele>390</ele>
        <time>2016-07-17T07:45:55Z</time>
      </trkpt>
      <trkpt lat="43.52372" lon="5.89551">
        <ele>390</ele>
        <time>2016-07-17T07:46:02Z</time>
      </trkpt>
      <trkpt lat="43.52353" lon="5.89553">
        <ele>389</ele>
        <time>2016-07-17T07:46:08Z</time>
      </trkpt>
      <trkpt lat="43.52335" lon="5.89554">
        <ele>388</ele>
        <time>2016-07-17T07:46:13Z</time>
      </trkpt>
      <trkpt lat="43.52313" lon="5.89555">
        <ele>389</ele>
        <time>2016-07-17T07:46:18Z</time>
      </trkpt>
      <trkpt lat="43.52294" lon="5.89554">
        <ele>390</ele>
        <time>2016-07-17T07:46:22Z</time>
      </trkpt>
      <trkpt lat="43.52273" lon="5.89554">
        <ele>390</ele>
        <time>2016-07-17T07:46:26Z</time>
      </trkpt>
      <trkpt lat="43.52254" lon="5.89556">
        <ele>390</ele>
        <time>2016-07-17T07:46:30Z</time>
      </trkpt>
      <trkpt lat="43.52235" lon="5.89564">
        <ele>393</ele>
        <time>2016-07-17T07:46:35Z</time>
      </trkpt>
      <trkpt lat="43.52216" lon="5.89573">
        <ele>394</ele>
        <time>2016-07-17T07:46:40Z</time>
      </trkpt>
      <trkpt lat="43.52198" lon="5.89582">
        <ele>395</ele>
        <time>2016-07-17T07:46:45Z</time>
      </trkpt>
      <trkpt lat="43.52179" lon="5.89591">
        <ele>389</ele>
        <time>2016-07-17T07:46:52Z</time>
      </trkpt>
      <trkpt lat="43.5216" lon="5.896">
        <ele>391</ele>
        <time>2016-07-17T07:46:59Z</time>
      </trkpt>
      <trkpt lat="43.52141" lon="5.89611">
        <ele>390</ele>
        <time>2016-07-17T07:47:05Z</time>
      </trkpt>
      <trkpt lat="43.52123" lon="5.89619">
        <ele>389</ele>
        <time>2016-07-17T07:47:10Z</time>
      </trkpt>
      <trkpt lat="43.52104" lon="5.89628">
        <ele>389</ele>
        <time>2016-07-17T07:47:15Z</time>
      </trkpt>
      <trkpt lat="43.52084" lon="5.89637">
        <ele>389</ele>
        <time>2016-07-17T07:47:19Z</time>
      </trkpt>
      <trkpt lat="43.52062" lon="5.89643">
        <ele>390</ele>
        <time>2016-07-17T07:47:23Z</time>
      </trkpt>
      <trkpt lat="43.52042" lon="5.89648">
        <ele>391</ele>
        <time>2016-07-17T07:47:26Z</time>
      </trkpt>
      <trkpt lat="43.5202" lon="5.89655">
        <ele>390</ele>
        <time>2016-07-17T07:47:30Z</time>
      </trkpt>
      <trkpt lat="43.51998" lon="5.89665">
        <ele>389</ele>
        <time>2016-07-17T07:47:34Z</time>
      </trkpt>
      <trkpt lat="43.51976" lon="5.89673">
        <ele>388</ele>
        <time>2016-07-17T07:47:38Z</time>
      </trkpt>
      <trkpt lat="43.51956" lon="5.89681">
        <ele>387</ele>
        <time>2016-07-17T07:47:42Z</time>
      </trkpt>
      <trkpt lat="43.51937" lon="5.89689">
        <ele>388</ele>
        <time>2016-07-17T07:47:46Z</time>
      </trkpt>
      <trkpt lat="43.51916" lon="5.89694">
        <ele>389</ele>
        <time>2016-07-17T07:47:51Z</time>
      </trkpt>
      <trkpt lat="43.51897" lon="5.89697">
        <ele>389</ele>
        <time>2016-07-17T07:47:55Z</time>
      </trkpt>
      <trkpt lat="43.51878" lon="5.89701">
        <ele>388</ele>
        <time>2016-07-17T07:47:59Z</time>
      </trkpt>
      <trkpt lat="43.5186" lon="5.89703">
        <ele>389</ele>
        <time>2016-07-17T07:48:03Z</time>
      </trkpt>
      <trkpt lat="43.51839" lon="5.89705">
        <ele>389</ele>
        <time>2016-07-17T07:48:08Z</time>
      </trkpt>
      <trkpt lat="43.51819" lon="5.89706">
        <ele>390</ele>
        <time>2016-07-17T07:48:13Z</time>
      </trkpt>
      <trkpt lat="43.518" lon="5.89705">
        <ele>390</ele>
        <time>2016-07-17T07:48:18Z</time>
      </trkpt>
      <trkpt lat="43.51781" lon="5.89703">
        <ele>390</ele>
        <time>2016-07-17T07:48:23Z</time>
      </trkpt>
      <trkpt lat="43.51763" lon="5.89699">
        <ele>390</ele>
        <time>2016-07-17T07:48:28Z</time>
      </trkpt>
      <trkpt lat="43.51745" lon="5.8969">
        <ele>392</ele>
        <time>2016-07-17T07:48:34Z</time>
      </trkpt>
      <trkpt lat="43.51725" lon="5.89681">
        <ele>392</ele>
        <time>2016-07-17T07:48:41Z</time>
      </trkpt>
      <trkpt lat="43.51705" lon="5.89678">
        <ele>392</ele>
        <time>2016-07-17T07:48:48Z</time>
      </trkpt>
      <trkpt lat="43.51686" lon="5.89675">
        <ele>392</ele>
        <time>2016-07-17T07:48:55Z</time>
      </trkpt>
      <trkpt lat="43.51668" lon="5.89669">
        <ele>393</ele>
        <time>2016-07-17T07:49:01Z</time>
      </trkpt>
      <trkpt lat="43.51649" lon="5.89666">
        <ele>394</ele>
        <time>2016-07-17T07:50:05Z</time>
      </trkpt>
      <trkpt lat="43.5163" lon="5.8966">
        <ele>394</ele>
        <time>2016-07-17T07:50:14Z</time>
      </trkpt>
      <trkpt lat="43.51611" lon="5.89655">
        <ele>394</ele>
        <time>2016-07-17T07:50:23Z</time>
      </trkpt>
      <trkpt lat="43.51592" lon="5.89647">
        <ele>394</ele>
        <time>2016-07-17T07:50:31Z</time>
      </trkpt>
      <trkpt lat="43.51592" lon="5.89619">
        <ele>395</ele>
        <time>2016-07-17T07:50:55Z</time>
      </trkpt>
      <trkpt lat="43.51584" lon="5.89595">
        <ele>395</ele>
        <time>2016-07-17T07:51:04Z</time>
      </trkpt>
      <trkpt lat="43.51576" lon="5.89572">
        <ele>397</ele>
        <time>2016-07-17T07:52:13Z</time>
      </trkpt>
      <trkpt lat="43.51561" lon="5.89554">
        <ele>398</ele>
        <time>2016-07-17T07:52:22Z</time>
      </trkpt>
      <trkpt lat="43.51547" lon="5.89537">
        <ele>399</ele>
        <time>2016-07-17T07:52:30Z</time>
      </trkpt>
      <trkpt lat="43.51528" lon="5.89533">
        <ele>399</ele>
        <time>2016-07-17T07:52:38Z</time>
      </trkpt>
      <trkpt lat="43.51511" lon="5.89521">
        <ele>400</ele>
        <time>2016-07-17T07:52:47Z</time>
      </trkpt>
      <trkpt lat="43.51492" lon="5.89514">
        <ele>402</ele>
        <time>2016-07-17T07:52:55Z</time>
      </trkpt>
      <trkpt lat="43.51473" lon="5.89507">
        <ele>402</ele>
        <time>2016-07-17T07:53:04Z</time>
      </trkpt>
      <trkpt lat="43.51456" lon="5.89499">
        <ele>406</ele>
        <time>2016-07-17T07:53:12Z</time>
      </trkpt>
      <trkpt lat="43.51438" lon="5.89486">
        <ele>406</ele>
        <time>2016-07-17T07:53:22Z</time>
      </trkpt>
      <trkpt lat="43.51423" lon="5.89471">
        <ele>407</ele>
        <time>2016-07-17T07:53:32Z</time>
      </trkpt>
      <trkpt lat="43.51407" lon="5.89458">
        <ele>410</ele>
        <time>2016-07-17T07:53:42Z</time>
      </trkpt>
      <trkpt lat="43.51391" lon="5.89446">
        <ele>410</ele>
        <time>2016-07-17T07:53:52Z</time>
      </trkpt>
      <trkpt lat="43.51372" lon="5.89439">
        <ele>410</ele>
        <time>2016-07-17T07:54:00Z</time>
      </trkpt>
      <trkpt lat="43.51353" lon="5.89438">
        <ele>411</ele>
        <time>2016-07-17T07:54:08Z</time>
      </trkpt>
      <trkpt lat="43.51334" lon="5.89438">
        <ele>411</ele>
        <time>2016-07-17T07:54:16Z</time>
      </trkpt>
      <trkpt lat="43.51314" lon="5.89434">
        <ele>412</ele>
        <time>2016-07-17T07:54:24Z</time>
      </trkpt>
      <trkpt lat="43.51296" lon="5.89419">
        <ele>412</ele>
        <time>2016-07-17T07:54:30Z</time>
      </trkpt>
      <trkpt lat="43.5128" lon="5.89399">
        <ele>411</ele>
        <time>2016-07-17T07:54:35Z</time>
      </trkpt>
      <trkpt lat="43.51266" lon="5.89379">
        <ele>410</ele>
        <time>2016-07-17T07:54:39Z</time>
      </trkpt>
      <trkpt lat="43.51251" lon="5.89363">
        <ele>410</ele>
        <time>2016-07-17T07:54:43Z</time>
      </trkpt>
      <trkpt lat="43.51232" lon="5.89344">
        <ele>408</ele>
        <time>2016-07-17T07:54:47Z</time>
      </trkpt>
      <trkpt lat="43.51215" lon="5.89326">
        <ele>406</ele>
        <time>2016-07-17T07:54:51Z</time>
      </trkpt>
      <trkpt lat="43.51195" lon="5.89313">
        <ele>405</ele>
        <time>2016-07-17T07:54:56Z</time>
      </trkpt>
      <trkpt lat="43.51175" lon="5.8931">
        <ele>406</ele>
        <time>2016-07-17T07:55:01Z</time>
      </trkpt>
      <trkpt lat="43.51157" lon="5.89306">
        <ele>405</ele>
        <time>2016-07-17T07:55:06Z</time>
      </trkpt>
      <trkpt lat="43.51139" lon="5.893">
        <ele>404</ele>
        <time>2016-07-17T07:55:11Z</time>
      </trkpt>
      <trkpt lat="43.51121" lon="5.89296">
        <ele>404</ele>
        <time>2016-07-17T07:55:15Z</time>
      </trkpt>
      <trkpt lat="43.511" lon="5.8929">
        <ele>404</ele>
        <time>2016-07-17T07:55:20Z</time>
      </trkpt>
      <trkpt lat="43.51081" lon="5.89286">
        <ele>403</ele>
        <time>2016-07-17T07:55:33Z</time>
      </trkpt>
      <trkpt lat="43.51062" lon="5.89289">
        <ele>403</ele>
        <time>2016-07-17T07:55:40Z</time>
      </trkpt>
      <trkpt lat="43.51043" lon="5.89281">
        <ele>402</ele>
        <time>2016-07-17T07:55:46Z</time>
      </trkpt>
      <trkpt lat="43.51024" lon="5.89269">
        <ele>402</ele>
        <time>2016-07-17T07:55:52Z</time>
      </trkpt>
      <trkpt lat="43.51006" lon="5.89257">
        <ele>401</ele>
        <time>2016-07-17T07:55:57Z</time>
      </trkpt>
      <trkpt lat="43.50986" lon="5.89246">
        <ele>400</ele>
        <time>2016-07-17T07:56:02Z</time>
      </trkpt>
      <trkpt lat="43.50966" lon="5.89238">
        <ele>399</ele>
        <time>2016-07-17T07:56:07Z</time>
      </trkpt>
      <trkpt lat="43.50945" lon="5.89232">
        <ele>398</ele>
        <time>2016-07-17T07:56:11Z</time>
      </trkpt>
      <trkpt lat="43.50928" lon="5.89224">
        <ele>398</ele>
        <time>2016-07-17T07:56:14Z</time>
      </trkpt>
      <trkpt lat="43.50904" lon="5.89218">
        <ele>393</ele>
        <time>2016-07-17T07:56:17Z</time>
      </trkpt>
      <trkpt lat="43.50885" lon="5.89206">
        <ele>392</ele>
        <time>2016-07-17T07:56:21Z</time>
      </trkpt>
      <trkpt lat="43.50864" lon="5.89203">
        <ele>391</ele>
        <time>2016-07-17T07:56:25Z</time>
      </trkpt>
      <trkpt lat="43.50844" lon="5.89196">
        <ele>390</ele>
        <time>2016-07-17T07:56:31Z</time>
      </trkpt>
      <trkpt lat="43.50826" lon="5.89186">
        <ele>383</ele>
        <time>2016-07-17T07:56:36Z</time>
      </trkpt>
      <trkpt lat="43.50812" lon="5.89166">
        <ele>379</ele>
        <time>2016-07-17T07:56:41Z</time>
      </trkpt>
      <trkpt lat="43.50799" lon="5.89146">
        <ele>376</ele>
        <time>2016-07-17T07:56:47Z</time>
      </trkpt>
      <trkpt lat="43.5078" lon="5.89134">
        <ele>374</ele>
        <time>2016-07-17T07:56:54Z</time>
      </trkpt>
      <trkpt lat="43.50761" lon="5.89124">
        <ele>372</ele>
        <time>2016-07-17T07:56:59Z</time>
      </trkpt>
      <trkpt lat="43.50743" lon="5.89126">
        <ele>364</ele>
        <time>2016-07-17T07:57:03Z</time>
      </trkpt>
      <trkpt lat="43.50725" lon="5.89126">
        <ele>363</ele>
        <time>2016-07-17T07:57:07Z</time>
      </trkpt>
      <trkpt lat="43.50705" lon="5.89131">
        <ele>361</ele>
        <time>2016-07-17T07:57:12Z</time>
      </trkpt>
      <trkpt lat="43.50684" lon="5.89127">
        <ele>359</ele>
        <time>2016-07-17T07:57:19Z</time>
      </trkpt>
      <trkpt lat="43.50667" lon="5.89119">
        <ele>359</ele>
        <time>2016-07-17T07:57:25Z</time>
      </trkpt>
      <trkpt lat="43.50648" lon="5.89111">
        <ele>349</ele>
        <time>2016-07-17T07:57:31Z</time>
      </trkpt>
      <trkpt lat="43.50628" lon="5.89101">
        <ele>347</ele>
        <time>2016-07-17T07:57:37Z</time>
      </trkpt>
      <trkpt lat="43.50609" lon="5.89091">
        <ele>345</ele>
        <time>2016-07-17T07:57:43Z</time>
      </trkpt>
      <trkpt lat="43.50591" lon="5.89082">
        <ele>343</ele>
        <time>2016-07-17T07:57:49Z</time>
      </trkpt>
      <trkpt lat="43.50571" lon="5.89075">
        <ele>337</ele>
        <time>2016-07-17T07:57:56Z</time>
      </trkpt>
      <trkpt lat="43.50558" lon="5.89056">
        <ele>334</ele>
        <time>2016-07-17T07:58:01Z</time>
      </trkpt>
      <trkpt lat="43.50547" lon="5.89035">
        <ele>333</ele>
        <time>2016-07-17T07:58:07Z</time>
      </trkpt>
      <trkpt lat="43.5054" lon="5.89012">
        <ele>332</ele>
        <time>2016-07-17T07:58:13Z</time>
      </trkpt>
      <trkpt lat="43.50527" lon="5.8899">
        <ele>331</ele>
        <time>2016-07-17T07:58:19Z</time>
      </trkpt>
      <trkpt lat="43.50512" lon="5.88974">
        <ele>331</ele>
        <time>2016-07-17T07:58:23Z</time>
      </trkpt>
      <trkpt lat="43.50494" lon="5.88963">
        <ele>322</ele>
        <time>2016-07-17T07:58:27Z</time>
      </trkpt>
      <trkpt lat="43.50476" lon="5.88952">
        <ele>321</ele>
        <time>2016-07-17T07:58:31Z</time>
      </trkpt>
      <trkpt lat="43.50457" lon="5.88939">
        <ele>320</ele>
        <time>2016-07-17T07:58:36Z</time>
      </trkpt>
      <trkpt lat="43.50442" lon="5.88922">
        <ele>318</ele>
        <time>2016-07-17T07:58:40Z</time>
      </trkpt>
      <trkpt lat="43.50427" lon="5.88897">
        <ele>319</ele>
        <time>2016-07-17T07:58:44Z</time>
      </trkpt>
      <trkpt lat="43.50415" lon="5.88872">
        <ele>312</ele>
        <time>2016-07-17T07:58:48Z</time>
      </trkpt>
      <trkpt lat="43.50402" lon="5.88854">
        <ele>312</ele>
        <time>2016-07-17T07:58:52Z</time>
      </trkpt>
      <trkpt lat="43.50388" lon="5.88835">
        <ele>311</ele>
        <time>2016-07-17T07:58:56Z</time>
      </trkpt>
      <trkpt lat="43.5038" lon="5.88808">
        <ele>310</ele>
        <time>2016-07-17T07:59:00Z</time>
      </trkpt>
      <trkpt lat="43.50369" lon="5.88785">
        <ele>309</ele>
        <time>2016-07-17T07:59:07Z</time>
      </trkpt>
      <trkpt lat="43.50364" lon="5.8876">
        <ele>308</ele>
        <time>2016-07-17T07:59:13Z</time>
      </trkpt>
      <trkpt lat="43.50362" lon="5.88735">
        <ele>308</ele>
        <time>2016-07-17T07:59:18Z</time>
      </trkpt>
      <trkpt lat="43.50371" lon="5.8871">
        <ele>309</ele>
        <time>2016-07-17T07:59:24Z</time>
      </trkpt>
      <trkpt lat="43.50373" lon="5.88685">
        <ele>309</ele>
        <time>2016-07-17T08:00:29Z</time>
      </trkpt>
    </trkseg>
  </trk>
</gpx>